Wetterdaten: Montag, 16.07.2018
Datum Zeit Temp. A. Feuchte A. Luftdruck Regen Wind Richtung Richtung Sonnenschein ET UV Solar Taupunkt Windchill Windböen
16.07.2018 00:00 13,7 °C 89 % 1012,8 hPa 0,0 mm 4,5 km/h (1 Bft) W-SW 244 ° 0 min 0,000 mm 0,0 UV-I 0 W/m² 11,9 °C 13,7 °C 6,4 km/h (2 Bft)
16.07.2018 00:01 13,7 °C 89 % 1012,8 hPa 0,0 mm 3,9 km/h (1 Bft) W-SW 242 ° 0 min 0,000 mm 0,0 UV-I 0 W/m² 11,9 °C 13,7 °C 6,4 km/h (2 Bft)
16.07.2018 00:02 13,8 °C 89 % 1012,8 hPa 0,0 mm 3,6 km/h (1 Bft) S 171 ° 0 min 0,000 mm 0,0 UV-I 0 W/m² 12,0 °C 13,8 °C 6,4 km/h (2 Bft)
16.07.2018 00:03 13,8 °C 89 % 1012,8 hPa 0,0 mm 4,7 km/h (1 Bft) W-SW 244 ° 0 min 0,000 mm 0,0 UV-I 0 W/m² 12,0 °C 13,8 °C 6,4 km/h (2 Bft)
16.07.2018 00:04 13,8 °C 89 % 1012,9 hPa 0,0 mm 7,0 km/h (2 Bft) W 280 ° 0 min 0,000 mm 0,0 UV-I 0 W/m² 12,0 °C 13,8 °C 11,3 km/h (2 Bft)
16.07.2018 00:05 13,8 °C 88 % 1012,9 hPa 0,0 mm 5,4 km/h (1 Bft) W-NW 286 ° 0 min 0,000 mm 0,0 UV-I 0 W/m² 11,8 °C 13,8 °C 9,7 km/h (2 Bft)
16.07.2018 00:06 13,9 °C 88 % 1013,0 hPa 0,0 mm 4,6 km/h (1 Bft) W 276 ° 0 min 0,000 mm 0,0 UV-I 0 W/m² 11,9 °C 13,9 °C 6,4 km/h (2 Bft)
16.07.2018 00:07 13,9 °C 88 % 1013,0 hPa 0,0 mm 4,8 km/h (1 Bft) W 265 ° 0 min 0,000 mm 0,0 UV-I 0 W/m² 11,9 °C 13,9 °C 9,7 km/h (2 Bft)
16.07.2018 00:08 14,0 °C 88 % 1013,0 hPa 0,0 mm 4,2 km/h (1 Bft) W 265 ° 0 min 0,000 mm 0,0 UV-I 0 W/m² 12,0 °C 14,0 °C 6,4 km/h (2 Bft)
16.07.2018 00:09 14,0 °C 88 % 1013,0 hPa 0,0 mm 4,5 km/h (1 Bft) W 269 ° 0 min 0,000 mm 0,0 UV-I 0 W/m² 12,0 °C 14,0 °C 6,4 km/h (2 Bft)
16.07.2018 00:10 14,1 °C 88 % 1013,1 hPa 0,0 mm 3,8 km/h (1 Bft) W 262 ° 0 min 0,000 mm 0,0 UV-I 0 W/m² 12,1 °C 14,1 °C 6,4 km/h (2 Bft)
16.07.2018 00:11 14,1 °C 87 % 1013,1 hPa 0,0 mm 5,3 km/h (1 Bft) W-NW 292 ° 0 min 0,000 mm 0,0 UV-I 0 W/m² 12,0 °C 14,1 °C 8,0 km/h (2 Bft)
16.07.2018 00:12 14,0 °C 87 % 1013,1 hPa 0,0 mm 4,6 km/h (1 Bft) W-SW 251 ° 0 min 0,000 mm 0,0 UV-I 0 W/m² 11,9 °C 14,0 °C 8,0 km/h (2 Bft)
16.07.2018 00:13 14,0 °C 86 % 1013,1 hPa 0,0 mm 3,7 km/h (1 Bft) W-SW 258 ° 0 min 0,000 mm 0,0 UV-I 0 W/m² 11,7 °C 14,0 °C 4,8 km/h (1 Bft)
16.07.2018 00:14 14,0 °C 86 % 1013,1 hPa 0,0 mm 4,3 km/h (1 Bft) S 186 ° 0 min 0,000 mm 0,0 UV-I 0 W/m² 11,7 °C 14,0 °C 9,7 km/h (2 Bft)
16.07.2018 00:15 14,0 °C 86 % 1013,1 hPa 0,0 mm 3,6 km/h (1 Bft) SW 232 ° 0 min 0,000 mm 0,0 UV-I 0 W/m² 11,7 °C 14,0 °C 6,4 km/h (2 Bft)
16.07.2018 00:16 14,0 °C 86 % 1013,1 hPa 0,0 mm 5,9 km/h (2 Bft) S-SW 207 ° 0 min 0,000 mm 0,0 UV-I 0 W/m² 11,7 °C 14,0 °C 9,7 km/h (2 Bft)
16.07.2018 00:17 14,0 °C 85 % 1013,1 hPa 0,0 mm 5,0 km/h (1 Bft) SW 219 ° 0 min 0,000 mm 0,0 UV-I 0 W/m² 11,5 °C 14,0 °C 9,7 km/h (2 Bft)
16.07.2018 00:18 14,0 °C 85 % 1013,1 hPa 0,0 mm 2,9 km/h (1 Bft) S 169 ° 0 min 0,000 mm 0,0 UV-I 0 W/m² 11,5 °C 14,0 °C 6,4 km/h (2 Bft)
16.07.2018 00:19 13,9 °C 85 % 1013,1 hPa 0,0 mm 3,3 km/h (1 Bft) S 182 ° 0 min 0,000 mm 0,0 UV-I 0 W/m² 11,4 °C 13,9 °C 8,0 km/h (2 Bft)
16.07.2018 00:20 13,9 °C 85 % 1013,1 hPa 0,0 mm 2,1 km/h (1 Bft) S 179 ° 0 min 0,000 mm 0,0 UV-I 0 W/m² 11,4 °C 13,9 °C 6,4 km/h (2 Bft)
16.07.2018 00:21 13,9 °C 85 % 1013,1 hPa 0,0 mm 1,1 km/h (1 Bft) SW 226 ° 0 min 0,000 mm 0,0 UV-I 0 W/m² 11,4 °C 13,9 °C 3,2 km/h (1 Bft)
16.07.2018 00:22 13,9 °C 85 % 1013,1 hPa 0,0 mm 5,8 km/h (2 Bft) S-SO 157 ° 0 min 0,000 mm 0,0 UV-I 0 W/m² 11,4 °C 13,9 °C 11,3 km/h (2 Bft)
16.07.2018 00:23 13,9 °C 85 % 1013,1 hPa 0,0 mm 4,4 km/h (1 Bft) S 189 ° 0 min 0,000 mm 0,0 UV-I 0 W/m² 11,4 °C 13,9 °C 6,4 km/h (2 Bft)
16.07.2018 00:24 13,9 °C 85 % 1013,1 hPa 0,0 mm 4,4 km/h (1 Bft) S-SW 195 ° 0 min 0,000 mm 0,0 UV-I 0 W/m² 11,4 °C 13,9 °C 8,0 km/h (2 Bft)
16.07.2018 00:25 14,0 °C 85 % 1013,1 hPa 0,0 mm 0,6 km/h (0 Bft) S-SW 195 ° 0 min 0,000 mm 0,0 UV-I 0 W/m² 11,5 °C 14,0 °C 1,6 km/h (1 Bft)
16.07.2018 00:26 13,9 °C 85 % 1013,1 hPa 0,0 mm 1,5 km/h (1 Bft) S 183 ° 0 min 0,000 mm 0,0 UV-I 0 W/m² 11,4 °C 13,9 °C 3,2 km/h (1 Bft)
16.07.2018 00:27 13,9 °C 85 % 1013,1 hPa 0,0 mm 3,4 km/h (1 Bft) SO 137 ° 0 min 0,000 mm 0,0 UV-I 0 W/m² 11,4 °C 13,9 °C 6,4 km/h (2 Bft)
16.07.2018 00:28 13,8 °C 85 % 1013,1 hPa 0,0 mm 4,0 km/h (1 Bft) W-SW 255 ° 0 min 0,000 mm 0,0 UV-I 0 W/m² 11,3 °C 13,8 °C 8,0 km/h (2 Bft)
16.07.2018 00:29 13,9 °C 84 % 1013,1 hPa 0,0 mm 3,3 km/h (1 Bft) SW 225 ° 0 min 0,000 mm 0,0 UV-I 0 W/m² 11,2 °C 13,9 °C 4,8 km/h (1 Bft)
16.07.2018 00:30 13,9 °C 84 % 1013,1 hPa 0,0 mm 3,7 km/h (1 Bft) SW 224 ° 0 min 0,000 mm 0,0 UV-I 0 W/m² 11,2 °C 13,9 °C 4,8 km/h (1 Bft)
16.07.2018 00:31 13,9 °C 84 % 1013,1 hPa 0,0 mm 2,1 km/h (1 Bft) SW 217 ° 0 min 0,000 mm 0,0 UV-I 0 W/m² 11,2 °C 13,9 °C 3,2 km/h (1 Bft)
16.07.2018 00:32 13,9 °C 84 % 1013,1 hPa 0,0 mm 0,5 km/h (0 Bft) SW 217 ° 0 min 0,000 mm 0,0 UV-I 0 W/m² 11,2 °C 13,9 °C 1,6 km/h (1 Bft)
16.07.2018 00:33 14,0 °C 84 % 1013,1 hPa 0,0 mm 4,6 km/h (1 Bft) S-SW 192 ° 0 min 0,000 mm 0,0 UV-I 0 W/m² 11,3 °C 14,0 °C 9,7 km/h (2 Bft)
16.07.2018 00:34 14,0 °C 84 % 1013,1 hPa 0,0 mm 4,4 km/h (1 Bft) S 188 ° 0 min 0,000 mm 0,0 UV-I 0 W/m² 11,3 °C 14,0 °C 9,7 km/h (2 Bft)
16.07.2018 00:35 13,9 °C 84 % 1013,0 hPa 0,0 mm 2,0 km/h (1 Bft) S 188 ° 0 min 0,000 mm 0,0 UV-I 0 W/m² 11,2 °C 13,9 °C 3,2 km/h (1 Bft)
16.07.2018 00:36 13,9 °C 84 % 1013,1 hPa 0,0 mm 0,7 km/h (0 Bft) S 188 ° 0 min 0,000 mm 0,0 UV-I 0 W/m² 11,2 °C 13,9 °C 3,2 km/h (1 Bft)
16.07.2018 00:37 13,9 °C 84 % 1013,1 hPa 0,0 mm 1,9 km/h (1 Bft) W 263 ° 0 min 0,000 mm 0,0 UV-I 0 W/m² 11,2 °C 13,9 °C 4,8 km/h (1 Bft)
16.07.2018 00:38 13,8 °C 84 % 1013,1 hPa 0,0 mm 1,5 km/h (1 Bft) W 263 ° 0 min 0,000 mm 0,0 UV-I 0 W/m² 11,1 °C 13,8 °C 3,2 km/h (1 Bft)
16.07.2018 00:39 13,8 °C 84 % 1013,1 hPa 0,0 mm 3,2 km/h (1 Bft) W 262 ° 0 min 0,000 mm 0,0 UV-I 0 W/m² 11,1 °C 13,8 °C 4,8 km/h (1 Bft)
16.07.2018 00:40 13,8 °C 84 % 1013,1 hPa 0,0 mm 2,7 km/h (1 Bft) W-SW 252 ° 0 min 0,000 mm 0,0 UV-I 0 W/m² 11,1 °C 13,8 °C 4,8 km/h (1 Bft)
16.07.2018 00:41 13,8 °C 85 % 1013,1 hPa 0,0 mm 2,5 km/h (1 Bft) W-SW 242 ° 0 min 0,000 mm 0,0 UV-I 0 W/m² 11,3 °C 13,8 °C 3,2 km/h (1 Bft)
16.07.2018 00:42 13,8 °C 85 % 1013,1 hPa 0,0 mm 1,3 km/h (1 Bft) W-SW 242 ° 0 min 0,000 mm 0,0 UV-I 0 W/m² 11,3 °C 13,8 °C 3,2 km/h (1 Bft)
16.07.2018 00:43 13,8 °C 85 % 1013,2 hPa 0,0 mm 2,9 km/h (1 Bft) W-SW 242 ° 0 min 0,000 mm 0,0 UV-I 0 W/m² 11,3 °C 13,8 °C 4,8 km/h (1 Bft)
16.07.2018 00:44 13,7 °C 85 % 1013,2 hPa 0,0 mm 2,7 km/h (1 Bft) W-SW 246 ° 0 min 0,000 mm 0,0 UV-I 0 W/m² 11,2 °C 13,7 °C 4,8 km/h (1 Bft)
16.07.2018 00:45 13,7 °C 85 % 1013,2 hPa 0,0 mm 2,1 km/h (1 Bft) W-SW 246 ° 0 min 0,000 mm 0,0 UV-I 0 W/m² 11,2 °C 13,7 °C 4,8 km/h (1 Bft)
16.07.2018 00:46 13,6 °C 86 % 1013,2 hPa 0,0 mm 1,6 km/h (1 Bft) W-SW 246 ° 0 min 0,000 mm 0,0 UV-I 0 W/m² 11,3 °C 13,6 °C 3,2 km/h (1 Bft)
16.07.2018 00:47 13,6 °C 86 % 1013,2 hPa 0,0 mm 1,9 km/h (1 Bft) W-SW 246 ° 0 min 0,000 mm 0,0 UV-I 0 W/m² 11,3 °C 13,6 °C 3,2 km/h (1 Bft)
16.07.2018 00:48 13,6 °C 86 % 1013,2 hPa 0,0 mm 3,1 km/h (1 Bft) W-SW 246 ° 0 min 0,000 mm 0,0 UV-I 0 W/m² 11,3 °C 13,6 °C 4,8 km/h (1 Bft)
16.07.2018 00:49 13,5 °C 86 % 1013,2 hPa 0,0 mm 3,1 km/h (1 Bft) W-SW 246 ° 0 min 0,000 mm 0,0 UV-I 0 W/m² 11,2 °C 13,5 °C 3,2 km/h (1 Bft)
16.07.2018 00:50 13,5 °C 87 % 1013,2 hPa 0,0 mm 4,5 km/h (1 Bft) W 277 ° 0 min 0,000 mm 0,0 UV-I 0 W/m² 11,4 °C 13,5 °C 6,4 km/h (2 Bft)
16.07.2018 00:51 13,5 °C 87 % 1013,2 hPa 0,0 mm 5,1 km/h (1 Bft) W-NW 282 ° 0 min 0,000 mm 0,0 UV-I 0 W/m² 11,4 °C 13,5 °C 8,0 km/h (2 Bft)
16.07.2018 00:52 13,5 °C 87 % 1013,2 hPa 0,0 mm 6,4 km/h (2 Bft) W-NW 296 ° 0 min 0,000 mm 0,0 UV-I 0 W/m² 11,4 °C 13,5 °C 9,7 km/h (2 Bft)
16.07.2018 00:53 13,4 °C 87 % 1013,2 hPa 0,0 mm 5,5 km/h (1 Bft) W 273 ° 0 min 0,000 mm 0,0 UV-I 0 W/m² 11,3 °C 13,4 °C 8,0 km/h (2 Bft)
16.07.2018 00:54 13,4 °C 87 % 1013,2 hPa 0,0 mm 4,9 km/h (1 Bft) W-NW 284 ° 0 min 0,000 mm 0,0 UV-I 0 W/m² 11,3 °C 13,4 °C 9,7 km/h (2 Bft)
16.07.2018 00:55 13,4 °C 87 % 1013,3 hPa 0,0 mm 5,0 km/h (1 Bft) W 267 ° 0 min 0,000 mm 0,0 UV-I 0 W/m² 11,3 °C 13,4 °C 6,4 km/h (2 Bft)
16.07.2018 00:56 13,4 °C 87 % 1013,3 hPa 0,0 mm 2,0 km/h (1 Bft) W 279 ° 0 min 0,000 mm 0,0 UV-I 0 W/m² 11,3 °C 13,4 °C 3,2 km/h (1 Bft)
16.07.2018 00:57 13,4 °C 87 % 1013,3 hPa 0,0 mm 6,0 km/h (2 Bft) W 267 ° 0 min 0,000 mm 0,0 UV-I 0 W/m² 11,3 °C 13,4 °C 9,7 km/h (2 Bft)
16.07.2018 00:58 13,4 °C 87 % 1013,3 hPa 0,0 mm 3,5 km/h (1 Bft) W 268 ° 0 min 0,000 mm 0,0 UV-I 0 W/m² 11,3 °C 13,4 °C 6,4 km/h (2 Bft)
16.07.2018 00:59 13,4 °C 87 % 1013,2 hPa 0,0 mm 3,5 km/h (1 Bft) W 268 ° 0 min 0,000 mm 0,0 UV-I 0 W/m² 11,3 °C 13,4 °C 4,8 km/h (1 Bft)
16.07.2018 01:00 13,4 °C 87 % 1013,2 hPa 0,0 mm 1,5 km/h (1 Bft) W 268 ° 0 min 0,025 mm 0,0 UV-I 0 W/m² 11,3 °C 13,4 °C 3,2 km/h (1 Bft)
16.07.2018 01:01 13,4 °C 87 % 1013,2 hPa 0,0 mm 0,4 km/h (0 Bft) W 268 ° 0 min 0,000 mm 0,0 UV-I 0 W/m² 11,3 °C 13,4 °C 1,6 km/h (1 Bft)
16.07.2018 01:02 13,4 °C 87 % 1013,2 hPa 0,0 mm 4,6 km/h (1 Bft) W-NW 286 ° 0 min 0,000 mm 0,0 UV-I 0 W/m² 11,3 °C 13,4 °C 9,7 km/h (2 Bft)
16.07.2018 01:03 13,4 °C 87 % 1013,3 hPa 0,0 mm 1,9 km/h (1 Bft) W-NW 286 ° 0 min 0,000 mm 0,0 UV-I 0 W/m² 11,3 °C 13,4 °C 4,8 km/h (1 Bft)
16.07.2018 01:04 13,6 °C 87 % 1013,2 hPa 0,0 mm 0,5 km/h (0 Bft) W-NW 286 ° 0 min 0,000 mm 0,0 UV-I 0 W/m² 11,5 °C 13,6 °C 1,6 km/h (1 Bft)
16.07.2018 01:05 13,5 °C 87 % 1013,2 hPa 0,0 mm 1,4 km/h (1 Bft) W 262 ° 0 min 0,000 mm 0,0 UV-I 0 W/m² 11,4 °C 13,5 °C 4,8 km/h (1 Bft)
16.07.2018 01:06 13,6 °C 87 % 1013,3 hPa 0,0 mm 4,6 km/h (1 Bft) W-SW 243 ° 0 min 0,000 mm 0,0 UV-I 0 W/m² 11,5 °C 13,6 °C 6,4 km/h (2 Bft)
16.07.2018 01:07 13,6 °C 87 % 1013,3 hPa 0,0 mm 4,0 km/h (1 Bft) S 169 ° 0 min 0,000 mm 0,0 UV-I 0 W/m² 11,5 °C 13,6 °C 8,0 km/h (2 Bft)
16.07.2018 01:08 13,7 °C 87 % 1013,3 hPa 0,0 mm 7,1 km/h (2 Bft) SO 144 ° 0 min 0,000 mm 0,0 UV-I 0 W/m² 11,6 °C 13,7 °C 11,3 km/h (2 Bft)
16.07.2018 01:09 13,7 °C 87 % 1013,3 hPa 0,0 mm 1,7 km/h (1 Bft) SO 145 ° 0 min 0,000 mm 0,0 UV-I 0 W/m² 11,6 °C 13,7 °C 6,4 km/h (2 Bft)
16.07.2018 01:10 13,7 °C 86 % 1013,4 hPa 0,0 mm 4,5 km/h (1 Bft) W 276 ° 0 min 0,000 mm 0,0 UV-I 0 W/m² 11,4 °C 13,7 °C 6,4 km/h (2 Bft)
16.07.2018 01:11 13,8 °C 86 % 1013,4 hPa 0,0 mm 2,8 km/h (1 Bft) W 277 ° 0 min 0,000 mm 0,0 UV-I 0 W/m² 11,5 °C 13,8 °C 6,4 km/h (2 Bft)
16.07.2018 01:12 13,8 °C 86 % 1013,4 hPa 0,0 mm 4,9 km/h (1 Bft) W-SW 251 ° 0 min 0,000 mm 0,0 UV-I 0 W/m² 11,5 °C 13,8 °C 6,4 km/h (2 Bft)
16.07.2018 01:13 13,8 °C 86 % 1013,4 hPa 0,0 mm 2,1 km/h (1 Bft) W-SW 251 ° 0 min 0,000 mm 0,0 UV-I 0 W/m² 11,5 °C 13,8 °C 4,8 km/h (1 Bft)
16.07.2018 01:14 13,9 °C 85 % 1013,4 hPa 0,0 mm 0,1 km/h (0 Bft) W-SW 251 ° 0 min 0,000 mm 0,0 UV-I 0 W/m² 11,4 °C 13,9 °C 1,6 km/h (1 Bft)
16.07.2018 01:15 13,8 °C 85 % 1013,4 hPa 0,0 mm 4,0 km/h (1 Bft) W-SW 250 ° 0 min 0,000 mm 0,0 UV-I 0 W/m² 11,3 °C 13,8 °C 11,3 km/h (2 Bft)
16.07.2018 01:16 13,9 °C 85 % 1013,4 hPa 0,0 mm 5,0 km/h (1 Bft) W-SW 255 ° 0 min 0,000 mm 0,0 UV-I 0 W/m² 11,4 °C 13,9 °C 11,3 km/h (2 Bft)
16.07.2018 01:17 13,9 °C 85 % 1013,4 hPa 0,0 mm 1,7 km/h (1 Bft) SW 225 ° 0 min 0,000 mm 0,0 UV-I 0 W/m² 11,4 °C 13,9 °C 4,8 km/h (1 Bft)
16.07.2018 01:18 13,9 °C 85 % 1013,4 hPa 0,0 mm 0,7 km/h (0 Bft) SW 223 ° 0 min 0,000 mm 0,0 UV-I 0 W/m² 11,4 °C 13,9 °C 3,2 km/h (1 Bft)
16.07.2018 01:19 13,9 °C 85 % 1013,4 hPa 0,0 mm 1,6 km/h (1 Bft) SW 215 ° 0 min 0,000 mm 0,0 UV-I 0 W/m² 11,4 °C 13,9 °C 4,8 km/h (1 Bft)
16.07.2018 01:20 14,0 °C 84 % 1013,4 hPa 0,0 mm 2,3 km/h (1 Bft) W 263 ° 0 min 0,000 mm 0,0 UV-I 0 W/m² 11,3 °C 14,0 °C 4,8 km/h (1 Bft)
16.07.2018 01:21 14,1 °C 84 % 1013,4 hPa 0,0 mm 1,1 km/h (1 Bft) W-SW 250 ° 0 min 0,000 mm 0,0 UV-I 0 W/m² 11,4 °C 14,1 °C 3,2 km/h (1 Bft)
16.07.2018 01:22 14,1 °C 84 % 1013,4 hPa 0,0 mm 2,8 km/h (1 Bft) W-SW 239 ° 0 min 0,000 mm 0,0 UV-I 0 W/m² 11,4 °C 14,1 °C 6,4 km/h (2 Bft)
16.07.2018 01:23 14,1 °C 83 % 1013,3 hPa 0,0 mm 0,6 km/h (0 Bft) W-SW 239 ° 0 min 0,000 mm 0,0 UV-I 0 W/m² 11,3 °C 14,1 °C 3,2 km/h (1 Bft)
16.07.2018 01:24 14,1 °C 84 % 1013,3 hPa 0,0 mm 1,0 km/h (0 Bft) W-SW 239 ° 0 min 0,000 mm 0,0 UV-I 0 W/m² 11,4 °C 14,1 °C 3,2 km/h (1 Bft)
16.07.2018 01:25 14,2 °C 84 % 1013,3 hPa 0,0 mm 4,3 km/h (1 Bft) W-SW 241 ° 0 min 0,000 mm 0,0 UV-I 0 W/m² 11,5 °C 14,2 °C 8,0 km/h (2 Bft)
16.07.2018 01:26 14,1 °C 83 % 1013,3 hPa 0,0 mm 5,2 km/h (1 Bft) S 176 ° 0 min 0,000 mm 0,0 UV-I 0 W/m² 11,3 °C 14,1 °C 8,0 km/h (2 Bft)
16.07.2018 01:27 14,1 °C 84 % 1013,4 hPa 0,0 mm 4,6 km/h (1 Bft) SW 225 ° 0 min 0,000 mm 0,0 UV-I 0 W/m² 11,4 °C 14,1 °C 9,7 km/h (2 Bft)
16.07.2018 01:28 14,1 °C 83 % 1013,4 hPa 0,0 mm 3,9 km/h (1 Bft) S-SO 167 ° 0 min 0,000 mm 0,0 UV-I 0 W/m² 11,3 °C 14,1 °C 9,7 km/h (2 Bft)
16.07.2018 01:29 14,2 °C 83 % 1013,3 hPa 0,0 mm 0,0 km/h (0 Bft) W 259 ° 0 min 0,000 mm 0,0 UV-I 0 W/m² 11,4 °C 14,2 °C 0,0 km/h (0 Bft)
16.07.2018 01:30 14,3 °C 82 % 1013,3 hPa 0,0 mm 2,3 km/h (1 Bft) S-SW 196 ° 0 min 0,000 mm 0,0 UV-I 0 W/m² 11,3 °C 14,3 °C 6,4 km/h (2 Bft)
16.07.2018 01:31 14,3 °C 82 % 1013,3 hPa 0,0 mm 1,6 km/h (1 Bft) S-SW 196 ° 0 min 0,000 mm 0,0 UV-I 0 W/m² 11,3 °C 14,3 °C 4,8 km/h (1 Bft)
16.07.2018 01:32 14,4 °C 82 % 1013,3 hPa 0,0 mm 1,9 km/h (1 Bft) S 186 ° 0 min 0,000 mm 0,0 UV-I 0 W/m² 11,4 °C 14,4 °C 4,8 km/h (1 Bft)
16.07.2018 01:33 14,4 °C 81 % 1013,3 hPa 0,0 mm 5,0 km/h (1 Bft) S-SW 197 ° 0 min 0,000 mm 0,0 UV-I 0 W/m² 11,2 °C 14,4 °C 11,3 km/h (2 Bft)
16.07.2018 01:34 14,4 °C 81 % 1013,3 hPa 0,0 mm 4,8 km/h (1 Bft) W-SW 246 ° 0 min 0,000 mm 0,0 UV-I 0 W/m² 11,2 °C 14,4 °C 11,3 km/h (2 Bft)
16.07.2018 01:35 14,5 °C 81 % 1013,3 hPa 0,0 mm 1,4 km/h (1 Bft) W-SW 246 ° 0 min 0,000 mm 0,0 UV-I 0 W/m² 11,3 °C 14,5 °C 3,2 km/h (1 Bft)
16.07.2018 01:36 14,5 °C 81 % 1013,3 hPa 0,0 mm 1,5 km/h (1 Bft) S 188 ° 0 min 0,000 mm 0,0 UV-I 0 W/m² 11,3 °C 14,5 °C 4,8 km/h (1 Bft)
16.07.2018 01:37 14,5 °C 81 % 1013,3 hPa 0,0 mm 0,6 km/h (0 Bft) S 188 ° 0 min 0,000 mm 0,0 UV-I 0 W/m² 11,3 °C 14,5 °C 1,6 km/h (1 Bft)
16.07.2018 01:38 14,4 °C 81 % 1013,2 hPa 0,0 mm 2,0 km/h (1 Bft) S 188 ° 0 min 0,000 mm 0,0 UV-I 0 W/m² 11,2 °C 14,4 °C 8,0 km/h (2 Bft)
16.07.2018 01:39 14,4 °C 81 % 1013,3 hPa 0,0 mm 2,7 km/h (1 Bft) S-SW 194 ° 0 min 0,000 mm 0,0 UV-I 0 W/m² 11,2 °C 14,4 °C 4,8 km/h (1 Bft)
16.07.2018 01:40 14,4 °C 81 % 1013,2 hPa 0,0 mm 0,9 km/h (0 Bft) S-SW 194 ° 0 min 0,000 mm 0,0 UV-I 0 W/m² 11,2 °C 14,4 °C 3,2 km/h (1 Bft)
16.07.2018 01:41 14,4 °C 81 % 1013,3 hPa 0,0 mm 0,0 km/h (0 Bft) S-SW 194 ° 0 min 0,000 mm 0,0 UV-I 0 W/m² 11,2 °C 14,4 °C 0,0 km/h (0 Bft)
16.07.2018 01:42 14,4 °C 82 % 1013,3 hPa 0,0 mm 0,0 km/h (0 Bft) S-SW 194 ° 0 min 0,000 mm 0,0 UV-I 0 W/m² 11,4 °C 14,4 °C 0,0 km/h (0 Bft)
16.07.2018 01:43 14,4 °C 82 % 1013,3 hPa 0,0 mm 0,1 km/h (0 Bft) S-SW 196 ° 0 min 0,000 mm 0,0 UV-I 0 W/m² 11,4 °C 14,4 °C 1,6 km/h (1 Bft)
16.07.2018 01:44 14,3 °C 82 % 1013,3 hPa 0,0 mm 3,4 km/h (1 Bft) NW 308 ° 0 min 0,000 mm 0,0 UV-I 0 W/m² 11,3 °C 14,3 °C 6,4 km/h (2 Bft)
16.07.2018 01:45 14,3 °C 82 % 1013,3 hPa 0,0 mm 2,5 km/h (1 Bft) SW 229 ° 0 min 0,000 mm 0,0 UV-I 0 W/m² 11,3 °C 14,3 °C 6,4 km/h (2 Bft)
16.07.2018 01:46 14,3 °C 82 % 1013,3 hPa 0,0 mm 2,9 km/h (1 Bft) SW 225 ° 0 min 0,000 mm 0,0 UV-I 0 W/m² 11,3 °C 14,3 °C 6,4 km/h (2 Bft)
16.07.2018 01:47 14,3 °C 82 % 1013,4 hPa 0,0 mm 0,5 km/h (0 Bft) SW 225 ° 0 min 0,000 mm 0,0 UV-I 0 W/m² 11,3 °C 14,3 °C 1,6 km/h (1 Bft)
16.07.2018 01:48 14,3 °C 83 % 1013,4 hPa 0,0 mm 1,4 km/h (1 Bft) SW 236 ° 0 min 0,000 mm 0,0 UV-I 0 W/m² 11,5 °C 14,3 °C 3,2 km/h (1 Bft)
16.07.2018 01:49 14,3 °C 83 % 1013,4 hPa 0,0 mm 0,4 km/h (0 Bft) SW 228 ° 0 min 0,000 mm 0,0 UV-I 0 W/m² 11,5 °C 14,3 °C 3,2 km/h (1 Bft)
16.07.2018 01:50 14,2 °C 83 % 1013,4 hPa 0,0 mm 1,0 km/h (0 Bft) SW 228 ° 0 min 0,000 mm 0,0 UV-I 0 W/m² 11,4 °C 14,2 °C 3,2 km/h (1 Bft)
16.07.2018 01:51 14,2 °C 84 % 1013,4 hPa 0,0 mm 0,6 km/h (0 Bft) SW 228 ° 0 min 0,000 mm 0,0 UV-I 0 W/m² 11,5 °C 14,2 °C 1,6 km/h (1 Bft)
16.07.2018 01:52 14,2 °C 84 % 1013,4 hPa 0,0 mm 0,8 km/h (0 Bft) SW 228 ° 0 min 0,000 mm 0,0 UV-I 0 W/m² 11,5 °C 14,2 °C 1,6 km/h (1 Bft)
16.07.2018 01:53 14,2 °C 83 % 1013,4 hPa 0,0 mm 0,2 km/h (0 Bft) SW 228 ° 0 min 0,000 mm 0,0 UV-I 0 W/m² 11,4 °C 14,2 °C 1,6 km/h (1 Bft)
16.07.2018 01:54 14,3 °C 83 % 1013,4 hPa 0,0 mm 0,0 km/h (0 Bft) SW 228 ° 0 min 0,000 mm 0,0 UV-I 0 W/m² 11,5 °C 14,3 °C 0,0 km/h (0 Bft)
16.07.2018 01:55 14,3 °C 83 % 1013,5 hPa 0,0 mm 0,1 km/h (0 Bft) SW 228 ° 0 min 0,000 mm 0,0 UV-I 0 W/m² 11,5 °C 14,3 °C 1,6 km/h (1 Bft)
16.07.2018 01:56 14,3 °C 83 % 1013,4 hPa 0,0 mm 2,0 km/h (1 Bft) SW 227 ° 0 min 0,000 mm 0,0 UV-I 0 W/m² 11,5 °C 14,3 °C 4,8 km/h (1 Bft)
16.07.2018 01:57 14,3 °C 82 % 1013,4 hPa 0,0 mm 2,5 km/h (1 Bft) S-SW 211 ° 0 min 0,000 mm 0,0 UV-I 0 W/m² 11,3 °C 14,3 °C 6,4 km/h (2 Bft)
16.07.2018 01:58 14,3 °C 82 % 1013,4 hPa 0,0 mm 1,1 km/h (1 Bft) S-SW 211 ° 0 min 0,000 mm 0,0 UV-I 0 W/m² 11,3 °C 14,3 °C 3,2 km/h (1 Bft)
16.07.2018 01:59 14,3 °C 82 % 1013,4 hPa 0,0 mm 0,5 km/h (0 Bft) S-SW 211 ° 0 min 0,000 mm 0,0 UV-I 0 W/m² 11,3 °C 14,3 °C 1,6 km/h (1 Bft)
16.07.2018 02:00 14,3 °C 82 % 1013,4 hPa 0,0 mm 0,0 km/h (0 Bft) S-SW 211 ° 0 min 0,026 mm 0,0 UV-I 0 W/m² 11,3 °C 14,3 °C 0,0 km/h (0 Bft)
16.07.2018 02:01 14,3 °C 82 % 1013,4 hPa 0,0 mm 0,0 km/h (0 Bft) S-SW 211 ° 0 min 0,000 mm 0,0 UV-I 0 W/m² 11,3 °C 14,3 °C 0,0 km/h (0 Bft)
16.07.2018 02:02 14,3 °C 82 % 1013,4 hPa 0,0 mm 0,0 km/h (0 Bft) S-SW 211 ° 0 min 0,000 mm 0,0 UV-I 0 W/m² 11,3 °C 14,3 °C 0,0 km/h (0 Bft)
16.07.2018 02:03 14,3 °C 82 % 1013,3 hPa 0,0 mm 0,0 km/h (0 Bft) S-SW 211 ° 0 min 0,000 mm 0,0 UV-I 0 W/m² 11,3 °C 14,3 °C 0,0 km/h (0 Bft)
16.07.2018 02:04 14,3 °C 83 % 1013,3 hPa 0,0 mm 1,3 km/h (1 Bft) S-SO 150 ° 0 min 0,000 mm 0,0 UV-I 0 W/m² 11,5 °C 14,3 °C 3,2 km/h (1 Bft)
16.07.2018 02:05 14,3 °C 83 % 1013,3 hPa 0,0 mm 0,7 km/h (0 Bft) S-SO 150 ° 0 min 0,000 mm 0,0 UV-I 0 W/m² 11,5 °C 14,3 °C 1,6 km/h (1 Bft)
16.07.2018 02:06 14,2 °C 83 % 1013,3 hPa 0,0 mm 0,1 km/h (0 Bft) S-SO 150 ° 0 min 0,000 mm 0,0 UV-I 0 W/m² 11,4 °C 14,2 °C 1,6 km/h (1 Bft)
16.07.2018 02:07 14,2 °C 83 % 1013,3 hPa 0,0 mm 0,0 km/h (0 Bft) S-SO 150 ° 0 min 0,000 mm 0,0 UV-I 0 W/m² 11,4 °C 14,2 °C 0,0 km/h (0 Bft)
16.07.2018 02:08 14,2 °C 83 % 1013,3 hPa 0,0 mm 1,3 km/h (1 Bft) W 269 ° 0 min 0,000 mm 0,0 UV-I 0 W/m² 11,4 °C 14,2 °C 3,2 km/h (1 Bft)
16.07.2018 02:09 14,3 °C 83 % 1013,3 hPa 0,0 mm 1,1 km/h (1 Bft) W 269 ° 0 min 0,000 mm 0,0 UV-I 0 W/m² 11,5 °C 14,3 °C 3,2 km/h (1 Bft)
16.07.2018 02:10 14,3 °C 83 % 1013,3 hPa 0,0 mm 0,9 km/h (0 Bft) W 269 ° 0 min 0,000 mm 0,0 UV-I 0 W/m² 11,5 °C 14,3 °C 1,6 km/h (1 Bft)
16.07.2018 02:11 14,4 °C 82 % 1013,3 hPa 0,0 mm 0,5 km/h (0 Bft) W 269 ° 0 min 0,000 mm 0,0 UV-I 0 W/m² 11,4 °C 14,4 °C 1,6 km/h (1 Bft)
16.07.2018 02:12 14,5 °C 82 % 1013,3 hPa 0,0 mm 0,8 km/h (0 Bft) SW 216 ° 0 min 0,000 mm 0,0 UV-I 0 W/m² 11,5 °C 14,5 °C 4,8 km/h (1 Bft)
16.07.2018 02:13 14,6 °C 82 % 1013,3 hPa 0,0 mm 0,7 km/h (0 Bft) S 186 ° 0 min 0,000 mm 0,0 UV-I 0 W/m² 11,6 °C 14,6 °C 3,2 km/h (1 Bft)
16.07.2018 02:14 14,6 °C 82 % 1013,2 hPa 0,0 mm 3,1 km/h (1 Bft) S 186 ° 0 min 0,000 mm 0,0 UV-I 0 W/m² 11,6 °C 14,6 °C 4,8 km/h (1 Bft)
16.07.2018 02:15 14,6 °C 82 % 1013,2 hPa 0,0 mm 1,7 km/h (1 Bft) S 186 ° 0 min 0,000 mm 0,0 UV-I 0 W/m² 11,6 °C 14,6 °C 3,2 km/h (1 Bft)
16.07.2018 02:16 14,6 °C 83 % 1013,2 hPa 0,0 mm 0,3 km/h (0 Bft) S 186 ° 0 min 0,000 mm 0,0 UV-I 0 W/m² 11,7 °C 14,6 °C 1,6 km/h (1 Bft)
16.07.2018 02:17 14,5 °C 83 % 1013,2 hPa 0,0 mm 0,0 km/h (0 Bft) S 186 ° 0 min 0,000 mm 0,0 UV-I 0 W/m² 11,6 °C 14,5 °C 0,0 km/h (0 Bft)
16.07.2018 02:18 14,4 °C 84 % 1013,2 hPa 0,0 mm 1,0 km/h (0 Bft) W 263 ° 0 min 0,000 mm 0,0 UV-I 0 W/m² 11,7 °C 14,4 °C 6,4 km/h (2 Bft)
16.07.2018 02:19 14,4 °C 83 % 1013,2 hPa 0,0 mm 5,4 km/h (1 Bft) W 266 ° 0 min 0,000 mm 0,0 UV-I 0 W/m² 11,5 °C 14,4 °C 9,7 km/h (2 Bft)
16.07.2018 02:20 14,4 °C 83 % 1013,2 hPa 0,0 mm 3,6 km/h (1 Bft) W 266 ° 0 min 0,000 mm 0,0 UV-I 0 W/m² 11,5 °C 14,4 °C 4,8 km/h (1 Bft)
16.07.2018 02:21 14,4 °C 83 % 1013,2 hPa 0,0 mm 1,5 km/h (1 Bft) W 266 ° 0 min 0,000 mm 0,0 UV-I 0 W/m² 11,5 °C 14,4 °C 3,2 km/h (1 Bft)
16.07.2018 02:22 14,3 °C 83 % 1013,2 hPa 0,0 mm 0,2 km/h (0 Bft) W 266 ° 0 min 0,000 mm 0,0 UV-I 0 W/m² 11,5 °C 14,3 °C 1,6 km/h (1 Bft)
16.07.2018 02:23 14,3 °C 83 % 1013,2 hPa 0,0 mm 0,0 km/h (0 Bft) W 266 ° 0 min 0,000 mm 0,0 UV-I 0 W/m² 11,5 °C 14,3 °C 0,0 km/h (0 Bft)
16.07.2018 02:24 14,4 °C 83 % 1013,1 hPa 0,0 mm 0,0 km/h (0 Bft) W 266 ° 0 min 0,000 mm 0,0 UV-I 0 W/m² 11,5 °C 14,4 °C 0,0 km/h (0 Bft)
16.07.2018 02:25 14,4 °C 83 % 1013,1 hPa 0,0 mm 2,6 km/h (1 Bft) W 265 ° 0 min 0,000 mm 0,0 UV-I 0 W/m² 11,5 °C 14,4 °C 4,8 km/h (1 Bft)
16.07.2018 02:26 14,3 °C 84 % 1013,1 hPa 0,0 mm 2,7 km/h (1 Bft) W-SW 244 ° 0 min 0,000 mm 0,0 UV-I 0 W/m² 11,6 °C 14,3 °C 4,8 km/h (1 Bft)
16.07.2018 02:27 14,3 °C 84 % 1013,1 hPa 0,0 mm 2,6 km/h (1 Bft) S-SW 211 ° 0 min 0,000 mm 0,0 UV-I 0 W/m² 11,6 °C 14,3 °C 3,2 km/h (1 Bft)
16.07.2018 02:28 14,3 °C 84 % 1013,1 hPa 0,0 mm 2,1 km/h (1 Bft) S-SW 211 ° 0 min 0,000 mm 0,0 UV-I 0 W/m² 11,6 °C 14,3 °C 3,2 km/h (1 Bft)
16.07.2018 02:29 14,4 °C 84 % 1013,1 hPa 0,0 mm 0,5 km/h (0 Bft) S-SW 211 ° 0 min 0,000 mm 0,0 UV-I 0 W/m² 11,7 °C 14,4 °C 1,6 km/h (1 Bft)
16.07.2018 02:30 14,3 °C 84 % 1013,1 hPa 0,0 mm 0,0 km/h (0 Bft) S-SW 211 ° 0 min 0,000 mm 0,0 UV-I 0 W/m² 11,6 °C 14,3 °C 0,0 km/h (0 Bft)
16.07.2018 02:31 14,4 °C 83 % 1013,1 hPa 0,0 mm 0,0 km/h (0 Bft) SW 220 ° 0 min 0,000 mm 0,0 UV-I 0 W/m² 11,5 °C 14,4 °C 0,0 km/h (0 Bft)
16.07.2018 02:32 14,4 °C 84 % 1013,1 hPa 0,0 mm 0,0 km/h (0 Bft) W-SW 253 ° 0 min 0,000 mm 0,0 UV-I 0 W/m² 11,7 °C 14,4 °C 0,0 km/h (0 Bft)
16.07.2018 02:33 14,4 °C 84 % 1013,1 hPa 0,0 mm 0,0 km/h (0 Bft) W-SW 253 ° 0 min 0,000 mm 0,0 UV-I 0 W/m² 11,7 °C 14,4 °C 0,0 km/h (0 Bft)
16.07.2018 02:34 14,4 °C 84 % 1013,1 hPa 0,0 mm 0,0 km/h (0 Bft) W-SW 253 ° 0 min 0,000 mm 0,0 UV-I 0 W/m² 11,7 °C 14,4 °C 0,0 km/h (0 Bft)
16.07.2018 02:35 14,4 °C 83 % 1013,0 hPa 0,0 mm 0,0 km/h (0 Bft) W-SW 253 ° 0 min 0,000 mm 0,0 UV-I 0 W/m² 11,5 °C 14,4 °C 0,0 km/h (0 Bft)
16.07.2018 02:36 14,4 °C 83 % 1013,0 hPa 0,0 mm 0,0 km/h (0 Bft) W-SW 253 ° 0 min 0,000 mm 0,0 UV-I 0 W/m² 11,5 °C 14,4 °C 0,0 km/h (0 Bft)
16.07.2018 02:37 14,4 °C 83 % 1013,0 hPa 0,0 mm 0,0 km/h (0 Bft) W-SW 253 ° 0 min 0,000 mm 0,0 UV-I 0 W/m² 11,5 °C 14,4 °C 0,0 km/h (0 Bft)
16.07.2018 02:38 14,4 °C 83 % 1012,9 hPa 0,0 mm 0,0 km/h (0 Bft) W-SW 253 ° 0 min 0,000 mm 0,0 UV-I 0 W/m² 11,5 °C 14,4 °C 0,0 km/h (0 Bft)
16.07.2018 02:39 14,4 °C 84 % 1013,0 hPa 0,0 mm 0,0 km/h (0 Bft) W-SW 253 ° 0 min 0,000 mm 0,0 UV-I 0 W/m² 11,7 °C 14,4 °C 0,0 km/h (0 Bft)
16.07.2018 02:40 14,4 °C 84 % 1013,0 hPa 0,0 mm 0,0 km/h (0 Bft) W-SW 253 ° 0 min 0,000 mm 0,0 UV-I 0 W/m² 11,7 °C 14,4 °C 0,0 km/h (0 Bft)
16.07.2018 02:41 14,4 °C 83 % 1013,0 hPa 0,0 mm 0,2 km/h (0 Bft) W-SW 253 ° 0 min 0,000 mm 0,0 UV-I 0 W/m² 11,5 °C 14,4 °C 1,6 km/h (1 Bft)
16.07.2018 02:42 14,4 °C 83 % 1012,9 hPa 0,0 mm 0,7 km/h (0 Bft) W-SW 253 ° 0 min 0,000 mm 0,0 UV-I 0 W/m² 11,5 °C 14,4 °C 3,2 km/h (1 Bft)
16.07.2018 02:43 14,4 °C 83 % 1013,0 hPa 0,0 mm 1,1 km/h (1 Bft) W-SW 253 ° 0 min 0,000 mm 0,0 UV-I 0 W/m² 11,5 °C 14,4 °C 1,6 km/h (1 Bft)
16.07.2018 02:44 14,3 °C 83 % 1013,0 hPa 0,0 mm 0,0 km/h (0 Bft) W-SW 253 ° 0 min 0,000 mm 0,0 UV-I 0 W/m² 11,5 °C 14,3 °C 0,0 km/h (0 Bft)
16.07.2018 02:45 14,3 °C 83 % 1013,0 hPa 0,0 mm 0,0 km/h (0 Bft) W-SW 253 ° 0 min 0,000 mm 0,0 UV-I 0 W/m² 11,5 °C 14,3 °C 0,0 km/h (0 Bft)
16.07.2018 02:46 14,3 °C 83 % 1013,0 hPa 0,0 mm 0,0 km/h (0 Bft) W-SW 253 ° 0 min 0,000 mm 0,0 UV-I 0 W/m² 11,5 °C 14,3 °C 0,0 km/h (0 Bft)
16.07.2018 02:47 14,3 °C 83 % 1012,9 hPa 0,0 mm 0,0 km/h (0 Bft) W-SW 253 ° 0 min 0,000 mm 0,0 UV-I 0 W/m² 11,5 °C 14,3 °C 0,0 km/h (0 Bft)
16.07.2018 02:48 14,3 °C 83 % 1012,9 hPa 0,0 mm 0,0 km/h (0 Bft) W-SW 253 ° 0 min 0,000 mm 0,0 UV-I 0 W/m² 11,5 °C 14,3 °C 0,0 km/h (0 Bft)
16.07.2018 02:49 14,2 °C 84 % 1013,0 hPa 0,0 mm 0,0 km/h (0 Bft) W-SW 253 ° 0 min 0,000 mm 0,0 UV-I 0 W/m² 11,5 °C 14,2 °C 0,0 km/h (0 Bft)
16.07.2018 02:50 14,2 °C 84 % 1012,8 hPa 0,0 mm 1,7 km/h (1 Bft) W-SW 253 ° 0 min 0,000 mm 0,0 UV-I 0 W/m² 11,5 °C 14,2 °C 3,2 km/h (1 Bft)
16.07.2018 02:51 14,2 °C 84 % 1012,8 hPa 0,0 mm 1,9 km/h (1 Bft) S-SO 159 ° 0 min 0,000 mm 0,0 UV-I 0 W/m² 11,5 °C 14,2 °C 6,4 km/h (2 Bft)
16.07.2018 02:52 14,2 °C 84 % 1012,9 hPa 0,0 mm 6,2 km/h (2 Bft) S 177 ° 0 min 0,000 mm 0,0 UV-I 0 W/m² 11,5 °C 14,2 °C 9,7 km/h (2 Bft)
16.07.2018 02:53 14,2 °C 84 % 1012,9 hPa 0,0 mm 1,4 km/h (1 Bft) S 177 ° 0 min 0,000 mm 0,0 UV-I 0 W/m² 11,5 °C 14,2 °C 3,2 km/h (1 Bft)
16.07.2018 02:54 14,2 °C 84 % 1012,9 hPa 0,0 mm 1,6 km/h (1 Bft) S 177 ° 0 min 0,000 mm 0,0 UV-I 0 W/m² 11,5 °C 14,2 °C 4,8 km/h (1 Bft)
16.07.2018 02:55 14,2 °C 84 % 1012,8 hPa 0,0 mm 1,1 km/h (1 Bft) S 177 ° 0 min 0,000 mm 0,0 UV-I 0 W/m² 11,5 °C 14,2 °C 3,2 km/h (1 Bft)
16.07.2018 02:56 14,2 °C 84 % 1012,9 hPa 0,0 mm 1,6 km/h (1 Bft) S 177 ° 0 min 0,000 mm 0,0 UV-I 0 W/m² 11,5 °C 14,2 °C 3,2 km/h (1 Bft)
16.07.2018 02:57 14,2 °C 84 % 1012,8 hPa 0,0 mm 2,2 km/h (1 Bft) S 177 ° 0 min 0,000 mm 0,0 UV-I 0 W/m² 11,5 °C 14,2 °C 3,2 km/h (1 Bft)
16.07.2018 02:58 14,1 °C 84 % 1012,8 hPa 0,0 mm 2,1 km/h (1 Bft) S 177 ° 0 min 0,000 mm 0,0 UV-I 0 W/m² 11,4 °C 14,1 °C 3,2 km/h (1 Bft)
16.07.2018 02:59 14,1 °C 85 % 1012,7 hPa 0,0 mm 2,2 km/h (1 Bft) S 177 ° 0 min 0,000 mm 0,0 UV-I 0 W/m² 11,6 °C 14,1 °C 4,8 km/h (1 Bft)
16.07.2018 03:00 14,1 °C 85 % 1012,7 hPa 0,0 mm 0,1 km/h (0 Bft) S 177 ° 0 min 0,025 mm 0,0 UV-I 0 W/m² 11,6 °C 14,1 °C 1,6 km/h (1 Bft)
16.07.2018 03:01 14,0 °C 85 % 1012,7 hPa 0,0 mm 0,1 km/h (0 Bft) S 177 ° 0 min 0,000 mm 0,0 UV-I 0 W/m² 11,5 °C 14,0 °C 1,6 km/h (1 Bft)
16.07.2018 03:02 13,9 °C 85 % 1012,7 hPa 0,0 mm 0,0 km/h (0 Bft) S 177 ° 0 min 0,000 mm 0,0 UV-I 0 W/m² 11,4 °C 13,9 °C 0,0 km/h (0 Bft)
16.07.2018 03:03 13,9 °C 85 % 1012,6 hPa 0,0 mm 0,0 km/h (0 Bft) S 177 ° 0 min 0,000 mm 0,0 UV-I 0 W/m² 11,4 °C 13,9 °C 0,0 km/h (0 Bft)
16.07.2018 03:04 13,9 °C 85 % 1012,6 hPa 0,0 mm 0,0 km/h (0 Bft) S 177 ° 0 min 0,000 mm 0,0 UV-I 0 W/m² 11,4 °C 13,9 °C 0,0 km/h (0 Bft)
16.07.2018 03:05 13,8 °C 85 % 1012,7 hPa 0,0 mm 0,0 km/h (0 Bft) S 177 ° 0 min 0,000 mm 0,0 UV-I 0 W/m² 11,3 °C 13,8 °C 0,0 km/h (0 Bft)
16.07.2018 03:06 13,8 °C 85 % 1012,7 hPa 0,0 mm 1,5 km/h (1 Bft) SW 229 ° 0 min 0,000 mm 0,0 UV-I 0 W/m² 11,3 °C 13,8 °C 3,2 km/h (1 Bft)
16.07.2018 03:07 13,8 °C 85 % 1012,7 hPa 0,0 mm 2,6 km/h (1 Bft) W-NW 302 ° 0 min 0,000 mm 0,0 UV-I 0 W/m² 11,3 °C 13,8 °C 4,8 km/h (1 Bft)
16.07.2018 03:08 13,8 °C 85 % 1012,7 hPa 0,0 mm 2,3 km/h (1 Bft) W-NW 302 ° 0 min 0,000 mm 0,0 UV-I 0 W/m² 11,3 °C 13,8 °C 3,2 km/h (1 Bft)
16.07.2018 03:09 13,8 °C 85 % 1012,7 hPa 0,0 mm 0,5 km/h (0 Bft) W-NW 302 ° 0 min 0,000 mm 0,0 UV-I 0 W/m² 11,3 °C 13,8 °C 3,2 km/h (1 Bft)
16.07.2018 03:10 13,8 °C 85 % 1012,7 hPa 0,0 mm 0,0 km/h (0 Bft) W-NW 302 ° 0 min 0,000 mm 0,0 UV-I 0 W/m² 11,3 °C 13,8 °C 0,0 km/h (0 Bft)
16.07.2018 03:11 13,8 °C 85 % 1012,7 hPa 0,0 mm 0,0 km/h (0 Bft) W-NW 302 ° 0 min 0,000 mm 0,0 UV-I 0 W/m² 11,3 °C 13,8 °C 0,0 km/h (0 Bft)
16.07.2018 03:12 13,7 °C 86 % 1012,8 hPa 0,0 mm 0,0 km/h (0 Bft) W-NW 302 ° 0 min 0,000 mm 0,0 UV-I 0 W/m² 11,4 °C 13,7 °C 0,0 km/h (0 Bft)
16.07.2018 03:13 13,7 °C 86 % 1012,7 hPa 0,0 mm 0,2 km/h (0 Bft) W-NW 302 ° 0 min 0,000 mm 0,0 UV-I 0 W/m² 11,4 °C 13,7 °C 1,6 km/h (1 Bft)
16.07.2018 03:14 13,7 °C 86 % 1012,7 hPa 0,0 mm 0,0 km/h (0 Bft) W-NW 302 ° 0 min 0,000 mm 0,0 UV-I 0 W/m² 11,4 °C 13,7 °C 0,0 km/h (0 Bft)
16.07.2018 03:15 13,7 °C 86 % 1012,6 hPa 0,0 mm 0,0 km/h (0 Bft) W-NW 302 ° 0 min 0,000 mm 0,0 UV-I 0 W/m² 11,4 °C 13,7 °C 0,0 km/h (0 Bft)
16.07.2018 03:16 13,7 °C 86 % 1012,6 hPa 0,0 mm 0,0 km/h (0 Bft) W-NW 302 ° 0 min 0,000 mm 0,0 UV-I 0 W/m² 11,4 °C 13,7 °C 0,0 km/h (0 Bft)
16.07.2018 03:17 13,6 °C 86 % 1012,6 hPa 0,0 mm 0,0 km/h (0 Bft) W-NW 302 ° 0 min 0,000 mm 0,0 UV-I 0 W/m² 11,3 °C 13,6 °C 0,0 km/h (0 Bft)
16.07.2018 03:18 13,6 °C 86 % 1012,6 hPa 0,0 mm 0,0 km/h (0 Bft) W-NW 302 ° 0 min 0,000 mm 0,0 UV-I 0 W/m² 11,3 °C 13,6 °C 0,0 km/h (0 Bft)
16.07.2018 03:19 13,6 °C 86 % 1012,5 hPa 0,0 mm 0,0 km/h (0 Bft) W-NW 302 ° 0 min 0,000 mm 0,0 UV-I 0 W/m² 11,3 °C 13,6 °C 0,0 km/h (0 Bft)
16.07.2018 03:20 13,6 °C 86 % 1012,5 hPa 0,0 mm 0,0 km/h (0 Bft) W-NW 302 ° 0 min 0,000 mm 0,0 UV-I 0 W/m² 11,3 °C 13,6 °C 0,0 km/h (0 Bft)
16.07.2018 03:21 13,6 °C 86 % 1012,6 hPa 0,0 mm 0,0 km/h (0 Bft) W-NW 302 ° 0 min 0,000 mm 0,0 UV-I 0 W/m² 11,3 °C 13,6 °C 0,0 km/h (0 Bft)
16.07.2018 03:22 13,5 °C 87 % 1012,6 hPa 0,0 mm 0,0 km/h (0 Bft) W-NW 302 ° 0 min 0,000 mm 0,0 UV-I 0 W/m² 11,4 °C 13,5 °C 0,0 km/h (0 Bft)
16.07.2018 03:23 13,6 °C 86 % 1012,6 hPa 0,0 mm 0,0 km/h (0 Bft) W-NW 302 ° 0 min 0,000 mm 0,0 UV-I 0 W/m² 11,3 °C 13,6 °C 0,0 km/h (0 Bft)
16.07.2018 03:24 13,6 °C 87 % 1012,6 hPa 0,0 mm 0,0 km/h (0 Bft) W-NW 302 ° 0 min 0,000 mm 0,0 UV-I 0 W/m² 11,5 °C 13,6 °C 0,0 km/h (0 Bft)
16.07.2018 03:25 13,6 °C 86 % 1012,6 hPa 0,0 mm 0,0 km/h (0 Bft) W-NW 302 ° 0 min 0,000 mm 0,0 UV-I 0 W/m² 11,3 °C 13,6 °C 0,0 km/h (0 Bft)
16.07.2018 03:26 13,5 °C 87 % 1012,6 hPa 0,0 mm 0,0 km/h (0 Bft) W-NW 302 ° 0 min 0,000 mm 0,0 UV-I 0 W/m² 11,4 °C 13,5 °C 0,0 km/h (0 Bft)
16.07.2018 03:27 13,5 °C 87 % 1012,5 hPa 0,0 mm 0,0 km/h (0 Bft) W-NW 302 ° 0 min 0,000 mm 0,0 UV-I 0 W/m² 11,4 °C 13,5 °C 0,0 km/h (0 Bft)
16.07.2018 03:28 13,5 °C 87 % 1012,5 hPa 0,0 mm 0,0 km/h (0 Bft) W-NW 302 ° 0 min 0,000 mm 0,0 UV-I 0 W/m² 11,4 °C 13,5 °C 0,0 km/h (0 Bft)
16.07.2018 03:29 13,4 °C 87 % 1012,5 hPa 0,0 mm 0,0 km/h (0 Bft) W-NW 302 ° 0 min 0,000 mm 0,0 UV-I 0 W/m² 11,3 °C 13,4 °C 0,0 km/h (0 Bft)
16.07.2018 03:30 13,4 °C 87 % 1012,5 hPa 0,0 mm 0,0 km/h (0 Bft) W-NW 302 ° 0 min 0,000 mm 0,0 UV-I 0 W/m² 11,3 °C 13,4 °C 0,0 km/h (0 Bft)
16.07.2018 03:31 13,4 °C 87 % 1012,6 hPa 0,0 mm 0,0 km/h (0 Bft) W-NW 302 ° 0 min 0,000 mm 0,0 UV-I 0 W/m² 11,3 °C 13,4 °C 0,0 km/h (0 Bft)
16.07.2018 03:32 13,4 °C 87 % 1012,5 hPa 0,0 mm 0,0 km/h (0 Bft) W-NW 302 ° 0 min 0,000 mm 0,0 UV-I 0 W/m² 11,3 °C 13,4 °C 0,0 km/h (0 Bft)
16.07.2018 03:33 13,4 °C 87 % 1012,6 hPa 0,0 mm 0,0 km/h (0 Bft) W-NW 302 ° 0 min 0,000 mm 0,0 UV-I 0 W/m² 11,3 °C 13,4 °C 0,0 km/h (0 Bft)
16.07.2018 03:34 13,3 °C 87 % 1012,6 hPa 0,0 mm 0,0 km/h (0 Bft) W-NW 302 ° 0 min 0,000 mm 0,0 UV-I 0 W/m² 11,2 °C 13,3 °C 0,0 km/h (0 Bft)
16.07.2018 03:35 13,3 °C 87 % 1012,6 hPa 0,0 mm 0,0 km/h (0 Bft) W-NW 302 ° 0 min 0,000 mm 0,0 UV-I 0 W/m² 11,2 °C 13,3 °C 0,0 km/h (0 Bft)
16.07.2018 03:36 13,3 °C 87 % 1012,6 hPa 0,0 mm 0,0 km/h (0 Bft) W-NW 302 ° 0 min 0,000 mm 0,0 UV-I 0 W/m² 11,2 °C 13,3 °C 0,0 km/h (0 Bft)
16.07.2018 03:37 13,3 °C 88 % 1012,5 hPa 0,0 mm 0,0 km/h (0 Bft) W-NW 302 ° 0 min 0,000 mm 0,0 UV-I 0 W/m² 11,4 °C 13,3 °C 0,0 km/h (0 Bft)
16.07.2018 03:38 13,3 °C 87 % 1012,5 hPa 0,0 mm 0,0 km/h (0 Bft) W-NW 302 ° 0 min 0,000 mm 0,0 UV-I 0 W/m² 11,2 °C 13,3 °C 0,0 km/h (0 Bft)
16.07.2018 03:39 13,3 °C 88 % 1012,5 hPa 0,0 mm 0,0 km/h (0 Bft) W-NW 302 ° 0 min 0,000 mm 0,0 UV-I 0 W/m² 11,4 °C 13,3 °C 0,0 km/h (0 Bft)
16.07.2018 03:40 13,3 °C 88 % 1012,6 hPa 0,0 mm 0,0 km/h (0 Bft) W-NW 302 ° 0 min 0,000 mm 0,0 UV-I 0 W/m² 11,4 °C 13,3 °C 0,0 km/h (0 Bft)
16.07.2018 03:41 13,3 °C 88 % 1012,6 hPa 0,0 mm 0,0 km/h (0 Bft) W-NW 302 ° 0 min 0,000 mm 0,0 UV-I 0 W/m² 11,4 °C 13,3 °C 0,0 km/h (0 Bft)
16.07.2018 03:42 13,3 °C 87 % 1012,6 hPa 0,0 mm 0,0 km/h (0 Bft) W-NW 302 ° 0 min 0,000 mm 0,0 UV-I 0 W/m² 11,2 °C 13,3 °C 0,0 km/h (0 Bft)
16.07.2018 03:43 13,3 °C 87 % 1012,6 hPa 0,0 mm 0,0 km/h (0 Bft) W-NW 302 ° 0 min 0,000 mm 0,0 UV-I 0 W/m² 11,2 °C 13,3 °C 0,0 km/h (0 Bft)
16.07.2018 03:44 13,3 °C 87 % 1012,6 hPa 0,0 mm 0,0 km/h (0 Bft) W-NW 302 ° 0 min 0,000 mm 0,0 UV-I 0 W/m² 11,2 °C 13,3 °C 0,0 km/h (0 Bft)
16.07.2018 03:45 13,3 °C 87 % 1012,6 hPa 0,0 mm 0,0 km/h (0 Bft) W-NW 302 ° 0 min 0,000 mm 0,0 UV-I 0 W/m² 11,2 °C 13,3 °C 0,0 km/h (0 Bft)
16.07.2018 03:46 13,3 °C 87 % 1012,6 hPa 0,0 mm 0,0 km/h (0 Bft) W-NW 302 ° 0 min 0,000 mm 0,0 UV-I 0 W/m² 11,2 °C 13,3 °C 0,0 km/h (0 Bft)
16.07.2018 03:47 13,3 °C 87 % 1012,6 hPa 0,0 mm 0,0 km/h (0 Bft) W-NW 302 ° 0 min 0,000 mm 0,0 UV-I 0 W/m² 11,2 °C 13,3 °C 0,0 km/h (0 Bft)
16.07.2018 03:48 13,4 °C 87 % 1012,6 hPa 0,0 mm 0,0 km/h (0 Bft) W-NW 302 ° 0 min 0,000 mm 0,0 UV-I 0 W/m² 11,3 °C 13,4 °C 0,0 km/h (0 Bft)
16.07.2018 03:49 13,4 °C 87 % 1012,6 hPa 0,0 mm 1,8 km/h (1 Bft) W-NW 302 ° 0 min 0,000 mm 0,0 UV-I 0 W/m² 11,3 °C 13,4 °C 3,2 km/h (1 Bft)
16.07.2018 03:50 13,4 °C 87 % 1012,6 hPa 0,0 mm 0,7 km/h (0 Bft) W-NW 302 ° 0 min 0,000 mm 0,0 UV-I 0 W/m² 11,3 °C 13,4 °C 1,6 km/h (1 Bft)
16.07.2018 03:51 13,4 °C 87 % 1012,6 hPa 0,0 mm 0,0 km/h (0 Bft) W-NW 302 ° 0 min 0,000 mm 0,0 UV-I 0 W/m² 11,3 °C 13,4 °C 0,0 km/h (0 Bft)
16.07.2018 03:52 13,4 °C 87 % 1012,6 hPa 0,0 mm 0,0 km/h (0 Bft) W-NW 302 ° 0 min 0,000 mm 0,0 UV-I 0 W/m² 11,3 °C 13,4 °C 0,0 km/h (0 Bft)
16.07.2018 03:53 13,4 °C 87 % 1012,6 hPa 0,0 mm 0,0 km/h (0 Bft) W-NW 302 ° 0 min 0,000 mm 0,0 UV-I 0 W/m² 11,3 °C 13,4 °C 0,0 km/h (0 Bft)
16.07.2018 03:54 13,4 °C 87 % 1012,6 hPa 0,0 mm 0,0 km/h (0 Bft) W-NW 302 ° 0 min 0,000 mm 0,0 UV-I 0 W/m² 11,3 °C 13,4 °C 0,0 km/h (0 Bft)
16.07.2018 03:55 13,4 °C 87 % 1012,6 hPa 0,0 mm 0,0 km/h (0 Bft) W-NW 302 ° 0 min 0,000 mm 0,0 UV-I 0 W/m² 11,3 °C 13,4 °C 0,0 km/h (0 Bft)
16.07.2018 03:56 13,4 °C 87 % 1012,5 hPa 0,0 mm 0,0 km/h (0 Bft) W-NW 302 ° 0 min 0,000 mm 0,0 UV-I 0 W/m² 11,3 °C 13,4 °C 0,0 km/h (0 Bft)
16.07.2018 03:57 13,4 °C 87 % 1012,6 hPa 0,0 mm 0,8 km/h (0 Bft) W-NW 302 ° 0 min 0,000 mm 0,0 UV-I 0 W/m² 11,3 °C 13,4 °C 3,2 km/h (1 Bft)
16.07.2018 03:58 13,5 °C 87 % 1012,6 hPa 0,0 mm 0,2 km/h (0 Bft) W-NW 302 ° 0 min 0,000 mm 0,0 UV-I 0 W/m² 11,4 °C 13,5 °C 1,6 km/h (1 Bft)
16.07.2018 03:59 13,5 °C 87 % 1012,6 hPa 0,0 mm 0,0 km/h (0 Bft) W-NW 302 ° 0 min 0,000 mm 0,0 UV-I 0 W/m² 11,4 °C 13,5 °C 0,0 km/h (0 Bft)
16.07.2018 04:00 13,5 °C 87 % 1012,6 hPa 0,0 mm 0,0 km/h (0 Bft) W-NW 302 ° 0 min 0,000 mm 0,0 UV-I 0 W/m² 11,4 °C 13,5 °C 0,0 km/h (0 Bft)
16.07.2018 04:01 13,5 °C 87 % 1012,5 hPa 0,0 mm 0,0 km/h (0 Bft) W-NW 302 ° 0 min 0,000 mm 0,0 UV-I 0 W/m² 11,4 °C 13,5 °C 0,0 km/h (0 Bft)
16.07.2018 04:02 13,6 °C 87 % 1012,6 hPa 0,0 mm 0,3 km/h (0 Bft) W-NW 302 ° 0 min 0,000 mm 0,0 UV-I 0 W/m² 11,5 °C 13,6 °C 1,6 km/h (1 Bft)
16.07.2018 04:03 13,6 °C 86 % 1012,5 hPa 0,0 mm 0,6 km/h (0 Bft) W-NW 302 ° 0 min 0,000 mm 0,0 UV-I 0 W/m² 11,3 °C 13,6 °C 3,2 km/h (1 Bft)
16.07.2018 04:04 13,6 °C 86 % 1012,5 hPa 0,0 mm 0,2 km/h (0 Bft) W-NW 302 ° 0 min 0,000 mm 0,0 UV-I 0 W/m² 11,3 °C 13,6 °C 1,6 km/h (1 Bft)
16.07.2018 04:05 13,6 °C 86 % 1012,5 hPa 0,0 mm 0,7 km/h (0 Bft) W-NW 302 ° 0 min 0,000 mm 0,0 UV-I 0 W/m² 11,3 °C 13,6 °C 3,2 km/h (1 Bft)
16.07.2018 04:06 13,6 °C 87 % 1012,5 hPa 0,0 mm 0,2 km/h (0 Bft) W-NW 302 ° 0 min 0,000 mm 0,0 UV-I 0 W/m² 11,5 °C 13,6 °C 1,6 km/h (1 Bft)
16.07.2018 04:07 13,6 °C 87 % 1012,5 hPa 0,0 mm 0,0 km/h (0 Bft) W-NW 302 ° 0 min 0,000 mm 0,0 UV-I 0 W/m² 11,5 °C 13,6 °C 0,0 km/h (0 Bft)
16.07.2018 04:08 13,5 °C 87 % 1012,5 hPa 0,0 mm 0,0 km/h (0 Bft) W-NW 302 ° 0 min 0,000 mm 0,0 UV-I 0 W/m² 11,4 °C 13,5 °C 0,0 km/h (0 Bft)
16.07.2018 04:09 13,5 °C 87 % 1012,5 hPa 0,0 mm 0,0 km/h (0 Bft) W-NW 302 ° 0 min 0,000 mm 0,0 UV-I 0 W/m² 11,4 °C 13,5 °C 0,0 km/h (0 Bft)
16.07.2018 04:10 13,6 °C 87 % 1012,4 hPa 0,0 mm 0,0 km/h (0 Bft) W-NW 302 ° 0 min 0,000 mm 0,0 UV-I 0 W/m² 11,5 °C 13,6 °C 0,0 km/h (0 Bft)
16.07.2018 04:11 13,6 °C 87 % 1012,5 hPa 0,0 mm 0,0 km/h (0 Bft) W-NW 302 ° 0 min 0,000 mm 0,0 UV-I 0 W/m² 11,5 °C 13,6 °C 0,0 km/h (0 Bft)
16.07.2018 04:12 13,5 °C 87 % 1012,4 hPa 0,0 mm 0,0 km/h (0 Bft) W-NW 302 ° 0 min 0,000 mm 0,0 UV-I 0 W/m² 11,4 °C 13,5 °C 0,0 km/h (0 Bft)
16.07.2018 04:13 13,5 °C 87 % 1012,4 hPa 0,0 mm 0,0 km/h (0 Bft) W-NW 302 ° 0 min 0,000 mm 0,0 UV-I 0 W/m² 11,4 °C 13,5 °C 0,0 km/h (0 Bft)
16.07.2018 04:14 13,4 °C 87 % 1012,4 hPa 0,0 mm 0,0 km/h (0 Bft) W-NW 302 ° 0 min 0,000 mm 0,0 UV-I 0 W/m² 11,3 °C 13,4 °C 0,0 km/h (0 Bft)
16.07.2018 04:15 13,5 °C 87 % 1012,4 hPa 0,0 mm 0,5 km/h (0 Bft) W-NW 302 ° 0 min 0,000 mm 0,0 UV-I 0 W/m² 11,4 °C 13,5 °C 1,6 km/h (1 Bft)
16.07.2018 04:16 13,5 °C 87 % 1012,4 hPa 0,0 mm 0,0 km/h (0 Bft) W-NW 302 ° 0 min 0,000 mm 0,0 UV-I 0 W/m² 11,4 °C 13,5 °C 0,0 km/h (0 Bft)
16.07.2018 04:17 13,5 °C 87 % 1012,3 hPa 0,0 mm 0,1 km/h (0 Bft) W-NW 302 ° 0 min 0,000 mm 0,0 UV-I 0 W/m² 11,4 °C 13,5 °C 1,6 km/h (1 Bft)
16.07.2018 04:18 13,5 °C 87 % 1012,3 hPa 0,0 mm 0,0 km/h (0 Bft) W-NW 302 ° 0 min 0,000 mm 0,0 UV-I 0 W/m² 11,4 °C 13,5 °C 0,0 km/h (0 Bft)
16.07.2018 04:19 13,4 °C 87 % 1012,3 hPa 0,0 mm 0,0 km/h (0 Bft) W-NW 302 ° 0 min 0,000 mm 0,0 UV-I 0 W/m² 11,3 °C 13,4 °C 0,0 km/h (0 Bft)
16.07.2018 04:20 13,4 °C 87 % 1012,3 hPa 0,0 mm 0,0 km/h (0 Bft) W-NW 302 ° 0 min 0,000 mm 0,0 UV-I 0 W/m² 11,3 °C 13,4 °C 0,0 km/h (0 Bft)
16.07.2018 04:21 13,4 °C 87 % 1012,3 hPa 0,0 mm 0,0 km/h (0 Bft) W-NW 302 ° 0 min 0,000 mm 0,0 UV-I 0 W/m² 11,3 °C 13,4 °C 0,0 km/h (0 Bft)
16.07.2018 04:22 13,5 °C 87 % 1012,4 hPa 0,0 mm 0,0 km/h (0 Bft) W-NW 302 ° 0 min 0,000 mm 0,0 UV-I 0 W/m² 11,4 °C 13,5 °C 0,0 km/h (0 Bft)
16.07.2018 04:23 13,4 °C 87 % 1012,3 hPa 0,0 mm 0,0 km/h (0 Bft) W-NW 302 ° 0 min 0,000 mm 0,0 UV-I 0 W/m² 11,3 °C 13,4 °C 0,0 km/h (0 Bft)
16.07.2018 04:24 13,4 °C 87 % 1012,3 hPa 0,0 mm 0,0 km/h (0 Bft) W-NW 302 ° 0 min 0,000 mm 0,0 UV-I 0 W/m² 11,3 °C 13,4 °C 0,0 km/h (0 Bft)
16.07.2018 04:25 13,4 °C 87 % 1012,3 hPa 0,0 mm 0,0 km/h (0 Bft) W-NW 302 ° 0 min 0,000 mm 0,0 UV-I 0 W/m² 11,3 °C 13,4 °C 0,0 km/h (0 Bft)
16.07.2018 04:26 13,4 °C 87 % 1012,3 hPa 0,0 mm 0,0 km/h (0 Bft) W-NW 302 ° 0 min 0,000 mm 0,0 UV-I 0 W/m² 11,3 °C 13,4 °C 0,0 km/h (0 Bft)
16.07.2018 04:27 13,4 °C 87 % 1012,2 hPa 0,0 mm 0,0 km/h (0 Bft) W-NW 302 ° 0 min 0,000 mm 0,0 UV-I 0 W/m² 11,3 °C 13,4 °C 0,0 km/h (0 Bft)
16.07.2018 04:28 13,4 °C 88 % 1012,2 hPa 0,0 mm 0,0 km/h (0 Bft) W-NW 302 ° 0 min 0,000 mm 0,0 UV-I 0 W/m² 11,5 °C 13,4 °C 0,0 km/h (0 Bft)
16.07.2018 04:29 13,4 °C 88 % 1012,2 hPa 0,0 mm 0,0 km/h (0 Bft) W-NW 302 ° 0 min 0,000 mm 0,0 UV-I 0 W/m² 11,5 °C 13,4 °C 0,0 km/h (0 Bft)
16.07.2018 04:30 13,4 °C 88 % 1012,2 hPa 0,0 mm 0,0 km/h (0 Bft) W-NW 302 ° 0 min 0,000 mm 0,0 UV-I 0 W/m² 11,5 °C 13,4 °C 0,0 km/h (0 Bft)
16.07.2018 04:31 13,4 °C 88 % 1012,3 hPa 0,0 mm 0,0 km/h (0 Bft) W-NW 302 ° 0 min 0,000 mm 0,0 UV-I 0 W/m² 11,5 °C 13,4 °C 0,0 km/h (0 Bft)
16.07.2018 04:32 13,4 °C 88 % 1012,3 hPa 0,0 mm 0,0 km/h (0 Bft) W-NW 302 ° 0 min 0,000 mm 0,0 UV-I 0 W/m² 11,5 °C 13,4 °C 0,0 km/h (0 Bft)
16.07.2018 04:33 13,4 °C 88 % 1012,2 hPa 0,0 mm 0,0 km/h (0 Bft) W-NW 302 ° 0 min 0,000 mm 0,0 UV-I 0 W/m² 11,5 °C 13,4 °C 0,0 km/h (0 Bft)
16.07.2018 04:34 13,4 °C 88 % 1012,2 hPa 0,0 mm 0,0 km/h (0 Bft) W-NW 302 ° 0 min 0,000 mm 0,0 UV-I 0 W/m² 11,5 °C 13,4 °C 0,0 km/h (0 Bft)
16.07.2018 04:35 13,4 °C 88 % 1012,2 hPa 0,0 mm 0,0 km/h (0 Bft) W-NW 302 ° 0 min 0,000 mm 0,0 UV-I 0 W/m² 11,5 °C 13,4 °C 0,0 km/h (0 Bft)
16.07.2018 04:36 13,4 °C 88 % 1012,2 hPa 0,0 mm 0,0 km/h (0 Bft) W-NW 302 ° 0 min 0,000 mm 0,0 UV-I 0 W/m² 11,5 °C 13,4 °C 0,0 km/h (0 Bft)
16.07.2018 04:37 13,4 °C 88 % 1012,2 hPa 0,0 mm 0,0 km/h (0 Bft) W-NW 302 ° 0 min 0,000 mm 0,0 UV-I 0 W/m² 11,5 °C 13,4 °C 0,0 km/h (0 Bft)
16.07.2018 04:38 13,4 °C 88 % 1012,2 hPa 0,0 mm 0,0 km/h (0 Bft) W-NW 302 ° 0 min 0,000 mm 0,0 UV-I 0 W/m² 11,5 °C 13,4 °C 0,0 km/h (0 Bft)
16.07.2018 04:39 13,4 °C 88 % 1012,2 hPa 0,0 mm 0,0 km/h (0 Bft) W-NW 302 ° 0 min 0,000 mm 0,0 UV-I 0 W/m² 11,5 °C 13,4 °C 0,0 km/h (0 Bft)
16.07.2018 04:40 13,4 °C 88 % 1012,2 hPa 0,0 mm 0,0 km/h (0 Bft) W-NW 302 ° 0 min 0,000 mm 0,0 UV-I 0 W/m² 11,5 °C 13,4 °C 0,0 km/h (0 Bft)
16.07.2018 04:41 13,4 °C 88 % 1012,3 hPa 0,0 mm 0,0 km/h (0 Bft) W-NW 302 ° 0 min 0,000 mm 0,0 UV-I 0 W/m² 11,5 °C 13,4 °C 0,0 km/h (0 Bft)
16.07.2018 04:42 13,3 °C 88 % 1012,3 hPa 0,0 mm 0,0 km/h (0 Bft) W-NW 302 ° 0 min 0,000 mm 0,0 UV-I 0 W/m² 11,4 °C 13,3 °C 0,0 km/h (0 Bft)
16.07.2018 04:43 13,3 °C 88 % 1012,2 hPa 0,0 mm 0,0 km/h (0 Bft) W-NW 302 ° 0 min 0,000 mm 0,0 UV-I 0 W/m² 11,4 °C 13,3 °C 0,0 km/h (0 Bft)
16.07.2018 04:44 13,3 °C 88 % 1012,3 hPa 0,0 mm 0,0 km/h (0 Bft) W-NW 302 ° 0 min 0,000 mm 0,0 UV-I 0 W/m² 11,4 °C 13,3 °C 0,0 km/h (0 Bft)
16.07.2018 04:45 13,3 °C 88 % 1012,3 hPa 0,0 mm 0,0 km/h (0 Bft) W-NW 302 ° 0 min 0,000 mm 0,0 UV-I 0 W/m² 11,4 °C 13,3 °C 0,0 km/h (0 Bft)
16.07.2018 04:46 13,3 °C 88 % 1012,2 hPa 0,0 mm 0,0 km/h (0 Bft) W-NW 302 ° 0 min 0,000 mm 0,0 UV-I 0 W/m² 11,4 °C 13,3 °C 0,0 km/h (0 Bft)
16.07.2018 04:47 13,3 °C 88 % 1012,3 hPa 0,0 mm 0,0 km/h (0 Bft) W-NW 302 ° 0 min 0,000 mm 0,0 UV-I 0 W/m² 11,4 °C 13,3 °C 0,0 km/h (0 Bft)
16.07.2018 04:48 13,3 °C 88 % 1012,3 hPa 0,0 mm 0,0 km/h (0 Bft) W-NW 302 ° 0 min 0,000 mm 0,0 UV-I 0 W/m² 11,4 °C 13,3 °C 0,0 km/h (0 Bft)
16.07.2018 04:49 13,3 °C 88 % 1012,3 hPa 0,0 mm 0,0 km/h (0 Bft) W-NW 302 ° 0 min 0,000 mm 0,0 UV-I 0 W/m² 11,4 °C 13,3 °C 0,0 km/h (0 Bft)
16.07.2018 04:50 13,3 °C 88 % 1012,3 hPa 0,0 mm 0,0 km/h (0 Bft) W-NW 302 ° 0 min 0,000 mm 0,0 UV-I 0 W/m² 11,4 °C 13,3 °C 0,0 km/h (0 Bft)
16.07.2018 04:51 13,3 °C 88 % 1012,3 hPa 0,0 mm 0,0 km/h (0 Bft) W-NW 302 ° 0 min 0,000 mm 0,0 UV-I 0 W/m² 11,4 °C 13,3 °C 0,0 km/h (0 Bft)
16.07.2018 04:52 13,3 °C 88 % 1012,3 hPa 0,0 mm 0,0 km/h (0 Bft) W-NW 302 ° 0 min 0,000 mm 0,0 UV-I 0 W/m² 11,4 °C 13,3 °C 0,0 km/h (0 Bft)
16.07.2018 04:53 13,3 °C 88 % 1012,3 hPa 0,0 mm 0,0 km/h (0 Bft) W-NW 302 ° 0 min 0,000 mm 0,0 UV-I 0 W/m² 11,4 °C 13,3 °C 0,0 km/h (0 Bft)
16.07.2018 04:54 13,3 °C 88 % 1012,3 hPa 0,0 mm 0,0 km/h (0 Bft) W-NW 302 ° 0 min 0,000 mm 0,0 UV-I 0 W/m² 11,4 °C 13,3 °C 0,0 km/h (0 Bft)
16.07.2018 04:55 13,3 °C 88 % 1012,2 hPa 0,0 mm 0,0 km/h (0 Bft) W-NW 302 ° 0 min 0,000 mm 0,0 UV-I 0 W/m² 11,4 °C 13,3 °C 0,0 km/h (0 Bft)
16.07.2018 04:56 13,3 °C 89 % 1012,2 hPa 0,0 mm 0,0 km/h (0 Bft) W-NW 302 ° 0 min 0,000 mm 0,0 UV-I 0 W/m² 11,5 °C 13,3 °C 0,0 km/h (0 Bft)
16.07.2018 04:57 13,3 °C 89 % 1012,2 hPa 0,0 mm 0,0 km/h (0 Bft) W-NW 302 ° 0 min 0,000 mm 0,0 UV-I 0 W/m² 11,5 °C 13,3 °C 0,0 km/h (0 Bft)
16.07.2018 04:58 13,3 °C 88 % 1012,2 hPa 0,0 mm 0,0 km/h (0 Bft) W-NW 302 ° 0 min 0,000 mm 0,0 UV-I 0 W/m² 11,4 °C 13,3 °C 0,0 km/h (0 Bft)
16.07.2018 04:59 13,3 °C 88 % 1012,2 hPa 0,0 mm 0,0 km/h (0 Bft) W-NW 302 ° 0 min 0,000 mm 0,0 UV-I 0 W/m² 11,4 °C 13,3 °C 0,0 km/h (0 Bft)
16.07.2018 05:00 13,3 °C 88 % 1012,2 hPa 0,0 mm 0,0 km/h (0 Bft) W-NW 302 ° 0 min 0,000 mm 0,0 UV-I 0 W/m² 11,4 °C 13,3 °C 0,0 km/h (0 Bft)
16.07.2018 05:01 13,3 °C 88 % 1012,3 hPa 0,0 mm 0,0 km/h (0 Bft) W-NW 302 ° 0 min 0,000 mm 0,0 UV-I 0 W/m² 11,4 °C 13,3 °C 0,0 km/h (0 Bft)
16.07.2018 05:02 13,2 °C 88 % 1012,3 hPa 0,0 mm 0,0 km/h (0 Bft) W-NW 302 ° 0 min 0,000 mm 0,0 UV-I 0 W/m² 11,3 °C 13,2 °C 0,0 km/h (0 Bft)
16.07.2018 05:03 13,3 °C 89 % 1012,3 hPa 0,0 mm 0,0 km/h (0 Bft) W-NW 302 ° 0 min 0,000 mm 0,0 UV-I 0 W/m² 11,5 °C 13,3 °C 0,0 km/h (0 Bft)
16.07.2018 05:04 13,2 °C 89 % 1012,4 hPa 0,0 mm 0,3 km/h (0 Bft) W-NW 302 ° 0 min 0,000 mm 0,0 UV-I 0 W/m² 11,4 °C 13,2 °C 1,6 km/h (1 Bft)
16.07.2018 05:05 13,2 °C 89 % 1012,4 hPa 0,0 mm 0,8 km/h (0 Bft) W-NW 302 ° 0 min 0,000 mm 0,0 UV-I 0 W/m² 11,4 °C 13,2 °C 1,6 km/h (1 Bft)
16.07.2018 05:06 13,3 °C 89 % 1012,4 hPa 0,0 mm 1,4 km/h (1 Bft) W-NW 302 ° 0 min 0,000 mm 0,0 UV-I 0 W/m² 11,5 °C 13,3 °C 3,2 km/h (1 Bft)
16.07.2018 05:07 13,3 °C 89 % 1012,4 hPa 0,0 mm 0,1 km/h (0 Bft) W-NW 302 ° 0 min 0,000 mm 0,0 UV-I 0 W/m² 11,5 °C 13,3 °C 1,6 km/h (1 Bft)
16.07.2018 05:08 13,2 °C 89 % 1012,4 hPa 0,0 mm 0,6 km/h (0 Bft) W-NW 302 ° 0 min 0,000 mm 0,0 UV-I 0 W/m² 11,4 °C 13,2 °C 1,6 km/h (1 Bft)
16.07.2018 05:09 13,3 °C 89 % 1012,4 hPa 0,0 mm 0,5 km/h (0 Bft) W-NW 302 ° 0 min 0,000 mm 0,0 UV-I 0 W/m² 11,5 °C 13,3 °C 3,2 km/h (1 Bft)
16.07.2018 05:10 13,3 °C 89 % 1012,5 hPa 0,0 mm 4,0 km/h (1 Bft) W 271 ° 0 min 0,000 mm 0,0 UV-I 0 W/m² 11,5 °C 13,3 °C 6,4 km/h (2 Bft)
16.07.2018 05:11 13,3 °C 89 % 1012,6 hPa 0,0 mm 2,7 km/h (1 Bft) W 272 ° 0 min 0,000 mm 0,0 UV-I 0 W/m² 11,5 °C 13,3 °C 6,4 km/h (2 Bft)
16.07.2018 05:12 13,3 °C 89 % 1012,5 hPa 0,0 mm 2,5 km/h (1 Bft) W 272 ° 0 min 0,000 mm 0,0 UV-I 0 W/m² 11,5 °C 13,3 °C 4,8 km/h (1 Bft)
16.07.2018 05:13 13,3 °C 89 % 1012,5 hPa 0,0 mm 1,2 km/h (1 Bft) W 271 ° 0 min 0,000 mm 0,0 UV-I 0 W/m² 11,5 °C 13,3 °C 3,2 km/h (1 Bft)
16.07.2018 05:14 13,3 °C 88 % 1012,5 hPa 0,0 mm 0,7 km/h (0 Bft) W 271 ° 0 min 0,000 mm 0,0 UV-I 0 W/m² 11,4 °C 13,3 °C 3,2 km/h (1 Bft)
16.07.2018 05:15 13,4 °C 88 % 1012,5 hPa 0,0 mm 1,2 km/h (1 Bft) W 271 ° 0 min 0,000 mm 0,0 UV-I 0 W/m² 11,5 °C 13,4 °C 1,6 km/h (1 Bft)
16.07.2018 05:16 13,4 °C 88 % 1012,5 hPa 0,0 mm 1,0 km/h (0 Bft) W 271 ° 0 min 0,000 mm 0,0 UV-I 0 W/m² 11,5 °C 13,4 °C 3,2 km/h (1 Bft)
16.07.2018 05:17 13,4 °C 88 % 1012,4 hPa 0,0 mm 2,7 km/h (1 Bft) W 271 ° 0 min 0,000 mm 0,0 UV-I 0 W/m² 11,5 °C 13,4 °C 3,2 km/h (1 Bft)
16.07.2018 05:18 13,4 °C 88 % 1012,4 hPa 0,0 mm 0,1 km/h (0 Bft) W 271 ° 0 min 0,000 mm 0,0 UV-I 0 W/m² 11,5 °C 13,4 °C 1,6 km/h (1 Bft)
16.07.2018 05:19 13,4 °C 88 % 1012,4 hPa 0,0 mm 0,0 km/h (0 Bft) W 271 ° 0 min 0,000 mm 0,0 UV-I 0 W/m² 11,5 °C 13,4 °C 0,0 km/h (0 Bft)
16.07.2018 05:20 13,4 °C 88 % 1012,5 hPa 0,0 mm 0,0 km/h (0 Bft) W 271 ° 0 min 0,000 mm 0,0 UV-I 0 W/m² 11,5 °C 13,4 °C 0,0 km/h (0 Bft)
16.07.2018 05:21 13,4 °C 88 % 1012,5 hPa 0,0 mm 0,5 km/h (0 Bft) W 271 ° 0 min 0,000 mm 0,0 UV-I 0 W/m² 11,5 °C 13,4 °C 1,6 km/h (1 Bft)
16.07.2018 05:22 13,4 °C 88 % 1012,5 hPa 0,0 mm 0,1 km/h (0 Bft) W 271 ° 0 min 0,000 mm 0,0 UV-I 0 W/m² 11,5 °C 13,4 °C 1,6 km/h (1 Bft)
16.07.2018 05:23 13,4 °C 88 % 1012,5 hPa 0,0 mm 0,0 km/h (0 Bft) W 271 ° 0 min 0,000 mm 0,0 UV-I 0 W/m² 11,5 °C 13,4 °C 0,0 km/h (0 Bft)
16.07.2018 05:24 13,4 °C 88 % 1012,5 hPa 0,0 mm 0,0 km/h (0 Bft) W 271 ° 0 min 0,000 mm 0,0 UV-I 0 W/m² 11,5 °C 13,4 °C 0,0 km/h (0 Bft)
16.07.2018 05:25 13,4 °C 88 % 1012,5 hPa 0,0 mm 0,1 km/h (0 Bft) W 271 ° 0 min 0,000 mm 0,0 UV-I 0 W/m² 11,5 °C 13,4 °C 1,6 km/h (1 Bft)
16.07.2018 05:26 13,4 °C 88 % 1012,5 hPa 0,0 mm 0,0 km/h (0 Bft) W 271 ° 0 min 0,000 mm 0,0 UV-I 0 W/m² 11,5 °C 13,4 °C 0,0 km/h (0 Bft)
16.07.2018 05:27 13,4 °C 88 % 1012,5 hPa 0,0 mm 0,0 km/h (0 Bft) W 271 ° 0 min 0,000 mm 0,0 UV-I 0 W/m² 11,5 °C 13,4 °C 0,0 km/h (0 Bft)
16.07.2018 05:28 13,4 °C 88 % 1012,5 hPa 0,0 mm 0,0 km/h (0 Bft) W 271 ° 0 min 0,000 mm 0,0 UV-I 0 W/m² 11,5 °C 13,4 °C 0,0 km/h (0 Bft)
16.07.2018 05:29 13,4 °C 88 % 1012,6 hPa 0,0 mm 0,0 km/h (0 Bft) W 271 ° 0 min 0,000 mm 0,0 UV-I 0 W/m² 11,5 °C 13,4 °C 0,0 km/h (0 Bft)
16.07.2018 05:30 13,4 °C 88 % 1012,6 hPa 0,0 mm 0,0 km/h (0 Bft) W 271 ° 0 min 0,000 mm 0,0 UV-I 0 W/m² 11,5 °C 13,4 °C 0,0 km/h (0 Bft)
16.07.2018 05:31 13,4 °C 88 % 1012,6 hPa 0,0 mm 0,0 km/h (0 Bft) W 271 ° 0 min 0,000 mm 0,0 UV-I 0 W/m² 11,5 °C 13,4 °C 0,0 km/h (0 Bft)
16.07.2018 05:32 13,4 °C 88 % 1012,6 hPa 0,0 mm 0,0 km/h (0 Bft) W 271 ° 0 min 0,000 mm 0,0 UV-I 0 W/m² 11,5 °C 13,4 °C 0,0 km/h (0 Bft)
16.07.2018 05:33 13,5 °C 88 % 1012,6 hPa 0,0 mm 0,0 km/h (0 Bft) W 271 ° 0 min 0,000 mm 0,0 UV-I 0 W/m² 11,6 °C 13,5 °C 0,0 km/h (0 Bft)
16.07.2018 05:34 13,5 °C 88 % 1012,5 hPa 0,0 mm 0,3 km/h (0 Bft) W 271 ° 0 min 0,000 mm 0,0 UV-I 0 W/m² 11,6 °C 13,5 °C 1,6 km/h (1 Bft)
16.07.2018 05:35 13,4 °C 88 % 1012,6 hPa 0,0 mm 0,0 km/h (0 Bft) W 271 ° 0 min 0,000 mm 0,0 UV-I 0 W/m² 11,5 °C 13,4 °C 0,0 km/h (0 Bft)
16.07.2018 05:36 13,4 °C 88 % 1012,6 hPa 0,0 mm 0,0 km/h (0 Bft) W 271 ° 0 min 0,000 mm 0,0 UV-I 0 W/m² 11,5 °C 13,4 °C 0,0 km/h (0 Bft)
16.07.2018 05:37 13,4 °C 88 % 1012,6 hPa 0,0 mm 0,0 km/h (0 Bft) W 271 ° 0 min 0,000 mm 0,0 UV-I 0 W/m² 11,5 °C 13,4 °C 0,0 km/h (0 Bft)
16.07.2018 05:38 13,4 °C 89 % 1012,6 hPa 0,0 mm 0,0 km/h (0 Bft) W 271 ° 0 min 0,000 mm 0,0 UV-I 0 W/m² 11,6 °C 13,4 °C 0,0 km/h (0 Bft)
16.07.2018 05:39 13,3 °C 89 % 1012,6 hPa 0,0 mm 0,0 km/h (0 Bft) W 271 ° 0 min 0,000 mm 0,0 UV-I 0 W/m² 11,5 °C 13,3 °C 0,0 km/h (0 Bft)
16.07.2018 05:40 13,3 °C 89 % 1012,6 hPa 0,0 mm 0,0 km/h (0 Bft) W 271 ° 0 min 0,000 mm 0,0 UV-I 0 W/m² 11,5 °C 13,3 °C 0,0 km/h (0 Bft)
16.07.2018 05:41 13,3 °C 89 % 1012,6 hPa 0,0 mm 0,0 km/h (0 Bft) W 271 ° 0 min 0,000 mm 0,0 UV-I 0 W/m² 11,5 °C 13,3 °C 0,0 km/h (0 Bft)
16.07.2018 05:42 13,3 °C 89 % 1012,6 hPa 0,0 mm 0,0 km/h (0 Bft) W 271 ° 0 min 0,000 mm 0,0 UV-I 0 W/m² 11,5 °C 13,3 °C 0,0 km/h (0 Bft)
16.07.2018 05:43 13,3 °C 89 % 1012,6 hPa 0,0 mm 0,0 km/h (0 Bft) W 271 ° 0 min 0,000 mm 0,0 UV-I 0 W/m² 11,5 °C 13,3 °C 0,0 km/h (0 Bft)
16.07.2018 05:44 13,3 °C 89 % 1012,6 hPa 0,0 mm 0,0 km/h (0 Bft) W 271 ° 0 min 0,000 mm 0,0 UV-I 0 W/m² 11,5 °C 13,3 °C 0,0 km/h (0 Bft)
16.07.2018 05:45 13,3 °C 89 % 1012,6 hPa 0,0 mm 1,2 km/h (1 Bft) W 271 ° 0 min 0,000 mm 0,0 UV-I 0 W/m² 11,5 °C 13,3 °C 3,2 km/h (1 Bft)
16.07.2018 05:46 13,3 °C 89 % 1012,6 hPa 0,0 mm 0,5 km/h (0 Bft) W 271 ° 0 min 0,000 mm 0,0 UV-I 0 W/m² 11,5 °C 13,3 °C 4,8 km/h (1 Bft)
16.07.2018 05:47 13,4 °C 89 % 1012,6 hPa 0,0 mm 1,1 km/h (1 Bft) W 271 ° 0 min 0,000 mm 0,0 UV-I 0 W/m² 11,6 °C 13,4 °C 3,2 km/h (1 Bft)
16.07.2018 05:48 13,3 °C 89 % 1012,6 hPa 0,0 mm 0,9 km/h (0 Bft) W-SW 252 ° 0 min 0,000 mm 0,0 UV-I 0 W/m² 11,5 °C 13,3 °C 3,2 km/h (1 Bft)
16.07.2018 05:49 13,4 °C 89 % 1012,6 hPa 0,0 mm 0,0 km/h (0 Bft) W-SW 252 ° 0 min 0,000 mm 0,0 UV-I 0 W/m² 11,6 °C 13,4 °C 0,0 km/h (0 Bft)
16.07.2018 05:50 13,4 °C 89 % 1012,6 hPa 0,0 mm 0,0 km/h (0 Bft) W-SW 252 ° 0 min 0,000 mm 0,0 UV-I 0 W/m² 11,6 °C 13,4 °C 0,0 km/h (0 Bft)
16.07.2018 05:51 13,3 °C 90 % 1012,7 hPa 0,0 mm 0,0 km/h (0 Bft) W-SW 252 ° 0 min 0,000 mm 0,0 UV-I 0 W/m² 11,7 °C 13,3 °C 0,0 km/h (0 Bft)
16.07.2018 05:52 13,3 °C 90 % 1012,6 hPa 0,0 mm 1,2 km/h (1 Bft) W-SW 252 ° 0 min 0,000 mm 0,0 UV-I 0 W/m² 11,7 °C 13,3 °C 3,2 km/h (1 Bft)
16.07.2018 05:53 13,3 °C 90 % 1012,7 hPa 0,0 mm 1,4 km/h (1 Bft) W-SW 252 ° 0 min 0,000 mm 0,0 UV-I 0 W/m² 11,7 °C 13,3 °C 3,2 km/h (1 Bft)
16.07.2018 05:54 13,3 °C 90 % 1012,7 hPa 0,0 mm 1,8 km/h (1 Bft) W-SW 252 ° 0 min 0,000 mm 0,0 UV-I 0 W/m² 11,7 °C 13,3 °C 3,2 km/h (1 Bft)
16.07.2018 05:55 13,3 °C 90 % 1012,7 hPa 0,0 mm 0,9 km/h (0 Bft) W-SW 252 ° 0 min 0,000 mm 0,0 UV-I 0 W/m² 11,7 °C 13,3 °C 3,2 km/h (1 Bft)
16.07.2018 05:56 13,3 °C 90 % 1012,7 hPa 0,0 mm 0,0 km/h (0 Bft) W-SW 252 ° 0 min 0,000 mm 0,0 UV-I 0 W/m² 11,7 °C 13,3 °C 0,0 km/h (0 Bft)
16.07.2018 05:57 13,2 °C 90 % 1012,7 hPa 0,0 mm 1,6 km/h (1 Bft) W-SW 252 ° 0 min 0,000 mm 0,0 UV-I 0 W/m² 11,6 °C 13,2 °C 4,8 km/h (1 Bft)
16.07.2018 05:58 13,2 °C 90 % 1012,7 hPa 0,0 mm 2,3 km/h (1 Bft) W-SW 252 ° 0 min 0,000 mm 0,0 UV-I 5 W/m² 11,6 °C 13,2 °C 3,2 km/h (1 Bft)
16.07.2018 05:59 13,2 °C 90 % 1012,7 hPa 0,0 mm 2,3 km/h (1 Bft) W-SW 250 ° 0 min 0,000 mm 0,0 UV-I 5 W/m² 11,6 °C 13,2 °C 4,8 km/h (1 Bft)
16.07.2018 06:00 13,2 °C 90 % 1012,7 hPa 0,0 mm 3,6 km/h (1 Bft) S-SW 207 ° 0 min 0,000 mm 0,0 UV-I 5 W/m² 11,6 °C 13,2 °C 6,4 km/h (2 Bft)
16.07.2018 06:01 13,2 °C 90 % 1012,7 hPa 0,0 mm 3,3 km/h (1 Bft) S-SW 207 ° 0 min 0,000 mm 0,0 UV-I 7 W/m² 11,6 °C 13,2 °C 4,8 km/h (1 Bft)
16.07.2018 06:02 13,2 °C 90 % 1012,7 hPa 0,0 mm 3,4 km/h (1 Bft) S 188 ° 0 min 0,000 mm 0,0 UV-I 7 W/m² 11,6 °C 13,2 °C 4,8 km/h (1 Bft)
16.07.2018 06:03 13,2 °C 90 % 1012,7 hPa 0,0 mm 3,8 km/h (1 Bft) S 188 ° 0 min 0,000 mm 0,0 UV-I 7 W/m² 11,6 °C 13,2 °C 4,8 km/h (1 Bft)
16.07.2018 06:04 13,2 °C 90 % 1012,7 hPa 0,0 mm 4,5 km/h (1 Bft) S-SW 192 ° 0 min 0,000 mm 0,0 UV-I 7 W/m² 11,6 °C 13,2 °C 6,4 km/h (2 Bft)
16.07.2018 06:05 13,2 °C 90 % 1012,7 hPa 0,0 mm 5,1 km/h (1 Bft) S 185 ° 0 min 0,000 mm 0,0 UV-I 9 W/m² 11,6 °C 13,2 °C 6,4 km/h (2 Bft)
16.07.2018 06:06 13,2 °C 90 % 1012,7 hPa 0,0 mm 5,4 km/h (1 Bft) S 185 ° 0 min 0,000 mm 0,0 UV-I 9 W/m² 11,6 °C 13,2 °C 6,4 km/h (2 Bft)
16.07.2018 06:07 13,2 °C 90 % 1012,7 hPa 0,0 mm 5,1 km/h (1 Bft) S 190 ° 0 min 0,000 mm 0,0 UV-I 11 W/m² 11,6 °C 13,2 °C 9,7 km/h (2 Bft)
16.07.2018 06:08 13,2 °C 90 % 1012,7 hPa 0,0 mm 5,7 km/h (1 Bft) S 184 ° 0 min 0,000 mm 0,0 UV-I 11 W/m² 11,6 °C 13,2 °C 8,0 km/h (2 Bft)
16.07.2018 06:09 13,2 °C 90 % 1012,7 hPa 0,0 mm 6,3 km/h (2 Bft) S-SW 192 ° 0 min 0,000 mm 0,0 UV-I 11 W/m² 11,6 °C 13,2 °C 8,0 km/h (2 Bft)
16.07.2018 06:10 13,3 °C 90 % 1012,8 hPa 0,0 mm 5,0 km/h (1 Bft) S 184 ° 0 min 0,000 mm 0,0 UV-I 12 W/m² 11,7 °C 13,3 °C 6,4 km/h (2 Bft)
16.07.2018 06:11 13,3 °C 90 % 1012,8 hPa 0,0 mm 4,0 km/h (1 Bft) S-SW 195 ° 0 min 0,000 mm 0,0 UV-I 12 W/m² 11,7 °C 13,3 °C 6,4 km/h (2 Bft)
16.07.2018 06:12 13,3 °C 90 % 1012,8 hPa 0,0 mm 5,7 km/h (1 Bft) S-SW 203 ° 0 min 0,000 mm 0,0 UV-I 12 W/m² 11,7 °C 13,3 °C 8,0 km/h (2 Bft)
16.07.2018 06:13 13,4 °C 90 % 1012,8 hPa 0,0 mm 5,2 km/h (1 Bft) S 176 ° 0 min 0,000 mm 0,0 UV-I 12 W/m² 11,8 °C 13,4 °C 8,0 km/h (2 Bft)
16.07.2018 06:14 13,4 °C 90 % 1012,8 hPa 0,0 mm 3,8 km/h (1 Bft) S 176 ° 0 min 0,000 mm 0,0 UV-I 14 W/m² 11,8 °C 13,4 °C 6,4 km/h (2 Bft)
16.07.2018 06:15 13,4 °C 90 % 1012,8 hPa 0,0 mm 3,2 km/h (1 Bft) S 176 ° 0 min 0,000 mm 0,0 UV-I 14 W/m² 11,8 °C 13,4 °C 4,8 km/h (1 Bft)
16.07.2018 06:16 13,4 °C 90 % 1012,7 hPa 0,0 mm 4,1 km/h (1 Bft) S 180 ° 0 min 0,000 mm 0,0 UV-I 16 W/m² 11,8 °C 13,4 °C 6,4 km/h (2 Bft)
16.07.2018 06:17 13,4 °C 90 % 1012,7 hPa 0,0 mm 4,7 km/h (1 Bft) S 184 ° 0 min 0,000 mm 0,0 UV-I 16 W/m² 11,8 °C 13,4 °C 6,4 km/h (2 Bft)
16.07.2018 06:18 13,4 °C 90 % 1012,7 hPa 0,0 mm 6,4 km/h (2 Bft) S 190 ° 0 min 0,000 mm 0,0 UV-I 16 W/m² 11,8 °C 13,4 °C 8,0 km/h (2 Bft)
16.07.2018 06:19 13,5 °C 89 % 1012,7 hPa 0,0 mm 5,6 km/h (1 Bft) S-SW 196 ° 0 min 0,000 mm 0,0 UV-I 18 W/m² 11,7 °C 13,5 °C 8,0 km/h (2 Bft)
16.07.2018 06:20 13,5 °C 89 % 1012,7 hPa 0,0 mm 7,5 km/h (2 Bft) S 190 ° 0 min 0,000 mm 0,0 UV-I 18 W/m² 11,7 °C 13,5 °C 9,7 km/h (2 Bft)
16.07.2018 06:21 13,6 °C 89 % 1012,8 hPa 0,0 mm 6,7 km/h (2 Bft) S 186 ° 0 min 0,000 mm 0,0 UV-I 18 W/m² 11,8 °C 13,6 °C 8,0 km/h (2 Bft)
16.07.2018 06:22 13,6 °C 89 % 1012,8 hPa 0,0 mm 5,3 km/h (1 Bft) S 190 ° 0 min 0,000 mm 0,0 UV-I 18 W/m² 11,8 °C 13,6 °C 6,4 km/h (2 Bft)
16.07.2018 06:23 13,7 °C 89 % 1012,8 hPa 0,0 mm 4,0 km/h (1 Bft) S 188 ° 0 min 0,000 mm 0,0 UV-I 19 W/m² 11,9 °C 13,7 °C 8,0 km/h (2 Bft)
16.07.2018 06:24 13,6 °C 89 % 1012,8 hPa 0,0 mm 3,3 km/h (1 Bft) S 185 ° 0 min 0,000 mm 0,0 UV-I 19 W/m² 11,8 °C 13,6 °C 4,8 km/h (1 Bft)
16.07.2018 06:25 13,7 °C 89 % 1012,8 hPa 0,0 mm 3,3 km/h (1 Bft) S 184 ° 0 min 0,000 mm 0,0 UV-I 19 W/m² 11,9 °C 13,7 °C 4,8 km/h (1 Bft)
16.07.2018 06:26 13,7 °C 89 % 1012,7 hPa 0,0 mm 3,0 km/h (1 Bft) S 187 ° 0 min 0,000 mm 0,0 UV-I 19 W/m² 11,9 °C 13,7 °C 4,8 km/h (1 Bft)
16.07.2018 06:27 13,7 °C 89 % 1012,7 hPa 0,0 mm 3,0 km/h (1 Bft) S 187 ° 0 min 0,000 mm 0,0 UV-I 19 W/m² 11,9 °C 13,7 °C 4,8 km/h (1 Bft)
16.07.2018 06:28 13,7 °C 89 % 1012,8 hPa 0,0 mm 6,4 km/h (2 Bft) S-SW 198 ° 0 min 0,000 mm 0,0 UV-I 19 W/m² 11,9 °C 13,7 °C 9,7 km/h (2 Bft)
16.07.2018 06:29 13,7 °C 89 % 1012,7 hPa 0,0 mm 6,3 km/h (2 Bft) S-SW 193 ° 0 min 0,000 mm 0,0 UV-I 21 W/m² 11,9 °C 13,7 °C 8,0 km/h (2 Bft)
16.07.2018 06:30 13,7 °C 89 % 1012,7 hPa 0,0 mm 6,9 km/h (2 Bft) S 188 ° 0 min 0,000 mm 0,0 UV-I 23 W/m² 11,9 °C 13,7 °C 11,3 km/h (2 Bft)
16.07.2018 06:31 13,7 °C 88 % 1012,8 hPa 0,0 mm 8,5 km/h (2 Bft) S-SW 196 ° 0 min 0,000 mm 0,0 UV-I 23 W/m² 11,7 °C 13,7 °C 11,3 km/h (2 Bft)
16.07.2018 06:32 13,8 °C 88 % 1012,8 hPa 0,0 mm 8,9 km/h (2 Bft) S-SW 201 ° 0 min 0,000 mm 0,0 UV-I 23 W/m² 11,8 °C 13,8 °C 11,3 km/h (2 Bft)
16.07.2018 06:33 13,8 °C 88 % 1012,8 hPa 0,0 mm 8,4 km/h (2 Bft) S 186 ° 0 min 0,000 mm 0,0 UV-I 23 W/m² 11,8 °C 13,8 °C 11,3 km/h (2 Bft)
16.07.2018 06:34 13,8 °C 88 % 1012,8 hPa 0,0 mm 6,2 km/h (2 Bft) S-SW 193 ° 0 min 0,000 mm 0,0 UV-I 25 W/m² 11,8 °C 13,8 °C 11,3 km/h (2 Bft)
16.07.2018 06:35 13,8 °C 88 % 1012,9 hPa 0,0 mm 7,8 km/h (2 Bft) S 190 ° 0 min 0,000 mm 0,0 UV-I 26 W/m² 11,8 °C 13,8 °C 12,9 km/h (3 Bft)
16.07.2018 06:36 13,8 °C 88 % 1012,9 hPa 0,0 mm 6,7 km/h (2 Bft) S 186 ° 0 min 0,000 mm 0,0 UV-I 28 W/m² 11,8 °C 13,8 °C 9,7 km/h (2 Bft)
16.07.2018 06:37 13,8 °C 88 % 1012,9 hPa 0,0 mm 8,2 km/h (2 Bft) S-SW 192 ° 0 min 0,000 mm 0,0 UV-I 30 W/m² 11,8 °C 13,8 °C 11,3 km/h (2 Bft)
16.07.2018 06:38 13,8 °C 88 % 1012,9 hPa 0,0 mm 6,6 km/h (2 Bft) S 171 ° 0 min 0,000 mm 0,0 UV-I 32 W/m² 11,8 °C 13,8 °C 9,7 km/h (2 Bft)
16.07.2018 06:39 13,8 °C 88 % 1012,9 hPa 0,0 mm 6,1 km/h (2 Bft) S 191 ° 0 min 0,000 mm 0,0 UV-I 33 W/m² 11,8 °C 13,8 °C 9,7 km/h (2 Bft)
16.07.2018 06:40 13,8 °C 88 % 1012,9 hPa 0,0 mm 4,4 km/h (1 Bft) S-SW 192 ° 0 min 0,000 mm 0,0 UV-I 32 W/m² 11,8 °C 13,8 °C 8,0 km/h (2 Bft)
16.07.2018 06:41 13,9 °C 88 % 1012,9 hPa 0,0 mm 4,0 km/h (1 Bft) S 181 ° 0 min 0,000 mm 0,0 UV-I 28 W/m² 11,9 °C 13,9 °C 8,0 km/h (2 Bft)
16.07.2018 06:42 13,9 °C 88 % 1012,9 hPa 0,0 mm 4,7 km/h (1 Bft) SW 214 ° 0 min 0,000 mm 0,0 UV-I 25 W/m² 11,9 °C 13,9 °C 6,4 km/h (2 Bft)
16.07.2018 06:43 13,9 °C 88 % 1012,9 hPa 0,0 mm 5,0 km/h (1 Bft) W-SW 246 ° 0 min 0,000 mm 0,0 UV-I 21 W/m² 11,9 °C 13,9 °C 8,0 km/h (2 Bft)
16.07.2018 06:44 13,9 °C 87 % 1012,9 hPa 0,0 mm 5,2 km/h (1 Bft) S 180 ° 0 min 0,000 mm 0,0 UV-I 19 W/m² 11,8 °C 13,9 °C 9,7 km/h (2 Bft)
16.07.2018 06:45 13,9 °C 88 % 1012,9 hPa 0,0 mm 3,8 km/h (1 Bft) S-SW 194 ° 0 min 0,000 mm 0,0 UV-I 14 W/m² 11,9 °C 13,9 °C 6,4 km/h (2 Bft)
16.07.2018 06:46 13,9 °C 88 % 1013,0 hPa 0,0 mm 6,2 km/h (2 Bft) S-SW 194 ° 0 min 0,000 mm 0,0 UV-I 12 W/m² 11,9 °C 13,9 °C 9,7 km/h (2 Bft)
16.07.2018 06:47 13,9 °C 88 % 1013,0 hPa 0,0 mm 6,1 km/h (2 Bft) S-SW 195 ° 0 min 0,000 mm 0,0 UV-I 12 W/m² 11,9 °C 13,9 °C 9,7 km/h (2 Bft)
16.07.2018 06:48 13,9 °C 88 % 1013,0 hPa 0,0 mm 9,2 km/h (2 Bft) S-SW 196 ° 0 min 0,000 mm 0,0 UV-I 11 W/m² 11,9 °C 13,9 °C 12,9 km/h (3 Bft)
16.07.2018 06:49 13,9 °C 88 % 1013,0 hPa 0,0 mm 8,7 km/h (2 Bft) S 191 ° 0 min 0,000 mm 0,0 UV-I 11 W/m² 11,9 °C 13,9 °C 11,3 km/h (2 Bft)
16.07.2018 06:50 13,9 °C 88 % 1013,0 hPa 0,0 mm 6,9 km/h (2 Bft) S 184 ° 0 min 0,000 mm 0,0 UV-I 11 W/m² 11,9 °C 13,9 °C 9,7 km/h (2 Bft)
16.07.2018 06:51 13,9 °C 88 % 1013,0 hPa 0,0 mm 7,2 km/h (2 Bft) S 184 ° 0 min 0,000 mm 0,0 UV-I 11 W/m² 11,9 °C 13,9 °C 12,9 km/h (3 Bft)
16.07.2018 06:52 13,9 °C 88 % 1013,1 hPa 0,0 mm 7,4 km/h (2 Bft) S-SW 207 ° 0 min 0,000 mm 0,0 UV-I 9 W/m² 11,9 °C 13,9 °C 11,3 km/h (2 Bft)
16.07.2018 06:53 13,8 °C 88 % 1013,0 hPa 0,0 mm 5,4 km/h (1 Bft) S 188 ° 0 min 0,000 mm 0,0 UV-I 9 W/m² 11,8 °C 13,8 °C 8,0 km/h (2 Bft)
16.07.2018 06:54 13,8 °C 88 % 1013,0 hPa 0,0 mm 4,3 km/h (1 Bft) S 182 ° 0 min 0,000 mm 0,0 UV-I 9 W/m² 11,8 °C 13,8 °C 6,4 km/h (2 Bft)
16.07.2018 06:55 13,8 °C 89 % 1013,0 hPa 0,2 mm 0,9 km/h (0 Bft) SW 225 ° 0 min 0,000 mm 0,0 UV-I 9 W/m² 12,0 °C 13,8 °C 3,2 km/h (1 Bft)
16.07.2018 06:56 13,7 °C 89 % 1013,0 hPa 0,0 mm 1,4 km/h (1 Bft) SW 224 ° 0 min 0,000 mm 0,0 UV-I 9 W/m² 11,9 °C 13,7 °C 3,2 km/h (1 Bft)
16.07.2018 06:57 13,7 °C 89 % 1013,0 hPa 0,0 mm 2,2 km/h (1 Bft) SW 224 ° 0 min 0,000 mm 0,0 UV-I 11 W/m² 11,9 °C 13,7 °C 3,2 km/h (1 Bft)
16.07.2018 06:58 13,7 °C 89 % 1013,0 hPa 0,0 mm 2,9 km/h (1 Bft) S-SW 209 ° 0 min 0,000 mm 0,0 UV-I 11 W/m² 11,9 °C 13,7 °C 4,8 km/h (1 Bft)
16.07.2018 06:59 13,7 °C 89 % 1013,1 hPa 0,0 mm 2,1 km/h (1 Bft) S-SW 209 ° 0 min 0,000 mm 0,0 UV-I 12 W/m² 11,9 °C 13,7 °C 4,8 km/h (1 Bft)
16.07.2018 07:00 13,7 °C 89 % 1013,1 hPa 0,0 mm 2,1 km/h (1 Bft) S-SW 209 ° 0 min 0,000 mm 0,0 UV-I 14 W/m² 11,9 °C 13,7 °C 4,8 km/h (1 Bft)
16.07.2018 07:01 13,7 °C 89 % 1013,1 hPa 0,0 mm 4,8 km/h (1 Bft) S-SW 197 ° 0 min 0,026 mm 0,0 UV-I 14 W/m² 11,9 °C 13,7 °C 6,4 km/h (2 Bft)
16.07.2018 07:02 13,7 °C 89 % 1013,1 hPa 0,0 mm 5,7 km/h (1 Bft) S 184 ° 0 min 0,000 mm 0,0 UV-I 16 W/m² 11,9 °C 13,7 °C 9,7 km/h (2 Bft)
16.07.2018 07:03 13,7 °C 89 % 1013,0 hPa 0,0 mm 3,3 km/h (1 Bft) S 188 ° 0 min 0,000 mm 0,0 UV-I 21 W/m² 11,9 °C 13,7 °C 6,4 km/h (2 Bft)
16.07.2018 07:04 13,7 °C 89 % 1013,0 hPa 0,0 mm 2,7 km/h (1 Bft) S 188 ° 0 min 0,000 mm 0,0 UV-I 23 W/m² 11,9 °C 13,7 °C 3,2 km/h (1 Bft)
16.07.2018 07:05 13,7 °C 89 % 1013,1 hPa 0,0 mm 1,0 km/h (0 Bft) S 188 ° 0 min 0,000 mm 0,0 UV-I 25 W/m² 11,9 °C 13,7 °C 3,2 km/h (1 Bft)
16.07.2018 07:06 13,7 °C 89 % 1013,1 hPa 0,0 mm 0,0 km/h (0 Bft) S 181 ° 0 min 0,000 mm 0,0 UV-I 26 W/m² 11,9 °C 13,7 °C 0,0 km/h (0 Bft)
16.07.2018 07:07 13,7 °C 90 % 1013,0 hPa 0,0 mm 3,2 km/h (1 Bft) S-SW 193 ° 0 min 0,000 mm 0,0 UV-I 28 W/m² 12,1 °C 13,7 °C 8,0 km/h (2 Bft)
16.07.2018 07:08 13,6 °C 90 % 1013,1 hPa 0,0 mm 4,7 km/h (1 Bft) S-SW 192 ° 0 min 0,000 mm 0,0 UV-I 30 W/m² 12,0 °C 13,6 °C 6,4 km/h (2 Bft)
16.07.2018 07:09 13,6 °C 90 % 1013,0 hPa 0,0 mm 3,8 km/h (1 Bft) S-SW 195 ° 0 min 0,000 mm 0,0 UV-I 33 W/m² 12,0 °C 13,6 °C 6,4 km/h (2 Bft)
16.07.2018 07:10 13,6 °C 90 % 1013,1 hPa 0,0 mm 5,2 km/h (1 Bft) S-SW 199 ° 0 min 0,000 mm 0,0 UV-I 35 W/m² 12,0 °C 13,6 °C 8,0 km/h (2 Bft)
16.07.2018 07:11 13,6 °C 90 % 1013,1 hPa 0,0 mm 1,8 km/h (1 Bft) S-SW 199 ° 0 min 0,000 mm 0,0 UV-I 39 W/m² 12,0 °C 13,6 °C 4,8 km/h (1 Bft)
16.07.2018 07:12 13,6 °C 90 % 1013,0 hPa 0,0 mm 0,0 km/h (0 Bft) S-SW 199 ° 0 min 0,000 mm 0,0 UV-I 42 W/m² 12,0 °C 13,6 °C 0,0 km/h (0 Bft)
16.07.2018 07:13 13,6 °C 91 % 1013,0 hPa 0,0 mm 0,0 km/h (0 Bft) S-SW 199 ° 0 min 0,000 mm 0,0 UV-I 46 W/m² 12,2 °C 13,6 °C 0,0 km/h (0 Bft)
16.07.2018 07:14 13,6 °C 91 % 1013,0 hPa 0,0 mm 0,0 km/h (0 Bft) S-SW 199 ° 0 min 0,000 mm 0,0 UV-I 47 W/m² 12,2 °C 13,6 °C 0,0 km/h (0 Bft)
16.07.2018 07:15 13,6 °C 91 % 1013,0 hPa 0,0 mm 0,0 km/h (0 Bft) S-SW 199 ° 0 min 0,000 mm 0,0 UV-I 47 W/m² 12,2 °C 13,6 °C 0,0 km/h (0 Bft)
16.07.2018 07:16 13,6 °C 91 % 1013,0 hPa 0,0 mm 0,0 km/h (0 Bft) S-SW 199 ° 0 min 0,000 mm 0,0 UV-I 46 W/m² 12,2 °C 13,6 °C 0,0 km/h (0 Bft)
16.07.2018 07:17 13,5 °C 91 % 1013,0 hPa 0,0 mm 0,0 km/h (0 Bft) S-SW 199 ° 0 min 0,000 mm 0,0 UV-I 44 W/m² 12,1 °C 13,5 °C 0,0 km/h (0 Bft)
16.07.2018 07:18 13,5 °C 91 % 1013,0 hPa 0,0 mm 0,0 km/h (0 Bft) S-SW 199 ° 0 min 0,000 mm 0,0 UV-I 42 W/m² 12,1 °C 13,5 °C 0,0 km/h (0 Bft)
16.07.2018 07:19 13,5 °C 91 % 1013,0 hPa 0,0 mm 0,0 km/h (0 Bft) S-SW 199 ° 0 min 0,000 mm 0,0 UV-I 40 W/m² 12,1 °C 13,5 °C 0,0 km/h (0 Bft)
16.07.2018 07:20 13,5 °C 91 % 1013,0 hPa 0,0 mm 0,0 km/h (0 Bft) S-SW 199 ° 0 min 0,000 mm 0,0 UV-I 39 W/m² 12,1 °C 13,5 °C 0,0 km/h (0 Bft)
16.07.2018 07:21 13,4 °C 91 % 1013,1 hPa 0,0 mm 0,0 km/h (0 Bft) S-SW 199 ° 0 min 0,000 mm 0,0 UV-I 39 W/m² 12,0 °C 13,4 °C 0,0 km/h (0 Bft)
16.07.2018 07:22 13,5 °C 91 % 1013,1 hPa 0,0 mm 0,0 km/h (0 Bft) S-SW 199 ° 0 min 0,000 mm 0,0 UV-I 39 W/m² 12,1 °C 13,5 °C 0,0 km/h (0 Bft)
16.07.2018 07:23 13,4 °C 91 % 1013,1 hPa 0,0 mm 0,0 km/h (0 Bft) S-SW 199 ° 0 min 0,000 mm 0,0 UV-I 39 W/m² 12,0 °C 13,4 °C 0,0 km/h (0 Bft)
16.07.2018 07:24 13,5 °C 92 % 1013,1 hPa 0,0 mm 0,0 km/h (0 Bft) S-SW 199 ° 0 min 0,000 mm 0,0 UV-I 40 W/m² 12,2 °C 13,5 °C 0,0 km/h (0 Bft)
16.07.2018 07:25 13,5 °C 92 % 1013,1 hPa 0,0 mm 0,0 km/h (0 Bft) S-SW 199 ° 0 min 0,000 mm 0,0 UV-I 42 W/m² 12,2 °C 13,5 °C 0,0 km/h (0 Bft)
16.07.2018 07:26 13,5 °C 92 % 1013,2 hPa 0,0 mm 0,0 km/h (0 Bft) S-SW 199 ° 0 min 0,000 mm 0,0 UV-I 44 W/m² 12,2 °C 13,5 °C 0,0 km/h (0 Bft)
16.07.2018 07:27 13,6 °C 92 % 1013,1 hPa 0,0 mm 0,0 km/h (0 Bft) S-SW 199 ° 0 min 0,000 mm 0,0 UV-I 49 W/m² 12,3 °C 13,6 °C 0,0 km/h (0 Bft)
16.07.2018 07:28 13,6 °C 92 % 1013,1 hPa 0,0 mm 0,0 km/h (0 Bft) S-SW 199 ° 0 min 0,000 mm 0,0 UV-I 49 W/m² 12,3 °C 13,6 °C 0,0 km/h (0 Bft)
16.07.2018 07:29 13,6 °C 92 % 1013,1 hPa 0,0 mm 0,0 km/h (0 Bft) S-SW 199 ° 0 min 0,000 mm 0,0 UV-I 51 W/m² 12,3 °C 13,6 °C 0,0 km/h (0 Bft)
16.07.2018 07:30 13,6 °C 92 % 1013,1 hPa 0,0 mm 0,0 km/h (0 Bft) S-SW 199 ° 0 min 0,000 mm 0,0 UV-I 53 W/m² 12,3 °C 13,6 °C 0,0 km/h (0 Bft)
16.07.2018 07:31 13,6 °C 92 % 1013,2 hPa 0,0 mm 0,0 km/h (0 Bft) S-SW 199 ° 0 min 0,000 mm 0,0 UV-I 54 W/m² 12,3 °C 13,6 °C 0,0 km/h (0 Bft)
16.07.2018 07:32 13,7 °C 92 % 1013,2 hPa 0,0 mm 0,0 km/h (0 Bft) S-SW 199 ° 0 min 0,000 mm 0,0 UV-I 60 W/m² 12,4 °C 13,7 °C 0,0 km/h (0 Bft)
16.07.2018 07:33 13,7 °C 92 % 1013,2 hPa 0,0 mm 0,0 km/h (0 Bft) S-SW 199 ° 0 min 0,000 mm 0,0 UV-I 60 W/m² 12,4 °C 13,7 °C 0,0 km/h (0 Bft)
16.07.2018 07:34 13,7 °C 92 % 1013,2 hPa 0,0 mm 0,0 km/h (0 Bft) S-SW 199 ° 0 min 0,000 mm 0,0 UV-I 58 W/m² 12,4 °C 13,7 °C 0,0 km/h (0 Bft)
16.07.2018 07:35 13,8 °C 92 % 1013,2 hPa 0,0 mm 0,0 km/h (0 Bft) S-SW 199 ° 0 min 0,000 mm 0,0 UV-I 58 W/m² 12,5 °C 13,8 °C 0,0 km/h (0 Bft)
16.07.2018 07:36 13,8 °C 92 % 1013,2 hPa 0,0 mm 0,0 km/h (0 Bft) S-SW 199 ° 0 min 0,000 mm 0,0 UV-I 56 W/m² 12,5 °C 13,8 °C 0,0 km/h (0 Bft)
16.07.2018 07:37 13,8 °C 92 % 1013,2 hPa 0,0 mm 0,0 km/h (0 Bft) S-SW 199 ° 0 min 0,000 mm 0,0 UV-I 56 W/m² 12,5 °C 13,8 °C 0,0 km/h (0 Bft)
16.07.2018 07:38 13,9 °C 92 % 1013,2 hPa 0,0 mm 0,0 km/h (0 Bft) S-SW 199 ° 0 min 0,000 mm 0,0 UV-I 56 W/m² 12,6 °C 13,9 °C 0,0 km/h (0 Bft)
16.07.2018 07:39 13,9 °C 92 % 1013,2 hPa 0,0 mm 0,0 km/h (0 Bft) S-SW 199 ° 0 min 0,000 mm 0,0 UV-I 58 W/m² 12,6 °C 13,9 °C 0,0 km/h (0 Bft)
16.07.2018 07:40 13,9 °C 92 % 1013,3 hPa 0,0 mm 0,0 km/h (0 Bft) S-SW 199 ° 0 min 0,000 mm 0,0 UV-I 56 W/m² 12,6 °C 13,9 °C 0,0 km/h (0 Bft)
16.07.2018 07:41 13,9 °C 92 % 1013,2 hPa 0,0 mm 0,0 km/h (0 Bft) S-SW 199 ° 0 min 0,000 mm 0,0 UV-I 56 W/m² 12,6 °C 13,9 °C 0,0 km/h (0 Bft)
16.07.2018 07:42 13,9 °C 91 % 1013,2 hPa 0,0 mm 0,0 km/h (0 Bft) S-SW 199 ° 0 min 0,000 mm 0,0 UV-I 54 W/m² 12,5 °C 13,9 °C 0,0 km/h (0 Bft)
16.07.2018 07:43 13,9 °C 91 % 1013,2 hPa 0,0 mm 0,0 km/h (0 Bft) S-SW 199 ° 0 min 0,000 mm 0,0 UV-I 53 W/m² 12,5 °C 13,9 °C 0,0 km/h (0 Bft)
16.07.2018 07:44 14,0 °C 91 % 1013,3 hPa 0,0 mm 0,0 km/h (0 Bft) S-SW 199 ° 0 min 0,000 mm 0,0 UV-I 49 W/m² 12,6 °C 14,0 °C 0,0 km/h (0 Bft)
16.07.2018 07:45 14,1 °C 91 % 1013,2 hPa 0,0 mm 0,0 km/h (0 Bft) S-SW 199 ° 0 min 0,000 mm 0,0 UV-I 46 W/m² 12,7 °C 14,1 °C 0,0 km/h (0 Bft)
16.07.2018 07:46 14,1 °C 92 % 1013,2 hPa 0,0 mm 0,0 km/h (0 Bft) S-SW 199 ° 0 min 0,000 mm 0,0 UV-I 47 W/m² 12,8 °C 14,1 °C 0,0 km/h (0 Bft)
16.07.2018 07:47 14,2 °C 91 % 1013,3 hPa 0,0 mm 0,0 km/h (0 Bft) S-SW 199 ° 0 min 0,000 mm 0,0 UV-I 49 W/m² 12,8 °C 14,2 °C 0,0 km/h (0 Bft)
16.07.2018 07:48 14,2 °C 91 % 1013,3 hPa 0,0 mm 0,0 km/h (0 Bft) S-SW 199 ° 0 min 0,000 mm 0,0 UV-I 53 W/m² 12,8 °C 14,2 °C 0,0 km/h (0 Bft)
16.07.2018 07:49 14,2 °C 91 % 1013,3 hPa 0,0 mm 0,0 km/h (0 Bft) S-SW 199 ° 0 min 0,000 mm 0,0 UV-I 58 W/m² 12,8 °C 14,2 °C 0,0 km/h (0 Bft)
16.07.2018 07:50 14,2 °C 91 % 1013,3 hPa 0,0 mm 0,0 km/h (0 Bft) S-SW 199 ° 0 min 0,000 mm 0,0 UV-I 63 W/m² 12,8 °C 14,2 °C 0,0 km/h (0 Bft)
16.07.2018 07:51 14,2 °C 91 % 1013,3 hPa 0,0 mm 0,0 km/h (0 Bft) S-SW 199 ° 0 min 0,000 mm 0,0 UV-I 63 W/m² 12,8 °C 14,2 °C 0,0 km/h (0 Bft)
16.07.2018 07:52 14,2 °C 91 % 1013,3 hPa 0,0 mm 0,1 km/h (0 Bft) S-SW 199 ° 0 min 0,000 mm 0,0 UV-I 63 W/m² 12,8 °C 14,2 °C 1,6 km/h (1 Bft)
16.07.2018 07:53 14,3 °C 91 % 1013,3 hPa 0,0 mm 0,9 km/h (0 Bft) S-SW 199 ° 0 min 0,000 mm 0,0 UV-I 65 W/m² 12,8 °C 14,3 °C 1,6 km/h (1 Bft)
16.07.2018 07:54 14,3 °C 91 % 1013,4 hPa 0,0 mm 0,4 km/h (0 Bft) S-SW 199 ° 0 min 0,000 mm 0,0 UV-I 70 W/m² 12,8 °C 14,3 °C 1,6 km/h (1 Bft)
16.07.2018 07:55 14,3 °C 91 % 1013,3 hPa 0,0 mm 0,0 km/h (0 Bft) S-SW 199 ° 0 min 0,000 mm 0,0 UV-I 77 W/m² 12,8 °C 14,3 °C 0,0 km/h (0 Bft)
16.07.2018 07:56 14,3 °C 91 % 1013,4 hPa 0,0 mm 0,0 km/h (0 Bft) S-SW 199 ° 0 min 0,000 mm 0,5 UV-I 95 W/m² 12,8 °C 14,3 °C 0,0 km/h (0 Bft)
16.07.2018 07:57 14,3 °C 91 % 1013,3 hPa 0,0 mm 0,0 km/h (0 Bft) S-SW 199 ° 0 min 0,000 mm 0,5 UV-I 102 W/m² 12,8 °C 14,3 °C 0,0 km/h (0 Bft)
16.07.2018 07:58 14,3 °C 90 % 1013,4 hPa 0,0 mm 0,0 km/h (0 Bft) S-SW 199 ° 0 min 0,000 mm 0,6 UV-I 107 W/m² 12,7 °C 14,3 °C 0,0 km/h (0 Bft)
16.07.2018 07:59 14,3 °C 90 % 1013,3 hPa 0,0 mm 0,0 km/h (0 Bft) S-SW 199 ° 0 min 0,000 mm 0,6 UV-I 109 W/m² 12,7 °C 14,3 °C 0,0 km/h (0 Bft)
16.07.2018 08:00 14,4 °C 90 % 1013,3 hPa 0,0 mm 0,0 km/h (0 Bft) S-SW 199 ° 0 min 0,000 mm 0,6 UV-I 113 W/m² 12,8 °C 14,4 °C 0,0 km/h (0 Bft)
16.07.2018 08:01 14,4 °C 91 % 1013,3 hPa 0,0 mm 0,0 km/h (0 Bft) S-SW 199 ° 0 min 0,025 mm 0,7 UV-I 116 W/m² 12,9 °C 14,4 °C 0,0 km/h (0 Bft)
16.07.2018 08:02 14,4 °C 91 % 1013,3 hPa 0,0 mm 0,0 km/h (0 Bft) S-SW 199 ° 0 min 0,000 mm 0,7 UV-I 130 W/m² 12,9 °C 14,4 °C 0,0 km/h (0 Bft)
16.07.2018 08:03 14,5 °C 90 % 1013,2 hPa 0,0 mm 0,0 km/h (0 Bft) S-SW 199 ° 0 min 0,000 mm 0,8 UV-I 142 W/m² 12,9 °C 14,5 °C 0,0 km/h (0 Bft)
16.07.2018 08:04 14,7 °C 91 % 1013,3 hPa 0,0 mm 0,0 km/h (0 Bft) S-SW 199 ° 0 min 0,000 mm 0,8 UV-I 151 W/m² 13,2 °C 14,7 °C 0,0 km/h (0 Bft)
16.07.2018 08:05 14,7 °C 90 % 1013,3 hPa 0,0 mm 0,0 km/h (0 Bft) S-SW 199 ° 0 min 0,000 mm 0,8 UV-I 153 W/m² 13,1 °C 14,7 °C 0,0 km/h (0 Bft)
16.07.2018 08:06 14,7 °C 90 % 1013,3 hPa 0,0 mm 0,0 km/h (0 Bft) S-SW 199 ° 0 min 0,000 mm 0,8 UV-I 151 W/m² 13,1 °C 14,7 °C 0,0 km/h (0 Bft)
16.07.2018 08:07 14,7 °C 90 % 1013,3 hPa 0,0 mm 0,0 km/h (0 Bft) S-SW 199 ° 0 min 0,000 mm 0,8 UV-I 153 W/m² 13,1 °C 14,7 °C 0,0 km/h (0 Bft)
16.07.2018 08:08 14,8 °C 89 % 1013,3 hPa 0,0 mm 0,0 km/h (0 Bft) S-SW 199 ° 0 min 0,000 mm 0,8 UV-I 151 W/m² 13,0 °C 14,8 °C 0,0 km/h (0 Bft)
16.07.2018 08:09 14,8 °C 89 % 1013,3 hPa 0,0 mm 0,0 km/h (0 Bft) S-SW 199 ° 0 min 0,000 mm 0,9 UV-I 151 W/m² 13,0 °C 14,8 °C 0,0 km/h (0 Bft)
16.07.2018 08:10 14,8 °C 89 % 1013,3 hPa 0,0 mm 0,0 km/h (0 Bft) S-SW 199 ° 0 min 0,000 mm 0,9 UV-I 153 W/m² 13,0 °C 14,8 °C 0,0 km/h (0 Bft)
16.07.2018 08:11 14,8 °C 89 % 1013,3 hPa 0,0 mm 0,0 km/h (0 Bft) S-SW 199 ° 0 min 0,000 mm 0,9 UV-I 155 W/m² 13,0 °C 14,8 °C 0,0 km/h (0 Bft)
16.07.2018 08:12 14,8 °C 89 % 1013,2 hPa 0,0 mm 0,0 km/h (0 Bft) S-SW 199 ° 0 min 0,000 mm 1,0 UV-I 158 W/m² 13,0 °C 14,8 °C 0,0 km/h (0 Bft)
16.07.2018 08:13 14,9 °C 88 % 1013,3 hPa 0,0 mm 0,0 km/h (0 Bft) S-SW 199 ° 0 min 0,000 mm 1,0 UV-I 162 W/m² 12,9 °C 14,9 °C 0,0 km/h (0 Bft)
16.07.2018 08:14 14,9 °C 89 % 1013,2 hPa 0,0 mm 0,0 km/h (0 Bft) S-SW 199 ° 0 min 0,000 mm 1,0 UV-I 163 W/m² 13,1 °C 14,9 °C 0,0 km/h (0 Bft)
16.07.2018 08:15 15,0 °C 89 % 1013,2 hPa 0,0 mm 0,0 km/h (0 Bft) S-SW 199 ° 0 min 0,000 mm 1,0 UV-I 165 W/m² 13,2 °C 15,0 °C 0,0 km/h (0 Bft)
16.07.2018 08:16 15,1 °C 89 % 1013,2 hPa 0,0 mm 0,0 km/h (0 Bft) S-SW 199 ° 0 min 0,000 mm 1,1 UV-I 171 W/m² 13,3 °C 15,1 °C 0,0 km/h (0 Bft)
16.07.2018 08:17 15,1 °C 90 % 1013,2 hPa 0,0 mm 0,0 km/h (0 Bft) S-SW 199 ° 0 min 0,000 mm 1,1 UV-I 199 W/m² 13,5 °C 15,1 °C 0,0 km/h (0 Bft)
16.07.2018 08:18 15,1 °C 90 % 1013,2 hPa 0,0 mm 0,0 km/h (0 Bft) S-SW 199 ° 0 min 0,000 mm 1,0 UV-I 185 W/m² 13,5 °C 15,1 °C 0,0 km/h (0 Bft)
16.07.2018 08:19 15,1 °C 90 % 1013,2 hPa 0,0 mm 0,0 km/h (0 Bft) S-SW 199 ° 0 min 0,000 mm 1,0 UV-I 162 W/m² 13,5 °C 15,1 °C 0,0 km/h (0 Bft)
16.07.2018 08:20 15,1 °C 90 % 1013,2 hPa 0,0 mm 0,0 km/h (0 Bft) S-SW 199 ° 0 min 0,000 mm 1,1 UV-I 167 W/m² 13,5 °C 15,1 °C 0,0 km/h (0 Bft)
16.07.2018 08:21 15,1 °C 90 % 1013,2 hPa 0,0 mm 0,0 km/h (0 Bft) S-SW 199 ° 0 min 0,000 mm 1,1 UV-I 169 W/m² 13,5 °C 15,1 °C 0,0 km/h (0 Bft)
16.07.2018 08:22 15,1 °C 90 % 1013,2 hPa 0,0 mm 0,0 km/h (0 Bft) S-SW 199 ° 0 min 0,000 mm 1,1 UV-I 172 W/m² 13,5 °C 15,1 °C 0,0 km/h (0 Bft)
16.07.2018 08:23 15,1 °C 89 % 1013,3 hPa 0,0 mm 0,0 km/h (0 Bft) S-SW 199 ° 0 min 0,000 mm 1,1 UV-I 176 W/m² 13,3 °C 15,1 °C 0,0 km/h (0 Bft)
16.07.2018 08:24 15,2 °C 89 % 1013,2 hPa 0,0 mm 0,0 km/h (0 Bft) S-SW 199 ° 0 min 0,000 mm 1,1 UV-I 178 W/m² 13,4 °C 15,2 °C 0,0 km/h (0 Bft)
16.07.2018 08:25 15,2 °C 90 % 1013,2 hPa 0,0 mm 0,0 km/h (0 Bft) S-SW 199 ° 0 min 0,000 mm 1,1 UV-I 179 W/m² 13,6 °C 15,2 °C 0,0 km/h (0 Bft)
16.07.2018 08:26 15,2 °C 89 % 1013,2 hPa 0,0 mm 0,0 km/h (0 Bft) S-SW 199 ° 0 min 0,000 mm 1,1 UV-I 179 W/m² 13,4 °C 15,2 °C 0,0 km/h (0 Bft)
16.07.2018 08:27 15,3 °C 89 % 1013,2 hPa 0,0 mm 0,0 km/h (0 Bft) S-SW 199 ° 0 min 0,000 mm 1,1 UV-I 181 W/m² 13,5 °C 15,3 °C 0,0 km/h (0 Bft)
16.07.2018 08:28 15,4 °C 89 % 1013,2 hPa 0,0 mm 0,0 km/h (0 Bft) S-SW 199 ° 0 min 0,000 mm 1,2 UV-I 199 W/m² 13,6 °C 15,4 °C 0,0 km/h (0 Bft)
16.07.2018 08:29 15,4 °C 89 % 1013,3 hPa 0,0 mm 0,0 km/h (0 Bft) S-SW 199 ° 0 min 0,000 mm 1,3 UV-I 206 W/m² 13,6 °C 15,4 °C 0,0 km/h (0 Bft)
16.07.2018 08:30 15,5 °C 87 % 1013,2 hPa 0,0 mm 0,0 km/h (0 Bft) S-SW 199 ° 0 min 0,000 mm 1,2 UV-I 241 W/m² 13,3 °C 15,5 °C 0,0 km/h (0 Bft)
16.07.2018 08:31 15,6 °C 86 % 1013,2 hPa 0,0 mm 0,0 km/h (0 Bft) S-SW 199 ° 0 min 0,000 mm 1,2 UV-I 220 W/m² 13,3 °C 15,6 °C 0,0 km/h (0 Bft)
16.07.2018 08:32 15,7 °C 85 % 1013,2 hPa 0,0 mm 0,0 km/h (0 Bft) S-SW 199 ° 0 min 0,000 mm 1,2 UV-I 220 W/m² 13,2 °C 15,7 °C 0,0 km/h (0 Bft)
16.07.2018 08:33 15,7 °C 85 % 1013,2 hPa 0,0 mm 0,0 km/h (0 Bft) S-SW 199 ° 0 min 0,000 mm 1,2 UV-I 199 W/m² 13,2 °C 15,7 °C 0,0 km/h (0 Bft)
16.07.2018 08:34 15,8 °C 85 % 1013,1 hPa 0,0 mm 0,0 km/h (0 Bft) S-SW 199 ° 0 min 0,000 mm 1,2 UV-I 192 W/m² 13,3 °C 15,8 °C 0,0 km/h (0 Bft)
16.07.2018 08:35 15,9 °C 84 % 1013,2 hPa 0,0 mm 0,0 km/h (0 Bft) S-SW 199 ° 0 min 0,000 mm 1,2 UV-I 188 W/m² 13,2 °C 15,9 °C 0,0 km/h (0 Bft)
16.07.2018 08:36 15,9 °C 84 % 1013,2 hPa 0,0 mm 0,0 km/h (0 Bft) S-SW 199 ° 0 min 0,000 mm 1,2 UV-I 185 W/m² 13,2 °C 15,9 °C 0,0 km/h (0 Bft)
16.07.2018 08:37 16,0 °C 85 % 1013,2 hPa 0,0 mm 0,0 km/h (0 Bft) S-SW 199 ° 0 min 0,000 mm 1,2 UV-I 178 W/m² 13,5 °C 16,0 °C 0,0 km/h (0 Bft)
16.07.2018 08:38 16,0 °C 84 % 1013,2 hPa 0,0 mm 0,0 km/h (0 Bft) S-SW 199 ° 0 min 0,000 mm 1,2 UV-I 174 W/m² 13,3 °C 16,0 °C 0,0 km/h (0 Bft)
16.07.2018 08:39 16,0 °C 84 % 1013,2 hPa 0,0 mm 1,3 km/h (1 Bft) S-SW 199 ° 0 min 0,000 mm 1,2 UV-I 172 W/m² 13,3 °C 16,0 °C 3,2 km/h (1 Bft)
16.07.2018 08:40 16,0 °C 83 % 1013,2 hPa 0,0 mm 2,0 km/h (1 Bft) S-SW 199 ° 0 min 0,000 mm 1,2 UV-I 172 W/m² 13,1 °C 16,0 °C 3,2 km/h (1 Bft)
16.07.2018 08:41 16,0 °C 83 % 1013,2 hPa 0,0 mm 0,5 km/h (0 Bft) S-SW 199 ° 0 min 0,000 mm 1,1 UV-I 172 W/m² 13,1 °C 16,0 °C 3,2 km/h (1 Bft)
16.07.2018 08:42 16,0 °C 85 % 1013,3 hPa 0,0 mm 2,1 km/h (1 Bft) S-SW 199 ° 0 min 0,000 mm 1,1 UV-I 172 W/m² 13,5 °C 16,0 °C 3,2 km/h (1 Bft)
16.07.2018 08:43 16,1 °C 83 % 1013,3 hPa 0,0 mm 1,8 km/h (1 Bft) S-SW 199 ° 0 min 0,000 mm 1,1 UV-I 171 W/m² 13,2 °C 16,1 °C 3,2 km/h (1 Bft)
16.07.2018 08:44 16,0 °C 83 % 1013,3 hPa 0,0 mm 1,7 km/h (1 Bft) S-SW 199 ° 0 min 0,000 mm 1,1 UV-I 174 W/m² 13,1 °C 16,0 °C 3,2 km/h (1 Bft)
16.07.2018 08:45 16,0 °C 82 % 1013,2 hPa 0,0 mm 0,3 km/h (0 Bft) S-SW 199 ° 0 min 0,000 mm 1,1 UV-I 181 W/m² 12,9 °C 16,0 °C 1,6 km/h (1 Bft)
16.07.2018 08:46 15,9 °C 83 % 1013,2 hPa 0,0 mm 0,0 km/h (0 Bft) S-SW 199 ° 0 min 0,000 mm 1,2 UV-I 188 W/m² 13,0 °C 15,9 °C 0,0 km/h (0 Bft)
16.07.2018 08:47 16,0 °C 84 % 1013,1 hPa 0,0 mm 0,0 km/h (0 Bft) S-SW 199 ° 0 min 0,000 mm 1,2 UV-I 188 W/m² 13,3 °C 16,0 °C 0,0 km/h (0 Bft)
16.07.2018 08:48 16,0 °C 84 % 1013,1 hPa 0,0 mm 1,0 km/h (0 Bft) S-SW 199 ° 0 min 0,000 mm 1,2 UV-I 200 W/m² 13,3 °C 16,0 °C 1,6 km/h (1 Bft)
16.07.2018 08:49 16,1 °C 84 % 1013,1 hPa 0,0 mm 0,2 km/h (0 Bft) S-SW 199 ° 0 min 0,000 mm 1,2 UV-I 214 W/m² 13,4 °C 16,1 °C 1,6 km/h (1 Bft)
16.07.2018 08:50 16,1 °C 84 % 1013,1 hPa 0,0 mm 0,2 km/h (0 Bft) S-SW 199 ° 0 min 0,000 mm 1,6 UV-I 214 W/m² 13,4 °C 16,1 °C 1,6 km/h (1 Bft)
16.07.2018 08:51 16,2 °C 83 % 1013,1 hPa 0,0 mm 0,1 km/h (0 Bft) S-SW 199 ° 0 min 0,000 mm 1,8 UV-I 304 W/m² 13,3 °C 16,2 °C 1,6 km/h (1 Bft)
16.07.2018 08:52 16,2 °C 87 % 1013,1 hPa 0,0 mm 0,0 km/h (0 Bft) S-SW 199 ° 0 min 0,000 mm 1,5 UV-I 325 W/m² 14,0 °C 16,2 °C 0,0 km/h (0 Bft)
16.07.2018 08:53 16,3 °C 87 % 1013,1 hPa 0,0 mm 0,0 km/h (0 Bft) S-SW 199 ° 0 min 0,000 mm 1,4 UV-I 257 W/m² 14,1 °C 16,3 °C 0,0 km/h (0 Bft)
16.07.2018 08:54 16,3 °C 85 % 1013,0 hPa 0,0 mm 0,0 km/h (0 Bft) S-SW 199 ° 0 min 0,000 mm 1,4 UV-I 229 W/m² 13,8 °C 16,3 °C 0,0 km/h (0 Bft)
16.07.2018 08:55 16,3 °C 85 % 1013,0 hPa 0,0 mm 0,0 km/h (0 Bft) S-SW 199 ° 0 min 0,000 mm 1,4 UV-I 272 W/m² 13,8 °C 16,3 °C 0,0 km/h (0 Bft)
16.07.2018 08:56 16,3 °C 85 % 1013,0 hPa 0,0 mm 0,0 km/h (0 Bft) S-SW 199 ° 0 min 0,000 mm 1,5 UV-I 229 W/m² 13,8 °C 16,3 °C 0,0 km/h (0 Bft)
16.07.2018 08:57 16,3 °C 82 % 1013,0 hPa 0,0 mm 0,0 km/h (0 Bft) S-SW 199 ° 0 min 0,000 mm 1,5 UV-I 223 W/m² 13,2 °C 16,3 °C 0,0 km/h (0 Bft)
16.07.2018 08:58 16,3 °C 81 % 1013,0 hPa 0,0 mm 0,0 km/h (0 Bft) S-SW 199 ° 0 min 0,000 mm 1,5 UV-I 220 W/m² 13,0 °C 16,3 °C 0,0 km/h (0 Bft)
16.07.2018 08:59 16,2 °C 81 % 1013,0 hPa 0,0 mm 0,0 km/h (0 Bft) S-SW 199 ° 0 min 0,000 mm 1,5 UV-I 234 W/m² 12,9 °C 16,2 °C 0,0 km/h (0 Bft)
16.07.2018 09:00 16,2 °C 81 % 1013,0 hPa 0,0 mm 0,0 km/h (0 Bft) S-SW 199 ° 0 min 0,102 mm 1,6 UV-I 236 W/m² 12,9 °C 16,2 °C 0,0 km/h (0 Bft)
16.07.2018 09:01 16,2 °C 81 % 1013,0 hPa 0,0 mm 0,0 km/h (0 Bft) S-SW 199 ° 0 min 0,000 mm 2,0 UV-I 236 W/m² 12,9 °C 16,2 °C 0,0 km/h (0 Bft)
16.07.2018 09:02 16,3 °C 83 % 1013,0 hPa 0,0 mm 0,0 km/h (0 Bft) S-SW 199 ° 0 min 0,000 mm 1,6 UV-I 236 W/m² 13,4 °C 16,3 °C 0,0 km/h (0 Bft)
16.07.2018 09:03 16,3 °C 84 % 1013,0 hPa 0,0 mm 0,0 km/h (0 Bft) S-SW 199 ° 0 min 0,000 mm 1,7 UV-I 213 W/m² 13,6 °C 16,3 °C 0,0 km/h (0 Bft)
16.07.2018 09:04 16,3 °C 80 % 1013,0 hPa 0,0 mm 1,6 km/h (1 Bft) S-SW 199 ° 0 min 0,000 mm 1,8 UV-I 225 W/m² 12,8 °C 16,3 °C 3,2 km/h (1 Bft)
16.07.2018 09:05 16,3 °C 81 % 1013,0 hPa 0,0 mm 0,2 km/h (0 Bft) S-SW 199 ° 0 min 0,000 mm 1,8 UV-I 237 W/m² 13,0 °C 16,3 °C 1,6 km/h (1 Bft)
16.07.2018 09:06 16,3 °C 82 % 1013,0 hPa 0,0 mm 1,2 km/h (1 Bft) S-SW 200 ° 0 min 0,000 mm 1,9 UV-I 274 W/m² 13,2 °C 16,3 °C 3,2 km/h (1 Bft)
16.07.2018 09:07 16,3 °C 81 % 1013,0 hPa 0,0 mm 1,5 km/h (1 Bft) S-SW 200 ° 0 min 0,000 mm 2,9 UV-I 274 W/m² 13,0 °C 16,3 °C 3,2 km/h (1 Bft)
16.07.2018 09:08 16,5 °C 82 % 1012,9 hPa 0,0 mm 2,0 km/h (1 Bft) S-SW 200 ° 1 min 0,000 mm 3,0 UV-I 670 W/m² 13,4 °C 16,5 °C 3,2 km/h (1 Bft)
16.07.2018 09:09 16,7 °C 84 % 1012,9 hPa 0,0 mm 1,1 km/h (1 Bft) S-SW 200 ° 1 min 0,000 mm 2,6 UV-I 670 W/m² 14,0 °C 16,7 °C 1,6 km/h (1 Bft)
16.07.2018 09:10 16,7 °C 80 % 1012,9 hPa 0,0 mm 2,1 km/h (1 Bft) S-SW 200 ° 0 min 0,000 mm 2,1 UV-I 341 W/m² 13,2 °C 16,7 °C 3,2 km/h (1 Bft)
16.07.2018 09:11 16,7 °C 80 % 1012,9 hPa 0,0 mm 0,4 km/h (0 Bft) S-SW 200 ° 0 min 0,000 mm 2,3 UV-I 388 W/m² 13,2 °C 16,7 °C 1,6 km/h (1 Bft)
16.07.2018 09:12 16,8 °C 81 % 1012,9 hPa 0,0 mm 0,1 km/h (0 Bft) S-SW 200 ° 0 min 0,000 mm 2,9 UV-I 388 W/m² 13,5 °C 16,8 °C 1,6 km/h (1 Bft)
16.07.2018 09:13 16,9 °C 80 % 1012,8 hPa 0,0 mm 1,0 km/h (0 Bft) S-SW 200 ° 0 min 0,000 mm 3,0 UV-I 585 W/m² 13,4 °C 16,9 °C 3,2 km/h (1 Bft)
16.07.2018 09:14 17,1 °C 81 % 1012,9 hPa 0,0 mm 1,3 km/h (1 Bft) S-SW 200 ° 0 min 0,000 mm 3,0 UV-I 585 W/m² 13,8 °C 17,1 °C 3,2 km/h (1 Bft)
16.07.2018 09:15 17,2 °C 79 % 1012,9 hPa 0,0 mm 2,1 km/h (1 Bft) S-SW 200 ° 0 min 0,000 mm 3,0 UV-I 585 W/m² 13,5 °C 17,2 °C 3,2 km/h (1 Bft)
16.07.2018 09:16 17,2 °C 78 % 1012,9 hPa 0,0 mm 2,0 km/h (1 Bft) S-SW 200 ° 0 min 0,000 mm 2,3 UV-I 415 W/m² 13,3 °C 17,2 °C 3,2 km/h (1 Bft)
16.07.2018 09:17 17,2 °C 77 % 1012,8 hPa 0,0 mm 1,7 km/h (1 Bft) S-SW 200 ° 0 min 0,000 mm 2,2 UV-I 415 W/m² 13,1 °C 17,2 °C 3,2 km/h (1 Bft)
16.07.2018 09:18 17,1 °C 79 % 1012,9 hPa 0,0 mm 2,3 km/h (1 Bft) S-SW 200 ° 0 min 0,000 mm 2,3 UV-I 265 W/m² 13,4 °C 17,1 °C 3,2 km/h (1 Bft)
16.07.2018 09:19 17,2 °C 80 % 1012,8 hPa 0,0 mm 0,4 km/h (0 Bft) S-SW 200 ° 1 min 0,000 mm 3,4 UV-I 654 W/m² 13,7 °C 17,2 °C 1,6 km/h (1 Bft)
16.07.2018 09:20 17,3 °C 81 % 1012,8 hPa 0,0 mm 0,5 km/h (0 Bft) S-SW 200 ° 1 min 0,000 mm 3,1 UV-I 654 W/m² 14,0 °C 17,3 °C 1,6 km/h (1 Bft)
16.07.2018 09:21 17,4 °C 78 % 1012,8 hPa 0,0 mm 0,6 km/h (0 Bft) S-SW 200 ° 1 min 0,000 mm 3,5 UV-I 654 W/m² 13,5 °C 17,4 °C 1,6 km/h (1 Bft)
16.07.2018 09:22 17,4 °C 77 % 1012,7 hPa 0,0 mm 0,0 km/h (0 Bft) S-SW 200 ° 1 min 0,000 mm 3,5 UV-I 744 W/m² 13,3 °C 17,4 °C 0,0 km/h (0 Bft)
16.07.2018 09:23 17,4 °C 77 % 1012,7 hPa 0,0 mm 0,3 km/h (0 Bft) S-SW 200 ° 1 min 0,000 mm 2,4 UV-I 744 W/m² 13,3 °C 17,4 °C 1,6 km/h (1 Bft)
16.07.2018 09:24 17,6 °C 80 % 1012,7 hPa 0,0 mm 0,5 km/h (0 Bft) S 170 ° 0 min 0,000 mm 2,3 UV-I 290 W/m² 14,1 °C 17,6 °C 1,6 km/h (1 Bft)
16.07.2018 09:25 17,6 °C 79 % 1012,7 hPa 0,0 mm 1,0 km/h (0 Bft) S-SO 168 ° 0 min 0,000 mm 2,2 UV-I 288 W/m² 13,9 °C 17,6 °C 3,2 km/h (1 Bft)
16.07.2018 09:26 17,5 °C 77 % 1012,7 hPa 0,0 mm 0,8 km/h (0 Bft) O-SO 111 ° 0 min 0,000 mm 2,2 UV-I 279 W/m² 13,4 °C 17,5 °C 3,2 km/h (1 Bft)
16.07.2018 09:27 17,4 °C 78 % 1012,8 hPa 0,0 mm 0,4 km/h (0 Bft) O-SO 111 ° 0 min 0,000 mm 2,1 UV-I 264 W/m² 13,5 °C 17,4 °C 1,6 km/h (1 Bft)
16.07.2018 09:28 17,3 °C 79 % 1012,7 hPa 0,0 mm 1,8 km/h (1 Bft) O-SO 111 ° 0 min 0,000 mm 2,1 UV-I 248 W/m² 13,6 °C 17,3 °C 3,2 km/h (1 Bft)
16.07.2018 09:29 17,2 °C 78 % 1012,7 hPa 0,0 mm 0,5 km/h (0 Bft) O-SO 111 ° 0 min 0,000 mm 2,1 UV-I 232 W/m² 13,3 °C 17,2 °C 3,2 km/h (1 Bft)
16.07.2018 09:30 17,1 °C 79 % 1012,7 hPa 0,0 mm 2,1 km/h (1 Bft) N 5 ° 0 min 0,000 mm 2,1 UV-I 237 W/m² 13,4 °C 17,1 °C 3,2 km/h (1 Bft)
16.07.2018 09:31 17,1 °C 80 % 1012,6 hPa 0,0 mm 0,7 km/h (0 Bft) N-NO 13 ° 0 min 0,000 mm 2,2 UV-I 244 W/m² 13,6 °C 17,1 °C 1,6 km/h (1 Bft)
16.07.2018 09:32 17,0 °C 80 % 1012,7 hPa 0,0 mm 0,3 km/h (0 Bft) N-NO 13 ° 0 min 0,000 mm 2,1 UV-I 229 W/m² 13,5 °C 17,0 °C 3,2 km/h (1 Bft)
16.07.2018 09:33 16,9 °C 82 % 1012,7 hPa 0,0 mm 2,1 km/h (1 Bft) N-NO 13 ° 0 min 0,000 mm 2,1 UV-I 221 W/m² 13,8 °C 16,9 °C 3,2 km/h (1 Bft)
16.07.2018 09:34 16,9 °C 80 % 1012,7 hPa 0,0 mm 2,0 km/h (1 Bft) N-NO 13 ° 0 min 0,000 mm 2,2 UV-I 223 W/m² 13,4 °C 16,9 °C 4,8 km/h (1 Bft)
16.07.2018 09:35 16,9 °C 79 % 1012,6 hPa 0,0 mm 0,2 km/h (0 Bft) N-NO 13 ° 0 min 0,000 mm 2,2 UV-I 229 W/m² 13,2 °C 16,9 °C 1,6 km/h (1 Bft)
16.07.2018 09:36 16,8 °C 79 % 1012,6 hPa 0,0 mm 0,1 km/h (0 Bft) N-NO 13 ° 0 min 0,000 mm 2,2 UV-I 246 W/m² 13,1 °C 16,8 °C 1,6 km/h (1 Bft)
16.07.2018 09:37 16,9 °C 81 % 1012,6 hPa 0,0 mm 0,1 km/h (0 Bft) N-NO 13 ° 0 min 0,000 mm 2,2 UV-I 239 W/m² 13,6 °C 16,9 °C 1,6 km/h (1 Bft)
16.07.2018 09:38 16,9 °C 80 % 1012,5 hPa 0,0 mm 0,0 km/h (0 Bft) N-NO 13 ° 0 min 0,000 mm 2,2 UV-I 218 W/m² 13,4 °C 16,9 °C 0,0 km/h (0 Bft)
16.07.2018 09:39 16,9 °C 81 % 1012,6 hPa 0,0 mm 1,9 km/h (1 Bft) N-NO 13 ° 0 min 0,000 mm 2,1 UV-I 204 W/m² 13,6 °C 16,9 °C 3,2 km/h (1 Bft)
16.07.2018 09:40 17,1 °C 80 % 1012,5 hPa 0,0 mm 2,1 km/h (1 Bft) N-NO 13 ° 0 min 0,000 mm 2,1 UV-I 193 W/m² 13,6 °C 17,1 °C 3,2 km/h (1 Bft)
16.07.2018 09:41 17,1 °C 79 % 1012,6 hPa 0,0 mm 2,3 km/h (1 Bft) N-NO 13 ° 0 min 0,000 mm 2,2 UV-I 213 W/m² 13,4 °C 17,1 °C 3,2 km/h (1 Bft)
16.07.2018 09:42 17,1 °C 78 % 1012,5 hPa 0,0 mm 3,3 km/h (1 Bft) N-NO 13 ° 0 min 0,000 mm 2,3 UV-I 214 W/m² 13,2 °C 17,1 °C 4,8 km/h (1 Bft)
16.07.2018 09:43 17,2 °C 78 % 1012,5 hPa 0,0 mm 0,9 km/h (0 Bft) N-NO 13 ° 0 min 0,000 mm 2,3 UV-I 218 W/m² 13,3 °C 17,2 °C 3,2 km/h (1 Bft)
16.07.2018 09:44 17,1 °C 81 % 1012,5 hPa 0,0 mm 1,9 km/h (1 Bft) N-NO 13 ° 0 min 0,000 mm 2,3 UV-I 221 W/m² 13,8 °C 17,1 °C 3,2 km/h (1 Bft)
16.07.2018 09:45 17,0 °C 81 % 1012,5 hPa 0,0 mm 0,4 km/h (0 Bft) N-NO 13 ° 0 min 0,000 mm 2,4 UV-I 218 W/m² 13,7 °C 17,0 °C 1,6 km/h (1 Bft)
16.07.2018 09:46 17,0 °C 82 % 1012,5 hPa 0,0 mm 0,1 km/h (0 Bft) N-NO 13 ° 0 min 0,000 mm 2,9 UV-I 243 W/m² 13,9 °C 17,0 °C 1,6 km/h (1 Bft)
16.07.2018 09:47 17,1 °C 83 % 1012,5 hPa 0,0 mm 0,6 km/h (0 Bft) N-NO 13 ° 0 min 0,000 mm 4,0 UV-I 243 W/m² 14,2 °C 17,1 °C 1,6 km/h (1 Bft)
16.07.2018 09:48 17,2 °C 82 % 1012,5 hPa 0,0 mm 0,3 km/h (0 Bft) N-NO 13 ° 0 min 0,000 mm 4,4 UV-I 243 W/m² 14,1 °C 17,2 °C 1,6 km/h (1 Bft)
16.07.2018 09:49 17,3 °C 81 % 1012,4 hPa 0,0 mm 0,3 km/h (0 Bft) NO 44 ° 1 min 0,000 mm 4,5 UV-I 826 W/m² 14,0 °C 17,3 °C 3,2 km/h (1 Bft)
16.07.2018 09:50 17,4 °C 80 % 1012,5 hPa 0,0 mm 4,4 km/h (1 Bft) O-NO 68 ° 1 min 0,000 mm 4,6 UV-I 842 W/m² 13,9 °C 17,4 °C 6,4 km/h (2 Bft)
16.07.2018 09:51 17,6 °C 80 % 1012,4 hPa 0,0 mm 4,8 km/h (1 Bft) O-SO 108 ° 1 min 0,000 mm 4,3 UV-I 793 W/m² 14,1 °C 17,6 °C 9,7 km/h (2 Bft)
16.07.2018 09:52 17,7 °C 78 % 1012,4 hPa 0,0 mm 7,2 km/h (2 Bft) O-SO 116 ° 1 min 0,000 mm 4,0 UV-I 793 W/m² 13,8 °C 17,7 °C 11,3 km/h (2 Bft)
16.07.2018 09:53 17,7 °C 77 % 1012,4 hPa 0,0 mm 5,6 km/h (1 Bft) O-SO 112 ° 0 min 0,000 mm 3,6 UV-I 517 W/m² 13,6 °C 17,7 °C 8,0 km/h (2 Bft)
16.07.2018 09:54 17,8 °C 78 % 1012,4 hPa 0,0 mm 5,2 km/h (1 Bft) O-SO 122 ° 0 min 0,000 mm 3,5 UV-I 490 W/m² 13,9 °C 17,8 °C 8,0 km/h (2 Bft)
16.07.2018 09:55 17,8 °C 78 % 1012,4 hPa 0,0 mm 1,4 km/h (1 Bft) O-SO 121 ° 0 min 0,000 mm 3,1 UV-I 438 W/m² 13,9 °C 17,8 °C 4,8 km/h (1 Bft)
16.07.2018 09:56 17,7 °C 77 % 1012,4 hPa 0,0 mm 3,8 km/h (1 Bft) O-NO 67 ° 0 min 0,000 mm 2,9 UV-I 369 W/m² 13,6 °C 17,7 °C 6,4 km/h (2 Bft)
16.07.2018 09:57 17,7 °C 77 % 1012,4 hPa 0,0 mm 3,4 km/h (1 Bft) O-NO 64 ° 0 min 0,000 mm 2,9 UV-I 366 W/m² 13,6 °C 17,7 °C 4,8 km/h (1 Bft)
16.07.2018 09:58 17,7 °C 76 % 1012,4 hPa 0,0 mm 0,7 km/h (0 Bft) O 86 ° 0 min 0,000 mm 3,1 UV-I 383 W/m² 13,4 °C 17,7 °C 3,2 km/h (1 Bft)
16.07.2018 09:59 17,6 °C 77 % 1012,3 hPa 0,0 mm 2,6 km/h (1 Bft) O 100 ° 0 min 0,000 mm 2,9 UV-I 346 W/m² 13,5 °C 17,6 °C 3,2 km/h (1 Bft)
16.07.2018 10:00 17,7 °C 77 % 1012,4 hPa 0,0 mm 2,9 km/h (1 Bft) O 96 ° 0 min 0,000 mm 2,8 UV-I 341 W/m² 13,6 °C 17,7 °C 4,8 km/h (1 Bft)
16.07.2018 10:01 17,7 °C 79 % 1012,3 hPa 0,0 mm 3,0 km/h (1 Bft) N-NO 15 ° 0 min 0,203 mm 2,8 UV-I 338 W/m² 14,0 °C 17,7 °C 4,8 km/h (1 Bft)
16.07.2018 10:02 17,7 °C 77 % 1012,3 hPa 0,0 mm 3,1 km/h (1 Bft) N-NO 14 ° 0 min 0,000 mm 2,8 UV-I 336 W/m² 13,6 °C 17,7 °C 4,8 km/h (1 Bft)
16.07.2018 10:03 17,7 °C 77 % 1012,3 hPa 0,0 mm 3,5 km/h (1 Bft) N-NO 14 ° 0 min 0,000 mm 2,8 UV-I 339 W/m² 13,6 °C 17,7 °C 4,8 km/h (1 Bft)
16.07.2018 10:04 17,8 °C 78 % 1012,3 hPa 0,0 mm 2,1 km/h (1 Bft) NO 35 ° 0 min 0,000 mm 2,8 UV-I 346 W/m² 13,9 °C 17,8 °C 3,2 km/h (1 Bft)
16.07.2018 10:05 17,8 °C 77 % 1012,3 hPa 0,0 mm 4,5 km/h (1 Bft) NO 46 ° 0 min 0,000 mm 2,9 UV-I 369 W/m² 13,7 °C 17,8 °C 8,0 km/h (2 Bft)
16.07.2018 10:06 17,8 °C 76 % 1012,3 hPa 0,0 mm 0,9 km/h (0 Bft) NO 46 ° 0 min 0,000 mm 3,0 UV-I 380 W/m² 13,5 °C 17,8 °C 3,2 km/h (1 Bft)
16.07.2018 10:07 17,8 °C 77 % 1012,3 hPa 0,0 mm 5,6 km/h (1 Bft) N 5 ° 0 min 0,000 mm 3,0 UV-I 381 W/m² 13,7 °C 17,8 °C 8,0 km/h (2 Bft)
16.07.2018 10:08 17,8 °C 78 % 1012,3 hPa 0,0 mm 3,1 km/h (1 Bft) NO 43 ° 0 min 0,000 mm 3,0 UV-I 383 W/m² 13,9 °C 17,8 °C 6,4 km/h (2 Bft)
16.07.2018 10:09 17,8 °C 80 % 1012,3 hPa 0,0 mm 3,1 km/h (1 Bft) NO 53 ° 0 min 0,000 mm 3,0 UV-I 383 W/m² 14,3 °C 17,8 °C 4,8 km/h (1 Bft)
16.07.2018 10:10 17,9 °C 81 % 1012,3 hPa 0,0 mm 4,6 km/h (1 Bft) NO 52 ° 0 min 0,000 mm 3,0 UV-I 385 W/m² 14,6 °C 17,9 °C 8,0 km/h (2 Bft)
16.07.2018 10:11 17,9 °C 78 % 1012,3 hPa 0,0 mm 2,3 km/h (1 Bft) NO 52 ° 0 min 0,000 mm 3,1 UV-I 459 W/m² 14,0 °C 17,9 °C 4,8 km/h (1 Bft)
16.07.2018 10:12 17,9 °C 79 % 1012,3 hPa 0,0 mm 3,7 km/h (1 Bft) O-NO 71 ° 0 min 0,000 mm 3,2 UV-I 411 W/m² 14,2 °C 17,9 °C 8,0 km/h (2 Bft)
16.07.2018 10:13 17,9 °C 79 % 1012,2 hPa 0,0 mm 5,4 km/h (1 Bft) N 10 ° 0 min 0,000 mm 3,2 UV-I 406 W/m² 14,2 °C 17,9 °C 8,0 km/h (2 Bft)
16.07.2018 10:14 17,9 °C 77 % 1012,2 hPa 0,0 mm 3,8 km/h (1 Bft) N-NO 16 ° 0 min 0,000 mm 3,2 UV-I 411 W/m² 13,8 °C 17,9 °C 6,4 km/h (2 Bft)
16.07.2018 10:15 17,8 °C 77 % 1012,2 hPa 0,0 mm 2,4 km/h (1 Bft) NO 38 ° 0 min 0,000 mm 3,3 UV-I 424 W/m² 13,7 °C 17,8 °C 4,8 km/h (1 Bft)
16.07.2018 10:16 17,8 °C 77 % 1012,2 hPa 0,0 mm 2,7 km/h (1 Bft) NO 38 ° 0 min 0,000 mm 3,3 UV-I 431 W/m² 13,7 °C 17,8 °C 4,8 km/h (1 Bft)
16.07.2018 10:17 17,8 °C 78 % 1012,3 hPa 0,0 mm 3,1 km/h (1 Bft) NO 39 ° 0 min 0,000 mm 3,3 UV-I 417 W/m² 13,9 °C 17,8 °C 4,8 km/h (1 Bft)
16.07.2018 10:18 17,8 °C 78 % 1012,2 hPa 0,0 mm 3,4 km/h (1 Bft) N-NO 26 ° 0 min 0,000 mm 3,3 UV-I 418 W/m² 13,9 °C 17,8 °C 4,8 km/h (1 Bft)
16.07.2018 10:19 17,8 °C 77 % 1012,2 hPa 0,0 mm 1,6 km/h (1 Bft) N-NO 25 ° 0 min 0,000 mm 3,3 UV-I 424 W/m² 13,7 °C 17,8 °C 3,2 km/h (1 Bft)
16.07.2018 10:20 17,8 °C 77 % 1012,1 hPa 0,0 mm 2,9 km/h (1 Bft) N 351 ° 0 min 0,000 mm 3,4 UV-I 454 W/m² 13,7 °C 17,8 °C 4,8 km/h (1 Bft)
16.07.2018 10:21 17,9 °C 78 % 1012,1 hPa 0,0 mm 2,1 km/h (1 Bft) N 350 ° 0 min 0,000 mm 3,4 UV-I 436 W/m² 14,0 °C 17,9 °C 4,8 km/h (1 Bft)
16.07.2018 10:22 18,1 °C 80 % 1012,1 hPa 0,0 mm 2,0 km/h (1 Bft) N 355 ° 0 min 0,000 mm 3,5 UV-I 452 W/m² 14,6 °C 18,1 °C 3,2 km/h (1 Bft)
16.07.2018 10:23 18,1 °C 78 % 1012,1 hPa 0,0 mm 0,2 km/h (0 Bft) N 355 ° 0 min 0,000 mm 3,7 UV-I 483 W/m² 14,2 °C 18,1 °C 1,6 km/h (1 Bft)
16.07.2018 10:24 18,1 °C 77 % 1012,0 hPa 0,0 mm 0,7 km/h (0 Bft) NO 35 ° 0 min 0,000 mm 4,0 UV-I 536 W/m² 14,0 °C 18,1 °C 1,6 km/h (1 Bft)
16.07.2018 10:25 18,1 °C 76 % 1012,0 hPa 0,0 mm 0,0 km/h (0 Bft) NO 34 ° 0 min 0,000 mm 3,6 UV-I 462 W/m² 13,8 °C 18,1 °C 0,0 km/h (0 Bft)
16.07.2018 10:26 18,1 °C 78 % 1012,0 hPa 0,0 mm 0,0 km/h (0 Bft) NO 34 ° 0 min 0,000 mm 3,7 UV-I 468 W/m² 14,2 °C 18,1 °C 0,0 km/h (0 Bft)
16.07.2018 10:27 18,2 °C 79 % 1011,9 hPa 0,0 mm 1,1 km/h (1 Bft) NO 34 ° 0 min 0,000 mm 4,2 UV-I 561 W/m² 14,5 °C 18,2 °C 4,8 km/h (1 Bft)
16.07.2018 10:28 18,3 °C 78 % 1011,9 hPa 0,0 mm 2,5 km/h (1 Bft) NO 38 ° 0 min 0,000 mm 3,9 UV-I 471 W/m² 14,4 °C 18,3 °C 4,8 km/h (1 Bft)
16.07.2018 10:29 18,4 °C 77 % 1011,9 hPa 0,0 mm 3,4 km/h (1 Bft) O-NO 65 ° 0 min 0,000 mm 4,1 UV-I 499 W/m² 14,3 °C 18,4 °C 6,4 km/h (2 Bft)
16.07.2018 10:30 18,4 °C 78 % 1011,9 hPa 0,0 mm 4,9 km/h (1 Bft) O-SO 102 ° 0 min 0,000 mm 3,8 UV-I 506 W/m² 14,5 °C 18,4 °C 6,4 km/h (2 Bft)
16.07.2018 10:31 18,4 °C 78 % 1011,9 hPa 0,0 mm 5,8 km/h (2 Bft) O 99 ° 0 min 0,000 mm 3,8 UV-I 462 W/m² 14,5 °C 18,4 °C 9,7 km/h (2 Bft)
16.07.2018 10:32 18,3 °C 77 % 1011,8 hPa 0,0 mm 4,0 km/h (1 Bft) NO 37 ° 0 min 0,000 mm 3,9 UV-I 499 W/m² 14,2 °C 18,3 °C 6,4 km/h (2 Bft)
16.07.2018 10:33 18,2 °C 77 % 1011,9 hPa 0,0 mm 3,2 km/h (1 Bft) NO 37 ° 0 min 0,000 mm 5,0 UV-I 499 W/m² 14,1 °C 18,2 °C 6,4 km/h (2 Bft)
16.07.2018 10:34 18,2 °C 76 % 1011,8 hPa 0,0 mm 3,0 km/h (1 Bft) N-NW 344 ° 1 min 0,000 mm 4,3 UV-I 645 W/m² 13,9 °C 18,2 °C 4,8 km/h (1 Bft)
16.07.2018 10:35 18,3 °C 79 % 1011,8 hPa 0,0 mm 4,8 km/h (1 Bft) N-NW 340 ° 1 min 0,000 mm 3,8 UV-I 645 W/m² 14,6 °C 18,3 °C 8,0 km/h (2 Bft)
16.07.2018 10:36 18,6 °C 79 % 1011,8 hPa 0,0 mm 1,9 km/h (1 Bft) N-NW 341 ° 0 min 0,000 mm 3,6 UV-I 425 W/m² 14,9 °C 18,6 °C 3,2 km/h (1 Bft)
16.07.2018 10:37 18,7 °C 78 % 1011,7 hPa 0,0 mm 1,3 km/h (1 Bft) N-NW 341 ° 0 min 0,000 mm 3,6 UV-I 404 W/m² 14,8 °C 18,7 °C 3,2 km/h (1 Bft)
16.07.2018 10:38 18,8 °C 78 % 1011,8 hPa 0,0 mm 4,5 km/h (1 Bft) O-NO 65 ° 0 min 0,000 mm 4,7 UV-I 404 W/m² 14,9 °C 18,8 °C 6,4 km/h (2 Bft)
16.07.2018 10:39 19,0 °C 77 % 1011,7 hPa 0,0 mm 7,1 km/h (2 Bft) N-NO 24 ° 0 min 0,000 mm 3,9 UV-I 404 W/m² 14,9 °C 19,0 °C 11,3 km/h (2 Bft)
16.07.2018 10:40 18,9 °C 76 % 1011,7 hPa 0,0 mm 2,0 km/h (1 Bft) N-NO 24 ° 0 min 0,000 mm 4,6 UV-I 462 W/m² 14,6 °C 18,9 °C 4,8 km/h (1 Bft)
16.07.2018 10:41 18,9 °C 75 % 1011,7 hPa 0,0 mm 4,2 km/h (1 Bft) N-NO 23 ° 1 min 0,000 mm 4,6 UV-I 636 W/m² 14,4 °C 18,9 °C 6,4 km/h (2 Bft)
16.07.2018 10:42 18,9 °C 76 % 1011,7 hPa 0,0 mm 3,3 km/h (1 Bft) N-NO 32 ° 1 min 0,000 mm 4,8 UV-I 689 W/m² 14,6 °C 18,9 °C 8,0 km/h (2 Bft)
16.07.2018 10:43 18,8 °C 78 % 1011,7 hPa 0,0 mm 0,8 km/h (0 Bft) N-NO 32 ° 1 min 0,000 mm 5,2 UV-I 715 W/m² 14,9 °C 18,8 °C 1,6 km/h (1 Bft)
16.07.2018 10:44 18,9 °C 77 % 1011,8 hPa 0,0 mm 4,7 km/h (1 Bft) NO 45 ° 1 min 0,000 mm 4,2 UV-I 715 W/m² 14,8 °C 18,9 °C 8,0 km/h (2 Bft)
16.07.2018 10:45 18,9 °C 75 % 1011,8 hPa 0,0 mm 2,2 km/h (1 Bft) N-NO 26 ° 1 min 0,000 mm 3,9 UV-I 715 W/m² 14,4 °C 18,9 °C 6,4 km/h (2 Bft)
16.07.2018 10:46 18,9 °C 78 % 1011,8 hPa 0,0 mm 4,1 km/h (1 Bft) NO 36 ° 0 min 0,000 mm 3,8 UV-I 413 W/m² 15,0 °C 18,9 °C 6,4 km/h (2 Bft)
16.07.2018 10:47 18,8 °C 76 % 1011,8 hPa 0,0 mm 6,4 km/h (2 Bft) NO 44 ° 0 min 0,000 mm 3,5 UV-I 381 W/m² 14,5 °C 18,8 °C 11,3 km/h (2 Bft)
16.07.2018 10:48 18,8 °C 77 % 1011,7 hPa 0,0 mm 6,5 km/h (2 Bft) O-NO 61 ° 0 min 0,000 mm 3,5 UV-I 385 W/m² 14,7 °C 18,8 °C 9,7 km/h (2 Bft)
16.07.2018 10:49 18,8 °C 78 % 1011,7 hPa 0,0 mm 3,0 km/h (1 Bft) NO 54 ° 0 min 0,000 mm 3,6 UV-I 394 W/m² 14,9 °C 18,8 °C 6,4 km/h (2 Bft)
16.07.2018 10:50 18,8 °C 77 % 1011,8 hPa 0,0 mm 3,8 km/h (1 Bft) O-NO 71 ° 0 min 0,000 mm 3,5 UV-I 381 W/m² 14,7 °C 18,8 °C 6,4 km/h (2 Bft)
16.07.2018 10:51 18,6 °C 78 % 1011,8 hPa 0,0 mm 2,5 km/h (1 Bft) O-NO 69 ° 0 min 0,000 mm 3,1 UV-I 306 W/m² 14,7 °C 18,6 °C 6,4 km/h (2 Bft)
16.07.2018 10:52 18,6 °C 79 % 1011,7 hPa 0,0 mm 1,7 km/h (1 Bft) NO 41 ° 0 min 0,000 mm 3,0 UV-I 274 W/m² 14,9 °C 18,6 °C 3,2 km/h (1 Bft)
16.07.2018 10:53 18,5 °C 78 % 1011,8 hPa 0,0 mm 1,7 km/h (1 Bft) N-NO 26 ° 0 min 0,000 mm 2,9 UV-I 251 W/m² 14,6 °C 18,5 °C 3,2 km/h (1 Bft)
16.07.2018 10:54 18,5 °C 77 % 1011,7 hPa 0,0 mm 4,3 km/h (1 Bft) N-NW 342 ° 0 min 0,000 mm 3,1 UV-I 302 W/m² 14,4 °C 18,5 °C 4,8 km/h (1 Bft)
16.07.2018 10:55 18,5 °C 79 % 1011,8 hPa 0,0 mm 3,2 km/h (1 Bft) N 360 ° 0 min 0,000 mm 2,9 UV-I 221 W/m² 14,8 °C 18,5 °C 4,8 km/h (1 Bft)
16.07.2018 10:56 18,4 °C 77 % 1011,7 hPa 0,0 mm 6,9 km/h (2 Bft) N 360 ° 0 min 0,000 mm 4,0 UV-I 221 W/m² 14,3 °C 18,4 °C 12,9 km/h (3 Bft)
16.07.2018 10:57 18,4 °C 77 % 1011,8 hPa 0,0 mm 3,4 km/h (1 Bft) NO 34 ° 0 min 0,000 mm 3,6 UV-I 510 W/m² 14,3 °C 18,4 °C 6,4 km/h (2 Bft)
16.07.2018 10:58 18,5 °C 77 % 1011,7 hPa 0,0 mm 2,2 km/h (1 Bft) N-NO 12 ° 0 min 0,000 mm 3,6 UV-I 510 W/m² 14,4 °C 18,5 °C 4,8 km/h (1 Bft)
16.07.2018 10:59 18,6 °C 77 % 1011,7 hPa 0,0 mm 1,9 km/h (1 Bft) NO 34 ° 0 min 0,000 mm 4,1 UV-I 450 W/m² 14,5 °C 18,6 °C 3,2 km/h (1 Bft)
16.07.2018 11:00 18,6 °C 78 % 1011,6 hPa 0,0 mm 0,5 km/h (0 Bft) NO 34 ° 0 min 0,000 mm 3,7 UV-I 431 W/m² 14,7 °C 18,6 °C 1,6 km/h (1 Bft)
16.07.2018 11:01 18,5 °C 76 % 1011,7 hPa 0,0 mm 0,0 km/h (0 Bft) NO 34 ° 0 min 0,254 mm 3,9 UV-I 388 W/m² 14,2 °C 18,5 °C 0,0 km/h (0 Bft)
16.07.2018 11:02 18,6 °C 78 % 1011,7 hPa 0,0 mm 3,2 km/h (1 Bft) NW 317 ° 0 min 0,000 mm 3,8 UV-I 455 W/m² 14,7 °C 18,6 °C 4,8 km/h (1 Bft)
16.07.2018 11:03 18,7 °C 77 % 1011,8 hPa 0,0 mm 3,4 km/h (1 Bft) N 5 ° 0 min 0,000 mm 4,2 UV-I 466 W/m² 14,6 °C 18,7 °C 4,8 km/h (1 Bft)
16.07.2018 11:04 18,8 °C 79 % 1011,8 hPa 0,0 mm 3,2 km/h (1 Bft) NW 316 ° 0 min 0,000 mm 4,6 UV-I 466 W/m² 15,1 °C 18,8 °C 4,8 km/h (1 Bft)
16.07.2018 11:05 18,9 °C 77 % 1011,7 hPa 0,0 mm 3,1 km/h (1 Bft) NW 323 ° 1 min 0,000 mm 5,2 UV-I 710 W/m² 14,8 °C 18,9 °C 4,8 km/h (1 Bft)
16.07.2018 11:06 19,1 °C 77 % 1011,7 hPa 0,0 mm 2,5 km/h (1 Bft) N-NW 344 ° 1 min 0,000 mm 5,1 UV-I 670 W/m² 15,0 °C 19,1 °C 4,8 km/h (1 Bft)
16.07.2018 11:07 19,2 °C 79 % 1011,7 hPa 0,0 mm 3,6 km/h (1 Bft) N-NW 338 ° 1 min 0,000 mm 5,4 UV-I 738 W/m² 15,5 °C 19,2 °C 4,8 km/h (1 Bft)
16.07.2018 11:08 19,4 °C 78 % 1011,7 hPa 0,0 mm 4,1 km/h (1 Bft) N-NW 344 ° 1 min 0,000 mm 5,6 UV-I 780 W/m² 15,5 °C 19,4 °C 6,4 km/h (2 Bft)
16.07.2018 11:09 19,5 °C 75 % 1011,7 hPa 0,0 mm 5,6 km/h (1 Bft) N-NO 19 ° 1 min 0,000 mm 5,8 UV-I 814 W/m² 14,9 °C 19,5 °C 8,0 km/h (2 Bft)
16.07.2018 11:10 19,4 °C 73 % 1011,7 hPa 0,0 mm 5,3 km/h (1 Bft) NO 37 ° 1 min 0,000 mm 5,8 UV-I 817 W/m² 14,4 °C 19,4 °C 8,0 km/h (2 Bft)
16.07.2018 11:11 19,4 °C 75 % 1011,7 hPa 0,0 mm 5,0 km/h (1 Bft) NO 35 ° 1 min 0,000 mm 5,8 UV-I 817 W/m² 14,8 °C 19,4 °C 11,3 km/h (2 Bft)
16.07.2018 11:12 19,4 °C 74 % 1011,7 hPa 0,0 mm 4,4 km/h (1 Bft) N 355 ° 1 min 0,000 mm 5,8 UV-I 821 W/m² 14,6 °C 19,4 °C 6,4 km/h (2 Bft)
16.07.2018 11:13 19,5 °C 74 % 1011,7 hPa 0,0 mm 4,0 km/h (1 Bft) N 9 ° 1 min 0,000 mm 5,8 UV-I 826 W/m² 14,7 °C 19,5 °C 4,8 km/h (1 Bft)
16.07.2018 11:14 19,4 °C 72 % 1011,7 hPa 0,0 mm 4,4 km/h (1 Bft) N 355 ° 1 min 0,000 mm 5,6 UV-I 812 W/m² 14,2 °C 19,4 °C 8,0 km/h (2 Bft)
16.07.2018 11:15 19,4 °C 73 % 1011,7 hPa 0,0 mm 3,8 km/h (1 Bft) N-NW 346 ° 1 min 0,000 mm 5,8 UV-I 784 W/m² 14,4 °C 19,4 °C 6,4 km/h (2 Bft)
16.07.2018 11:16 19,5 °C 75 % 1011,7 hPa 0,0 mm 4,4 km/h (1 Bft) NW 320 ° 1 min 0,000 mm 5,5 UV-I 724 W/m² 14,9 °C 19,5 °C 6,4 km/h (2 Bft)
16.07.2018 11:17 19,5 °C 74 % 1011,7 hPa 0,0 mm 4,0 km/h (1 Bft) NW 319 ° 1 min 0,000 mm 5,8 UV-I 803 W/m² 14,7 °C 19,5 °C 4,8 km/h (1 Bft)
16.07.2018 11:18 19,4 °C 73 % 1011,7 hPa 0,0 mm 3,1 km/h (1 Bft) NW 309 ° 1 min 0,000 mm 5,8 UV-I 793 W/m² 14,4 °C 19,4 °C 4,8 km/h (1 Bft)
16.07.2018 11:19 19,6 °C 74 % 1011,7 hPa 0,0 mm 0,1 km/h (0 Bft) NW 309 ° 1 min 0,000 mm 5,9 UV-I 810 W/m² 14,8 °C 19,6 °C 1,6 km/h (1 Bft)
16.07.2018 11:20 19,6 °C 73 % 1011,6 hPa 0,0 mm 1,8 km/h (1 Bft) N 355 ° 1 min 0,000 mm 5,9 UV-I 812 W/m² 14,6 °C 19,6 °C 4,8 km/h (1 Bft)
16.07.2018 11:21 19,8 °C 75 % 1011,6 hPa 0,0 mm 3,9 km/h (1 Bft) N 355 ° 1 min 0,000 mm 6,0 UV-I 816 W/m² 15,2 °C 19,8 °C 4,8 km/h (1 Bft)
16.07.2018 11:22 19,8 °C 71 % 1011,6 hPa 0,0 mm 1,3 km/h (1 Bft) N 355 ° 1 min 0,000 mm 6,0 UV-I 817 W/m² 14,4 °C 19,8 °C 3,2 km/h (1 Bft)
16.07.2018 11:23 19,7 °C 70 % 1011,6 hPa 0,0 mm 0,3 km/h (0 Bft) N 355 ° 1 min 0,000 mm 6,0 UV-I 812 W/m² 14,1 °C 19,7 °C 1,6 km/h (1 Bft)
16.07.2018 11:24 19,6 °C 70 % 1011,6 hPa 0,0 mm 0,6 km/h (0 Bft) N 355 ° 1 min 0,000 mm 6,0 UV-I 805 W/m² 14,0 °C 19,6 °C 1,6 km/h (1 Bft)
16.07.2018 11:25 19,6 °C 70 % 1011,6 hPa 0,0 mm 2,0 km/h (1 Bft) N 355 ° 1 min 0,000 mm 6,1 UV-I 810 W/m² 14,0 °C 19,6 °C 3,2 km/h (1 Bft)
16.07.2018 11:26 19,4 °C 71 % 1011,6 hPa 0,0 mm 1,5 km/h (1 Bft) N 355 ° 1 min 0,000 mm 6,1 UV-I 812 W/m² 14,0 °C 19,4 °C 3,2 km/h (1 Bft)
16.07.2018 11:27 19,4 °C 71 % 1011,5 hPa 0,0 mm 0,9 km/h (0 Bft) W-NW 295 ° 1 min 0,000 mm 6,1 UV-I 807 W/m² 14,0 °C 19,4 °C 1,6 km/h (1 Bft)
16.07.2018 11:28 19,6 °C 71 % 1011,5 hPa 0,0 mm 0,8 km/h (0 Bft) W-NW 296 ° 1 min 0,000 mm 6,1 UV-I 812 W/m² 14,2 °C 19,6 °C 1,6 km/h (1 Bft)
16.07.2018 11:29 19,8 °C 76 % 1011,5 hPa 0,0 mm 0,9 km/h (0 Bft) W-NW 300 ° 1 min 0,000 mm 6,1 UV-I 814 W/m² 15,4 °C 19,8 °C 3,2 km/h (1 Bft)
16.07.2018 11:30 20,1 °C 75 % 1011,5 hPa 0,0 mm 3,2 km/h (1 Bft) N 349 ° 1 min 0,000 mm 6,2 UV-I 814 W/m² 15,5 °C 20,1 °C 4,8 km/h (1 Bft)
16.07.2018 11:31 20,4 °C 74 % 1011,4 hPa 0,0 mm 2,3 km/h (1 Bft) O-NO 58 ° 1 min 0,000 mm 6,2 UV-I 817 W/m² 15,6 °C 20,4 °C 4,8 km/h (1 Bft)
16.07.2018 11:32 20,4 °C 71 % 1011,4 hPa 0,0 mm 2,1 km/h (1 Bft) O-NO 64 ° 1 min 0,000 mm 6,2 UV-I 819 W/m² 15,0 °C 20,4 °C 4,8 km/h (1 Bft)
16.07.2018 11:33 20,3 °C 72 % 1011,4 hPa 0,0 mm 2,4 km/h (1 Bft) O-NO 64 ° 1 min 0,000 mm 6,2 UV-I 821 W/m² 15,1 °C 20,3 °C 4,8 km/h (1 Bft)
16.07.2018 11:34 20,1 °C 69 % 1011,5 hPa 0,0 mm 3,8 km/h (1 Bft) O-NO 64 ° 1 min 0,000 mm 6,2 UV-I 819 W/m² 14,2 °C 20,1 °C 4,8 km/h (1 Bft)
16.07.2018 11:35 20,0 °C 71 % 1011,5 hPa 0,0 mm 3,1 km/h (1 Bft) O 101 ° 1 min 0,000 mm 6,2 UV-I 821 W/m² 14,6 °C 20,0 °C 4,8 km/h (1 Bft)
16.07.2018 11:36 19,8 °C 69 % 1011,5 hPa 0,0 mm 0,5 km/h (0 Bft) O-SO 103 ° 1 min 0,000 mm 6,3 UV-I 824 W/m² 13,9 °C 19,8 °C 3,2 km/h (1 Bft)
16.07.2018 11:37 19,8 °C 69 % 1011,4 hPa 0,0 mm 0,2 km/h (0 Bft) O-SO 103 ° 1 min 0,000 mm 6,3 UV-I 828 W/m² 13,9 °C 19,8 °C 1,6 km/h (1 Bft)
16.07.2018 11:38 19,8 °C 70 % 1011,4 hPa 0,0 mm 0,1 km/h (0 Bft) O-SO 103 ° 1 min 0,000 mm 6,3 UV-I 831 W/m² 14,2 °C 19,8 °C 1,6 km/h (1 Bft)
16.07.2018 11:39 19,9 °C 69 % 1011,5 hPa 0,0 mm 1,1 km/h (1 Bft) O 90 ° 1 min 0,000 mm 6,4 UV-I 847 W/m² 14,0 °C 19,9 °C 3,2 km/h (1 Bft)
16.07.2018 11:40 20,0 °C 70 % 1011,4 hPa 0,0 mm 2,7 km/h (1 Bft) N-NW 332 ° 1 min 0,000 mm 6,4 UV-I 856 W/m² 14,4 °C 20,0 °C 6,4 km/h (2 Bft)
16.07.2018 11:41 20,2 °C 70 % 1011,5 hPa 0,0 mm 5,9 km/h (2 Bft) NW 311 ° 1 min 0,000 mm 6,4 UV-I 865 W/m² 14,5 °C 20,2 °C 8,0 km/h (2 Bft)
16.07.2018 11:42 20,2 °C 69 % 1011,5 hPa 0,0 mm 5,0 km/h (1 Bft) NW 319 ° 1 min 0,000 mm 6,5 UV-I 879 W/m² 14,3 °C 20,2 °C 8,0 km/h (2 Bft)
16.07.2018 11:43 20,3 °C 69 % 1011,5 hPa 0,0 mm 2,7 km/h (1 Bft) NW 319 ° 1 min 0,000 mm 6,5 UV-I 868 W/m² 14,4 °C 20,3 °C 4,8 km/h (1 Bft)
16.07.2018 11:44 20,3 °C 70 % 1011,5 hPa 0,0 mm 3,7 km/h (1 Bft) SW 227 ° 1 min 0,000 mm 6,5 UV-I 853 W/m² 14,6 °C 20,3 °C 4,8 km/h (1 Bft)
16.07.2018 11:45 20,3 °C 69 % 1011,5 hPa 0,0 mm 4,1 km/h (1 Bft) W-NW 301 ° 1 min 0,000 mm 6,5 UV-I 853 W/m² 14,4 °C 20,3 °C 8,0 km/h (2 Bft)
16.07.2018 11:46 20,4 °C 68 % 1011,5 hPa 0,0 mm 2,6 km/h (1 Bft) W-NW 298 ° 1 min 0,000 mm 6,5 UV-I 860 W/m² 14,3 °C 20,4 °C 4,8 km/h (1 Bft)
16.07.2018 11:47 20,5 °C 69 % 1011,5 hPa 0,0 mm 2,4 km/h (1 Bft) W-NW 291 ° 1 min 0,000 mm 6,5 UV-I 856 W/m² 14,6 °C 20,5 °C 4,8 km/h (1 Bft)
16.07.2018 11:48 20,5 °C 68 % 1011,5 hPa 0,0 mm 3,6 km/h (1 Bft) W-NW 288 ° 1 min 0,000 mm 6,5 UV-I 858 W/m² 14,4 °C 20,5 °C 4,8 km/h (1 Bft)
16.07.2018 11:49 20,4 °C 68 % 1011,4 hPa 0,0 mm 2,1 km/h (1 Bft) W 276 ° 1 min 0,000 mm 6,6 UV-I 858 W/m² 14,3 °C 20,4 °C 4,8 km/h (1 Bft)
16.07.2018 11:50 20,4 °C 68 % 1011,4 hPa 0,0 mm 6,2 km/h (2 Bft) NW 304 ° 1 min 0,000 mm 6,6 UV-I 860 W/m² 14,3 °C 20,4 °C 9,7 km/h (2 Bft)
16.07.2018 11:51 20,4 °C 69 % 1011,4 hPa 0,0 mm 4,2 km/h (1 Bft) NW 322 ° 1 min 0,000 mm 6,6 UV-I 858 W/m² 14,5 °C 20,4 °C 6,4 km/h (2 Bft)
16.07.2018 11:52 20,5 °C 69 % 1011,4 hPa 0,0 mm 4,7 km/h (1 Bft) N-NW 336 ° 1 min 0,000 mm 6,6 UV-I 858 W/m² 14,6 °C 20,5 °C 6,4 km/h (2 Bft)
16.07.2018 11:53 20,7 °C 70 % 1011,4 hPa 0,0 mm 3,3 km/h (1 Bft) W 264 ° 1 min 0,000 mm 6,6 UV-I 860 W/m² 15,0 °C 20,7 °C 6,4 km/h (2 Bft)
16.07.2018 11:54 20,9 °C 72 % 1011,4 hPa 0,0 mm 4,4 km/h (1 Bft) W-SW 239 ° 1 min 0,000 mm 6,6 UV-I 861 W/m² 15,7 °C 20,9 °C 9,7 km/h (2 Bft)
16.07.2018 11:55 21,1 °C 68 % 1011,3 hPa 0,0 mm 2,2 km/h (1 Bft) W-SW 244 ° 1 min 0,000 mm 6,6 UV-I 856 W/m² 15,0 °C 21,1 °C 3,2 km/h (1 Bft)
16.07.2018 11:56 21,1 °C 69 % 1011,4 hPa 0,0 mm 3,0 km/h (1 Bft) W-SW 246 ° 1 min 0,000 mm 6,7 UV-I 865 W/m² 15,2 °C 21,1 °C 4,8 km/h (1 Bft)
16.07.2018 11:57 21,2 °C 69 % 1011,3 hPa 0,0 mm 2,9 km/h (1 Bft) W-SW 246 ° 1 min 0,000 mm 6,7 UV-I 863 W/m² 15,3 °C 21,2 °C 4,8 km/h (1 Bft)
16.07.2018 11:58 21,1 °C 67 % 1011,3 hPa 0,0 mm 1,7 km/h (1 Bft) W-SW 252 ° 1 min 0,000 mm 6,6 UV-I 856 W/m² 14,7 °C 21,1 °C 3,2 km/h (1 Bft)
16.07.2018 11:59 21,1 °C 69 % 1011,4 hPa 0,0 mm 2,3 km/h (1 Bft) W-SW 254 ° 1 min 0,000 mm 6,6 UV-I 854 W/m² 15,2 °C 21,1 °C 3,2 km/h (1 Bft)
16.07.2018 12:00 21,0 °C 67 % 1011,3 hPa 0,0 mm 0,9 km/h (0 Bft) W-SW 254 ° 1 min 0,000 mm 6,6 UV-I 854 W/m² 14,6 °C 21,0 °C 1,6 km/h (1 Bft)
16.07.2018 12:01 20,9 °C 68 % 1011,4 hPa 0,0 mm 1,3 km/h (1 Bft) W-SW 254 ° 1 min 0,457 mm 6,7 UV-I 865 W/m² 14,8 °C 20,9 °C 3,2 km/h (1 Bft)
16.07.2018 12:02 20,9 °C 68 % 1011,3 hPa 0,0 mm 2,4 km/h (1 Bft) O-NO 62 ° 1 min 0,000 mm 6,7 UV-I 881 W/m² 14,8 °C 20,9 °C 4,8 km/h (1 Bft)
16.07.2018 12:03 20,8 °C 65 % 1011,3 hPa 0,0 mm 2,3 km/h (1 Bft) O-NO 57 ° 1 min 0,000 mm 6,8 UV-I 900 W/m² 14,0 °C 20,8 °C 4,8 km/h (1 Bft)
16.07.2018 12:04 20,8 °C 67 % 1011,3 hPa 0,0 mm 1,7 km/h (1 Bft) NW 321 ° 1 min 0,000 mm 6,9 UV-I 933 W/m² 14,4 °C 20,8 °C 3,2 km/h (1 Bft)
16.07.2018 12:05 20,7 °C 66 % 1011,3 hPa 0,0 mm 2,0 km/h (1 Bft) NW 321 ° 1 min 0,000 mm 6,9 UV-I 956 W/m² 14,1 °C 20,7 °C 3,2 km/h (1 Bft)
16.07.2018 12:06 20,8 °C 66 % 1011,3 hPa 0,0 mm 1,0 km/h (0 Bft) NW 321 ° 1 min 0,000 mm 3,4 UV-I 956 W/m² 14,2 °C 20,8 °C 3,2 km/h (1 Bft)
16.07.2018 12:07 20,8 °C 70 % 1011,2 hPa 0,0 mm 2,4 km/h (1 Bft) NW 323 ° 1 min 0,000 mm 7,0 UV-I 956 W/m² 15,1 °C 20,8 °C 4,8 km/h (1 Bft)
16.07.2018 12:08 21,1 °C 69 % 1011,2 hPa 0,0 mm 3,3 km/h (1 Bft) N-NW 339 ° 1 min 0,000 mm 7,0 UV-I 949 W/m² 15,2 °C 21,1 °C 6,4 km/h (2 Bft)
16.07.2018 12:09 21,2 °C 68 % 1011,2 hPa 0,0 mm 4,0 km/h (1 Bft) N-NW 339 ° 1 min 0,000 mm 7,1 UV-I 1014 W/m² 15,1 °C 21,2 °C 4,8 km/h (1 Bft)
16.07.2018 12:10 21,4 °C 70 % 1011,2 hPa 0,0 mm 3,1 km/h (1 Bft) NW 313 ° 1 min 0,000 mm 7,2 UV-I 990 W/m² 15,7 °C 21,4 °C 4,8 km/h (1 Bft)
16.07.2018 12:11 21,5 °C 68 % 1011,2 hPa 0,0 mm 3,3 km/h (1 Bft) NW 315 ° 1 min 0,000 mm 4,1 UV-I 990 W/m² 15,3 °C 21,5 °C 6,4 km/h (2 Bft)
16.07.2018 12:12 21,5 °C 66 % 1011,3 hPa 0,0 mm 0,7 km/h (0 Bft) NW 315 ° 1 min 0,000 mm 7,4 UV-I 874 W/m² 14,9 °C 21,5 °C 3,2 km/h (1 Bft)
16.07.2018 12:13 21,5 °C 66 % 1011,3 hPa 0,0 mm 1,7 km/h (1 Bft) NW 315 ° 1 min 0,000 mm 7,4 UV-I 874 W/m² 14,9 °C 21,5 °C 4,8 km/h (1 Bft)
16.07.2018 12:14 21,6 °C 68 % 1011,3 hPa 0,0 mm 4,3 km/h (1 Bft) NW 315 ° 1 min 0,000 mm 4,5 UV-I 874 W/m² 15,4 °C 21,6 °C 6,4 km/h (2 Bft)
16.07.2018 12:15 21,6 °C 67 % 1011,3 hPa 0,0 mm 2,1 km/h (1 Bft) N 355 ° 1 min 0,000 mm 4,3 UV-I 874 W/m² 15,2 °C 21,6 °C 3,2 km/h (1 Bft)
16.07.2018 12:16 21,7 °C 70 % 1011,3 hPa 0,0 mm 1,5 km/h (1 Bft) N 355 ° 1 min 0,000 mm 7,1 UV-I 874 W/m² 16,0 °C 21,7 °C 3,2 km/h (1 Bft)
16.07.2018 12:17 21,7 °C 68 % 1011,3 hPa 0,0 mm 3,3 km/h (1 Bft) N 360 ° 1 min 0,000 mm 7,1 UV-I 962 W/m² 15,5 °C 21,7 °C 4,8 km/h (1 Bft)
16.07.2018 12:18 21,6 °C 67 % 1011,3 hPa 0,0 mm 3,7 km/h (1 Bft) N-NO 20 ° 1 min 0,000 mm 7,2 UV-I 970 W/m² 15,2 °C 21,6 °C 6,4 km/h (2 Bft)
16.07.2018 12:19 21,6 °C 65 % 1011,3 hPa 0,0 mm 1,9 km/h (1 Bft) N-NO 30 ° 1 min 0,000 mm 6,0 UV-I 970 W/m² 14,7 °C 21,6 °C 4,8 km/h (1 Bft)
16.07.2018 12:20 21,4 °C 65 % 1011,3 hPa 0,0 mm 0,5 km/h (0 Bft) N-NO 30 ° 1 min 0,000 mm 7,0 UV-I 912 W/m² 14,5 °C 21,4 °C 1,6 km/h (1 Bft)
16.07.2018 12:21 21,2 °C 64 % 1011,3 hPa 0,0 mm 0,4 km/h (0 Bft) N-NO 30 ° 1 min 0,000 mm 7,0 UV-I 909 W/m² 14,1 °C 21,2 °C 1,6 km/h (1 Bft)
16.07.2018 12:22 21,1 °C 68 % 1011,3 hPa 0,0 mm 3,8 km/h (1 Bft) O 95 ° 1 min 0,000 mm 7,0 UV-I 907 W/m² 15,0 °C 21,1 °C 6,4 km/h (2 Bft)
16.07.2018 12:23 21,1 °C 70 % 1011,3 hPa 0,0 mm 5,1 km/h (1 Bft) O-SO 108 ° 1 min 0,000 mm 7,0 UV-I 902 W/m² 15,4 °C 21,1 °C 6,4 km/h (2 Bft)
16.07.2018 12:24 21,0 °C 67 % 1011,3 hPa 0,0 mm 2,9 km/h (1 Bft) S-SO 150 ° 1 min 0,000 mm 7,0 UV-I 902 W/m² 14,6 °C 21,0 °C 4,8 km/h (1 Bft)
16.07.2018 12:25 21,1 °C 72 % 1011,3 hPa 0,0 mm 2,9 km/h (1 Bft) SO 143 ° 1 min 0,000 mm 7,0 UV-I 898 W/m² 15,8 °C 21,1 °C 4,8 km/h (1 Bft)
16.07.2018 12:26 21,1 °C 65 % 1011,3 hPa 0,0 mm 0,2 km/h (0 Bft) SO 143 ° 1 min 0,000 mm 7,0 UV-I 898 W/m² 14,3 °C 21,1 °C 1,6 km/h (1 Bft)
16.07.2018 12:27 21,1 °C 66 % 1011,2 hPa 0,0 mm 0,9 km/h (0 Bft) SO 143 ° 1 min 0,000 mm 7,0 UV-I 895 W/m² 14,5 °C 21,1 °C 1,6 km/h (1 Bft)
16.07.2018 12:28 21,2 °C 68 % 1011,2 hPa 0,0 mm 4,1 km/h (1 Bft) W 273 ° 1 min 0,000 mm 7,0 UV-I 891 W/m² 15,1 °C 21,2 °C 14,5 km/h (3 Bft)
16.07.2018 12:29 21,4 °C 64 % 1011,2 hPa 0,0 mm 8,9 km/h (2 Bft) N-NW 343 ° 1 min 0,000 mm 7,0 UV-I 889 W/m² 14,3 °C 21,4 °C 12,9 km/h (3 Bft)
16.07.2018 12:30 21,6 °C 64 % 1011,2 hPa 0,0 mm 7,5 km/h (2 Bft) NW 313 ° 1 min 0,000 mm 7,1 UV-I 889 W/m² 14,5 °C 21,6 °C 12,9 km/h (3 Bft)
16.07.2018 12:31 21,9 °C 66 % 1011,1 hPa 0,0 mm 10,5 km/h (2 Bft) NW 313 ° 1 min 0,000 mm 7,0 UV-I 881 W/m² 15,3 °C 21,9 °C 14,5 km/h (3 Bft)
16.07.2018 12:32 22,0 °C 63 % 1011,1 hPa 0,0 mm 8,6 km/h (2 Bft) W-NW 292 ° 1 min 0,000 mm 7,0 UV-I 884 W/m² 14,6 °C 22,0 °C 12,9 km/h (3 Bft)
16.07.2018 12:33 22,1 °C 63 % 1011,1 hPa 0,0 mm 6,8 km/h (2 Bft) NW 304 ° 1 min 0,000 mm 7,0 UV-I 884 W/m² 14,7 °C 22,1 °C 9,7 km/h (2 Bft)
16.07.2018 12:34 22,1 °C 61 % 1011,1 hPa 0,0 mm 3,7 km/h (1 Bft) N-NW 331 ° 1 min 0,000 mm 7,0 UV-I 888 W/m² 14,2 °C 22,1 °C 8,0 km/h (2 Bft)
16.07.2018 12:35 22,0 °C 62 % 1011,1 hPa 0,0 mm 7,2 km/h (2 Bft) NW 323 ° 1 min 0,000 mm 7,0 UV-I 888 W/m² 14,4 °C 22,0 °C 8,0 km/h (2 Bft)
16.07.2018 12:36 22,0 °C 62 % 1011,1 hPa 0,0 mm 7,8 km/h (2 Bft) NW 309 ° 1 min 0,000 mm 7,0 UV-I 886 W/m² 14,4 °C 22,0 °C 14,5 km/h (3 Bft)
16.07.2018 12:37 22,0 °C 61 % 1011,1 hPa 0,0 mm 6,4 km/h (2 Bft) NW 310 ° 1 min 0,000 mm 7,0 UV-I 886 W/m² 14,1 °C 22,0 °C 8,0 km/h (2 Bft)
16.07.2018 12:38 22,1 °C 61 % 1011,2 hPa 0,0 mm 5,0 km/h (1 Bft) NW 313 ° 1 min 0,000 mm 7,0 UV-I 882 W/m² 14,2 °C 22,1 °C 8,0 km/h (2 Bft)
16.07.2018 12:39 22,2 °C 64 % 1011,1 hPa 0,0 mm 7,2 km/h (2 Bft) W-NW 297 ° 1 min 0,000 mm 7,0 UV-I 886 W/m² 15,1 °C 22,2 °C 11,3 km/h (2 Bft)
16.07.2018 12:40 22,2 °C 61 % 1011,1 hPa 0,0 mm 4,8 km/h (1 Bft) NW 309 ° 1 min 0,000 mm 7,0 UV-I 886 W/m² 14,3 °C 22,2 °C 9,7 km/h (2 Bft)
16.07.2018 12:41 22,2 °C 62 % 1011,2 hPa 0,0 mm 7,5 km/h (2 Bft) NW 324 ° 1 min 0,000 mm 7,0 UV-I 886 W/m² 14,6 °C 22,2 °C 14,5 km/h (3 Bft)
16.07.2018 12:42 22,3 °C 63 % 1011,1 hPa 0,0 mm 5,8 km/h (2 Bft) N-NW 348 ° 1 min 0,000 mm 7,0 UV-I 882 W/m² 14,9 °C 22,3 °C 8,0 km/h (2 Bft)
16.07.2018 12:43 22,4 °C 63 % 1011,1 hPa 0,0 mm 2,4 km/h (1 Bft) W-SW 244 ° 1 min 0,000 mm 7,1 UV-I 891 W/m² 15,0 °C 22,4 °C 4,8 km/h (1 Bft)
16.07.2018 12:44 22,3 °C 58 % 1011,1 hPa 0,0 mm 0,3 km/h (0 Bft) W 269 ° 1 min 0,000 mm 7,1 UV-I 891 W/m² 13,6 °C 22,3 °C 1,6 km/h (1 Bft)
16.07.2018 12:45 22,1 °C 59 % 1011,1 hPa 0,0 mm 4,0 km/h (1 Bft) W 273 ° 1 min 0,000 mm 7,1 UV-I 886 W/m² 13,7 °C 22,1 °C 9,7 km/h (2 Bft)
16.07.2018 12:46 22,1 °C 63 % 1011,1 hPa 0,0 mm 0,2 km/h (0 Bft) W 273 ° 1 min 0,000 mm 7,1 UV-I 884 W/m² 14,7 °C 22,1 °C 1,6 km/h (1 Bft)
16.07.2018 12:47 22,0 °C 61 % 1011,1 hPa 0,0 mm 3,2 km/h (1 Bft) W-NW 285 ° 1 min 0,000 mm 7,0 UV-I 882 W/m² 14,1 °C 22,0 °C 4,8 km/h (1 Bft)
16.07.2018 12:48 22,1 °C 62 % 1011,1 hPa 0,0 mm 4,4 km/h (1 Bft) NW 304 ° 1 min 0,000 mm 7,0 UV-I 881 W/m² 14,5 °C 22,1 °C 8,0 km/h (2 Bft)
16.07.2018 12:49 22,1 °C 60 % 1011,1 hPa 0,0 mm 4,0 km/h (1 Bft) N 355 ° 1 min 0,000 mm 7,1 UV-I 888 W/m² 14,0 °C 22,1 °C 6,4 km/h (2 Bft)
16.07.2018 12:50 22,2 °C 61 % 1011,0 hPa 0,0 mm 7,8 km/h (2 Bft) W 273 ° 1 min 0,000 mm 7,2 UV-I 891 W/m² 14,3 °C 22,2 °C 14,5 km/h (3 Bft)
16.07.2018 12:51 22,3 °C 62 % 1011,0 hPa 0,0 mm 12,0 km/h (2 Bft) N-NW 327 ° 1 min 0,000 mm 7,2 UV-I 895 W/m² 14,7 °C 22,3 °C 16,1 km/h (3 Bft)
16.07.2018 12:52 22,3 °C 63 % 1011,1 hPa 0,0 mm 8,2 km/h (2 Bft) NW 314 ° 1 min 0,000 mm 7,2 UV-I 891 W/m² 14,9 °C 22,3 °C 12,9 km/h (3 Bft)
16.07.2018 12:53 22,4 °C 60 % 1011,0 hPa 0,0 mm 7,9 km/h (2 Bft) W-SW 253 ° 1 min 0,000 mm 7,2 UV-I 893 W/m² 14,2 °C 22,4 °C 12,9 km/h (3 Bft)
16.07.2018 12:54 22,3 °C 60 % 1011,0 hPa 0,0 mm 3,0 km/h (1 Bft) S-SW 194 ° 1 min 0,000 mm 7,2 UV-I 895 W/m² 14,2 °C 22,3 °C 4,8 km/h (1 Bft)
16.07.2018 12:55 22,2 °C 61 % 1011,0 hPa 0,0 mm 3,9 km/h (1 Bft) W-SW 257 ° 1 min 0,000 mm 7,2 UV-I 896 W/m² 14,3 °C 22,2 °C 6,4 km/h (2 Bft)
16.07.2018 12:56 22,3 °C 64 % 1010,9 hPa 0,0 mm 7,2 km/h (2 Bft) W-NW 283 ° 1 min 0,000 mm 7,1 UV-I 895 W/m² 15,2 °C 22,3 °C 11,3 km/h (2 Bft)
16.07.2018 12:57 22,3 °C 61 % 1011,0 hPa 0,0 mm 3,9 km/h (1 Bft) W 267 ° 1 min 0,000 mm 7,2 UV-I 893 W/m² 14,4 °C 22,3 °C 6,4 km/h (2 Bft)
16.07.2018 12:58 22,3 °C 58 % 1010,9 hPa 0,0 mm 6,2 km/h (2 Bft) NW 310 ° 1 min 0,000 mm 7,2 UV-I 893 W/m² 13,6 °C 22,3 °C 11,3 km/h (2 Bft)
16.07.2018 12:59 22,3 °C 58 % 1011,0 hPa 0,0 mm 6,8 km/h (2 Bft) NW 317 ° 1 min 0,000 mm 7,2 UV-I 893 W/m² 13,6 °C 22,3 °C 12,9 km/h (3 Bft)
16.07.2018 13:00 22,3 °C 59 % 1011,0 hPa 0,0 mm 9,1 km/h (2 Bft) N 349 ° 1 min 0,000 mm 7,2 UV-I 898 W/m² 13,9 °C 22,3 °C 14,5 km/h (3 Bft)
16.07.2018 13:01 22,4 °C 59 % 1011,0 hPa 0,0 mm 4,3 km/h (1 Bft) N-NO 27 ° 1 min 0,533 mm 7,2 UV-I 893 W/m² 14,0 °C 22,4 °C 6,4 km/h (2 Bft)
16.07.2018 13:02 22,4 °C 59 % 1010,9 hPa 0,0 mm 7,9 km/h (2 Bft) N-NW 336 ° 1 min 0,000 mm 7,2 UV-I 893 W/m² 14,0 °C 22,4 °C 9,7 km/h (2 Bft)
16.07.2018 13:03 22,6 °C 58 % 1011,0 hPa 0,0 mm 5,9 km/h (2 Bft) W 273 ° 1 min 0,000 mm 7,1 UV-I 895 W/m² 13,9 °C 22,6 °C 8,0 km/h (2 Bft)
16.07.2018 13:04 22,6 °C 58 % 1010,9 hPa 0,0 mm 7,5 km/h (2 Bft) W-NW 288 ° 1 min 0,000 mm 7,1 UV-I 895 W/m² 13,9 °C 22,6 °C 12,9 km/h (3 Bft)
16.07.2018 13:05 22,4 °C 57 % 1010,9 hPa 0,0 mm 5,2 km/h (1 Bft) NW 317 ° 1 min 0,000 mm 7,2 UV-I 900 W/m² 13,5 °C 22,4 °C 9,7 km/h (2 Bft)
16.07.2018 13:06 22,3 °C 58 % 1010,9 hPa 0,0 mm 2,3 km/h (1 Bft) NW 309 ° 1 min 0,000 mm 7,2 UV-I 907 W/m² 13,6 °C 22,3 °C 6,4 km/h (2 Bft)
16.07.2018 13:07 22,3 °C 58 % 1010,9 hPa 0,0 mm 1,5 km/h (1 Bft) W-NW 290 ° 1 min 0,000 mm 7,2 UV-I 909 W/m² 13,6 °C 22,3 °C 4,8 km/h (1 Bft)
16.07.2018 13:08 22,4 °C 58 % 1010,8 hPa 0,0 mm 1,2 km/h (1 Bft) N-NW 338 ° 1 min 0,000 mm 7,2 UV-I 911 W/m² 13,7 °C 22,4 °C 3,2 km/h (1 Bft)
16.07.2018 13:09 22,6 °C 61 % 1010,8 hPa 0,0 mm 4,9 km/h (1 Bft) W-SW 257 ° 1 min 0,000 mm 7,2 UV-I 916 W/m² 14,7 °C 22,6 °C 11,3 km/h (2 Bft)
16.07.2018 13:10 22,6 °C 58 % 1010,8 hPa 0,0 mm 4,0 km/h (1 Bft) NW 312 ° 1 min 0,000 mm 7,2 UV-I 925 W/m² 13,9 °C 22,6 °C 8,0 km/h (2 Bft)
16.07.2018 13:11 22,6 °C 62 % 1010,8 hPa 0,0 mm 4,4 km/h (1 Bft) N 360 ° 1 min 0,000 mm 7,2 UV-I 925 W/m² 14,9 °C 22,6 °C 6,4 km/h (2 Bft)
16.07.2018 13:12 22,7 °C 62 % 1010,7 hPa 0,0 mm 3,6 km/h (1 Bft) NW 313 ° 0 min 0,000 mm 3,1 UV-I 111 W/m² 15,0 °C 22,7 °C 6,4 km/h (2 Bft)
16.07.2018 13:13 22,7 °C 61 % 1010,8 hPa 0,0 mm 4,1 km/h (1 Bft) N-NW 329 ° 1 min 0,000 mm 7,2 UV-I 951 W/m² 14,8 °C 22,7 °C 8,0 km/h (2 Bft)
16.07.2018 13:14 22,7 °C 57 % 1010,8 hPa 0,0 mm 6,8 km/h (2 Bft) NW 317 ° 1 min 0,000 mm 7,3 UV-I 940 W/m² 13,7 °C 22,7 °C 12,9 km/h (3 Bft)
16.07.2018 13:15 22,8 °C 63 % 1010,7 hPa 0,0 mm 7,0 km/h (2 Bft) N-NW 329 ° 1 min 0,000 mm 7,3 UV-I 939 W/m² 15,4 °C 22,8 °C 12,9 km/h (3 Bft)
16.07.2018 13:16 22,9 °C 58 % 1010,7 hPa 0,0 mm 3,9 km/h (1 Bft) NW 304 ° 1 min 0,000 mm 7,4 UV-I 940 W/m² 14,2 °C 22,9 °C 6,4 km/h (2 Bft)
16.07.2018 13:17 22,9 °C 58 % 1010,8 hPa 0,0 mm 5,5 km/h (1 Bft) NW 319 ° 1 min 0,000 mm 7,4 UV-I 935 W/m² 14,2 °C 22,9 °C 6,4 km/h (2 Bft)
16.07.2018 13:18 22,9 °C 56 % 1010,8 hPa 0,0 mm 6,4 km/h (2 Bft) W 276 ° 1 min 0,000 mm 7,3 UV-I 928 W/m² 13,6 °C 22,9 °C 12,9 km/h (3 Bft)
16.07.2018 13:19 22,9 °C 55 % 1010,7 hPa 0,0 mm 6,1 km/h (2 Bft) W-SW 258 ° 1 min 0,000 mm 7,2 UV-I 872 W/m² 13,4 °C 22,9 °C 11,3 km/h (2 Bft)
16.07.2018 13:20 23,0 °C 58 % 1010,7 hPa 0,0 mm 5,2 km/h (1 Bft) NW 306 ° 1 min 0,000 mm 7,4 UV-I 926 W/m² 14,3 °C 23,0 °C 9,7 km/h (2 Bft)
16.07.2018 13:21 23,1 °C 60 % 1010,7 hPa 0,0 mm 1,3 km/h (1 Bft) NW 316 ° 1 min 0,000 mm 7,4 UV-I 930 W/m² 14,9 °C 23,1 °C 3,2 km/h (1 Bft)
16.07.2018 13:22 23,1 °C 57 % 1010,7 hPa 0,0 mm 2,2 km/h (1 Bft) NW 316 ° 1 min 0,000 mm 7,4 UV-I 937 W/m² 14,1 °C 23,1 °C 4,8 km/h (1 Bft)
16.07.2018 13:23 23,0 °C 58 % 1010,7 hPa 0,0 mm 4,2 km/h (1 Bft) W-SW 248 ° 1 min 0,000 mm 7,4 UV-I 947 W/m² 14,3 °C 23,0 °C 8,0 km/h (2 Bft)
16.07.2018 13:24 22,9 °C 54 % 1010,6 hPa 0,0 mm 2,1 km/h (1 Bft) W-NW 292 ° 1 min 0,000 mm 7,5 UV-I 958 W/m² 13,1 °C 22,9 °C 4,8 km/h (1 Bft)
16.07.2018 13:25 22,8 °C 54 % 1010,7 hPa 0,0 mm 3,2 km/h (1 Bft) W-NW 300 ° 1 min 0,000 mm 7,5 UV-I 972 W/m² 13,0 °C 22,8 °C 6,4 km/h (2 Bft)
16.07.2018 13:26 22,7 °C 54 % 1010,6 hPa 0,0 mm 2,3 km/h (1 Bft) NW 315 ° 1 min 0,000 mm 7,6 UV-I 983 W/m² 12,9 °C 22,7 °C 4,8 km/h (1 Bft)
16.07.2018 13:27 22,8 °C 58 % 1010,6 hPa 0,0 mm 4,6 km/h (1 Bft) NW 305 ° 1 min 0,000 mm 7,6 UV-I 991 W/m² 14,1 °C 22,8 °C 9,7 km/h (2 Bft)
16.07.2018 13:28 22,9 °C 63 % 1010,6 hPa 0,0 mm 1,8 km/h (1 Bft) NW 305 ° 1 min 0,000 mm 7,5 UV-I 998 W/m² 15,5 °C 22,9 °C 3,2 km/h (1 Bft)
16.07.2018 13:29 23,0 °C 57 % 1010,6 hPa 0,0 mm 3,0 km/h (1 Bft) W-NW 296 ° 1 min 0,000 mm 7,5 UV-I 1007 W/m² 14,0 °C 23,0 °C 4,8 km/h (1 Bft)
16.07.2018 13:30 22,9 °C 56 % 1010,5 hPa 0,0 mm 2,0 km/h (1 Bft) W-NW 296 ° 1 min 0,000 mm 7,4 UV-I 1030 W/m² 13,6 °C 22,9 °C 4,8 km/h (1 Bft)
16.07.2018 13:31 23,2 °C 60 % 1010,5 hPa 0,0 mm 3,7 km/h (1 Bft) W-NW 291 ° 1 min 0,000 mm 7,4 UV-I 1030 W/m² 15,0 °C 23,2 °C 4,8 km/h (1 Bft)
16.07.2018 13:32 23,1 °C 57 % 1010,5 hPa 0,0 mm 6,2 km/h (2 Bft) W 277 ° 0 min 0,000 mm 3,1 UV-I 260 W/m² 14,1 °C 23,1 °C 9,7 km/h (2 Bft)
16.07.2018 13:33 23,0 °C 56 % 1010,5 hPa 0,0 mm 6,5 km/h (2 Bft) NW 304 ° 0 min 0,000 mm 2,9 UV-I 246 W/m² 13,7 °C 23,0 °C 11,3 km/h (2 Bft)
16.07.2018 13:34 22,8 °C 59 % 1010,4 hPa 0,0 mm 10,3 km/h (2 Bft) N 351 ° 0 min 0,000 mm 3,9 UV-I 246 W/m² 14,4 °C 22,8 °C 16,1 km/h (3 Bft)
16.07.2018 13:35 22,7 °C 56 % 1010,5 hPa 0,0 mm 11,3 km/h (2 Bft) W-NW 289 ° 0 min 0,000 mm 5,6 UV-I 246 W/m² 13,5 °C 22,7 °C 17,7 km/h (3 Bft)
16.07.2018 13:36 22,6 °C 58 % 1010,5 hPa 0,0 mm 10,4 km/h (2 Bft) NW 309 ° 0 min 0,000 mm 3,0 UV-I 246 W/m² 13,9 °C 22,6 °C 14,5 km/h (3 Bft)
16.07.2018 13:37 22,5 °C 59 % 1010,5 hPa 0,0 mm 8,4 km/h (2 Bft) NW 308 ° 0 min 0,000 mm 3,1 UV-I 246 W/m² 14,1 °C 22,5 °C 14,5 km/h (3 Bft)
16.07.2018 13:38 22,3 °C 58 % 1010,5 hPa 0,0 mm 6,4 km/h (2 Bft) NW 316 ° 0 min 0,000 mm 2,7 UV-I 246 W/m² 13,6 °C 22,3 °C 9,7 km/h (2 Bft)
16.07.2018 13:39 22,3 °C 60 % 1010,5 hPa 0,0 mm 5,0 km/h (1 Bft) NW 323 ° 0 min 0,000 mm 2,4 UV-I 244 W/m² 14,2 °C 22,3 °C 8,0 km/h (2 Bft)
16.07.2018 13:40 22,2 °C 58 % 1010,5 hPa 0,0 mm 2,5 km/h (1 Bft) N-NW 331 ° 0 min 0,000 mm 2,2 UV-I 207 W/m² 13,5 °C 22,2 °C 4,8 km/h (1 Bft)
16.07.2018 13:41 22,1 °C 59 % 1010,5 hPa 0,0 mm 3,8 km/h (1 Bft) N 355 ° 0 min 0,000 mm 2,1 UV-I 186 W/m² 13,7 °C 22,1 °C 8,0 km/h (2 Bft)
16.07.2018 13:42 21,9 °C 56 % 1010,5 hPa 0,0 mm 0,0 km/h (0 Bft) N 355 ° 0 min 0,000 mm 2,1 UV-I 188 W/m² 12,7 °C 21,9 °C 0,0 km/h (0 Bft)
16.07.2018 13:43 21,7 °C 57 % 1010,4 hPa 0,0 mm 1,3 km/h (1 Bft) N 355 ° 0 min 0,000 mm 2,1 UV-I 193 W/m² 12,8 °C 21,7 °C 3,2 km/h (1 Bft)
16.07.2018 13:44 21,7 °C 57 % 1010,5 hPa 0,0 mm 1,7 km/h (1 Bft) NW 306 ° 0 min 0,000 mm 2,1 UV-I 193 W/m² 12,8 °C 21,7 °C 4,8 km/h (1 Bft)
16.07.2018 13:45 21,6 °C 58 % 1010,4 hPa 0,0 mm 3,8 km/h (1 Bft) NW 305 ° 0 min 0,000 mm 2,1 UV-I 197 W/m² 13,0 °C 21,6 °C 4,8 km/h (1 Bft)
16.07.2018 13:46 21,6 °C 59 % 1010,4 hPa 0,0 mm 5,7 km/h (1 Bft) W 273 ° 0 min 0,000 mm 2,1 UV-I 195 W/m² 13,2 °C 21,6 °C 9,7 km/h (2 Bft)
16.07.2018 13:47 21,6 °C 60 % 1010,4 hPa 0,0 mm 9,6 km/h (2 Bft) W 281 ° 0 min 0,000 mm 2,2 UV-I 207 W/m² 13,5 °C 21,6 °C 12,9 km/h (3 Bft)
16.07.2018 13:48 21,5 °C 58 % 1010,5 hPa 0,0 mm 5,4 km/h (1 Bft) W-NW 286 ° 0 min 0,000 mm 2,4 UV-I 218 W/m² 12,9 °C 21,5 °C 9,7 km/h (2 Bft)
16.07.2018 13:49 21,4 °C 60 % 1010,4 hPa 0,0 mm 4,6 km/h (1 Bft) W-NW 298 ° 0 min 0,000 mm 2,5 UV-I 223 W/m² 13,3 °C 21,4 °C 8,0 km/h (2 Bft)
16.07.2018 13:50 21,4 °C 60 % 1010,4 hPa 0,0 mm 1,9 km/h (1 Bft) W-NW 298 ° 0 min 0,000 mm 5,4 UV-I 290 W/m² 13,3 °C 21,4 °C 3,2 km/h (1 Bft)
16.07.2018 13:51 21,6 °C 64 % 1010,4 hPa 0,0 mm 1,1 km/h (1 Bft) W-NW 298 ° 0 min 0,000 mm 6,9 UV-I 290 W/m² 14,5 °C 21,6 °C 3,2 km/h (1 Bft)
16.07.2018 13:52 21,8 °C 62 % 1010,4 hPa 0,0 mm 1,8 km/h (1 Bft) W-NW 298 ° 1 min 0,000 mm 7,2 UV-I 1069 W/m² 14,2 °C 21,8 °C 4,8 km/h (1 Bft)
16.07.2018 13:53 22,0 °C 61 % 1010,4 hPa 0,0 mm 3,3 km/h (1 Bft) W-NW 299 ° 1 min 0,000 mm 7,3 UV-I 1034 W/m² 14,1 °C 22,0 °C 4,8 km/h (1 Bft)
16.07.2018 13:54 22,3 °C 58 % 1010,4 hPa 0,0 mm 5,7 km/h (1 Bft) NW 315 ° 1 min 0,000 mm 7,3 UV-I 1014 W/m² 13,6 °C 22,3 °C 9,7 km/h (2 Bft)
16.07.2018 13:55 22,4 °C 60 % 1010,4 hPa 0,0 mm 5,2 km/h (1 Bft) W 267 ° 1 min 0,000 mm 7,3 UV-I 993 W/m² 14,2 °C 22,4 °C 9,7 km/h (2 Bft)
16.07.2018 13:56 22,7 °C 60 % 1010,4 hPa 0,0 mm 4,0 km/h (1 Bft) NW 315 ° 1 min 0,000 mm 7,3 UV-I 983 W/m² 14,5 °C 22,7 °C 8,0 km/h (2 Bft)
16.07.2018 13:57 22,9 °C 61 % 1010,4 hPa 0,0 mm 3,6 km/h (1 Bft) W-NW 289 ° 1 min 0,000 mm 7,3 UV-I 976 W/m² 15,0 °C 22,9 °C 6,4 km/h (2 Bft)
16.07.2018 13:58 23,3 °C 60 % 1010,3 hPa 0,0 mm 6,4 km/h (2 Bft) N-NW 328 ° 1 min 0,000 mm 7,3 UV-I 967 W/m² 15,1 °C 23,3 °C 9,7 km/h (2 Bft)
16.07.2018 13:59 23,3 °C 56 % 1010,3 hPa 0,0 mm 5,6 km/h (1 Bft) W-NW 291 ° 1 min 0,000 mm 7,3 UV-I 956 W/m² 14,0 °C 23,3 °C 9,7 km/h (2 Bft)
16.07.2018 14:00 23,2 °C 54 % 1010,3 hPa 0,0 mm 5,7 km/h (1 Bft) NW 318 ° 1 min 0,000 mm 7,3 UV-I 953 W/m² 13,4 °C 23,2 °C 12,9 km/h (3 Bft)
16.07.2018 14:01 23,2 °C 56 % 1010,2 hPa 0,0 mm 4,3 km/h (1 Bft) W-NW 284 ° 1 min 0,458 mm 7,3 UV-I 942 W/m² 13,9 °C 23,2 °C 6,4 km/h (2 Bft)
16.07.2018 14:02 23,1 °C 56 % 1010,3 hPa 0,0 mm 3,1 km/h (1 Bft) NW 311 ° 1 min 0,000 mm 7,3 UV-I 935 W/m² 13,8 °C 23,1 °C 8,0 km/h (2 Bft)
16.07.2018 14:03 23,0 °C 55 % 1010,2 hPa 0,0 mm 3,3 km/h (1 Bft) N 355 ° 1 min 0,000 mm 7,2 UV-I 926 W/m² 13,5 °C 23,0 °C 8,0 km/h (2 Bft)
16.07.2018 14:04 23,1 °C 59 % 1010,2 hPa 0,0 mm 2,5 km/h (1 Bft) N 351 ° 1 min 0,000 mm 7,3 UV-I 925 W/m² 14,6 °C 23,1 °C 4,8 km/h (1 Bft)
16.07.2018 14:05 23,2 °C 57 % 1010,2 hPa 0,0 mm 5,4 km/h (1 Bft) NW 310 ° 1 min 0,000 mm 7,3 UV-I 921 W/m² 14,2 °C 23,2 °C 8,0 km/h (2 Bft)
16.07.2018 14:06 23,2 °C 55 % 1010,1 hPa 0,0 mm 4,2 km/h (1 Bft) W 269 ° 1 min 0,000 mm 7,3 UV-I 925 W/m² 13,6 °C 23,2 °C 6,4 km/h (2 Bft)
16.07.2018 14:07 23,1 °C 53 % 1010,1 hPa 0,0 mm 3,9 km/h (1 Bft) W 269 ° 1 min 0,000 mm 7,3 UV-I 925 W/m² 13,0 °C 23,1 °C 4,8 km/h (1 Bft)
16.07.2018 14:08 22,8 °C 54 % 1010,1 hPa 0,0 mm 3,1 km/h (1 Bft) W 260 ° 1 min 0,000 mm 7,3 UV-I 926 W/m² 13,0 °C 22,8 °C 4,8 km/h (1 Bft)
16.07.2018 14:09 22,8 °C 55 % 1010,1 hPa 0,0 mm 7,2 km/h (2 Bft) W 271 ° 1 min 0,000 mm 7,3 UV-I 925 W/m² 13,3 °C 22,8 °C 12,9 km/h (3 Bft)
16.07.2018 14:10 22,8 °C 53 % 1010,1 hPa 0,0 mm 5,0 km/h (1 Bft) W 265 ° 1 min 0,000 mm 7,3 UV-I 919 W/m² 12,7 °C 22,8 °C 11,3 km/h (2 Bft)
16.07.2018 14:11 22,8 °C 56 % 1010,1 hPa 0,0 mm 5,5 km/h (1 Bft) N-NW 331 ° 1 min 0,000 mm 7,2 UV-I 914 W/m² 13,6 °C 22,8 °C 8,0 km/h (2 Bft)
16.07.2018 14:12 22,8 °C 55 % 1010,1 hPa 0,0 mm 5,8 km/h (2 Bft) N-NO 12 ° 1 min 0,000 mm 7,2 UV-I 916 W/m² 13,3 °C 22,8 °C 12,9 km/h (3 Bft)
16.07.2018 14:13 22,9 °C 55 % 1010,2 hPa 0,0 mm 9,1 km/h (2 Bft) N 360 ° 1 min 0,000 mm 7,2 UV-I 926 W/m² 13,4 °C 22,9 °C 11,3 km/h (2 Bft)
16.07.2018 14:14 22,9 °C 55 % 1010,1 hPa 0,0 mm 6,0 km/h (2 Bft) NO 45 ° 1 min 0,000 mm 7,3 UV-I 951 W/m² 13,4 °C 22,9 °C 12,9 km/h (3 Bft)
16.07.2018 14:15 23,0 °C 55 % 1010,1 hPa 0,0 mm 6,8 km/h (2 Bft) O 80 ° 1 min 0,000 mm 7,4 UV-I 979 W/m² 13,5 °C 23,0 °C 11,3 km/h (2 Bft)
16.07.2018 14:16 23,0 °C 53 % 1010,0 hPa 0,0 mm 5,7 km/h (1 Bft) NO 40 ° 1 min 0,000 mm 7,5 UV-I 1013 W/m² 12,9 °C 23,0 °C 8,0 km/h (2 Bft)
16.07.2018 14:17 22,9 °C 55 % 1010,0 hPa 0,0 mm 3,3 km/h (1 Bft) NO 49 ° 1 min 0,000 mm 6,7 UV-I 1013 W/m² 13,4 °C 22,9 °C 6,4 km/h (2 Bft)
16.07.2018 14:18 22,8 °C 53 % 1010,0 hPa 0,0 mm 5,4 km/h (1 Bft) O-NO 76 ° 1 min 0,000 mm 3,1 UV-I 1013 W/m² 12,7 °C 22,8 °C 8,0 km/h (2 Bft)
16.07.2018 14:19 22,7 °C 53 % 1009,9 hPa 0,0 mm 5,4 km/h (1 Bft) O-NO 76 ° 0 min 0,000 mm 3,1 UV-I 181 W/m² 12,6 °C 22,7 °C 8,0 km/h (2 Bft)
16.07.2018 14:20 22,6 °C 52 % 1009,9 hPa 0,0 mm 2,1 km/h (1 Bft) O-NO 76 ° 0 min 0,000 mm 6,9 UV-I 181 W/m² 12,2 °C 22,6 °C 4,8 km/h (1 Bft)
16.07.2018 14:21 22,3 °C 54 % 1009,9 hPa 0,0 mm 1,1 km/h (1 Bft) O-NO 76 ° 0 min 0,000 mm 7,1 UV-I 181 W/m² 12,5 °C 22,3 °C 3,2 km/h (1 Bft)
16.07.2018 14:22 22,3 °C 55 % 1009,9 hPa 0,0 mm 1,6 km/h (1 Bft) O-NO 76 ° 1 min 0,000 mm 7,1 UV-I 1041 W/m² 12,8 °C 22,3 °C 3,2 km/h (1 Bft)
16.07.2018 14:23 22,4 °C 55 % 1009,9 hPa 0,0 mm 0,8 km/h (0 Bft) O-NO 76 ° 1 min 0,000 mm 7,1 UV-I 998 W/m² 12,9 °C 22,4 °C 3,2 km/h (1 Bft)
16.07.2018 14:24 22,5 °C 55 % 1009,9 hPa 0,0 mm 2,9 km/h (1 Bft) N 360 ° 1 min 0,000 mm 6,5 UV-I 998 W/m² 13,0 °C 22,5 °C 4,8 km/h (1 Bft)
16.07.2018 14:25 22,7 °C 57 % 1009,9 hPa 0,0 mm 4,2 km/h (1 Bft) N 9 ° 1 min 0,000 mm 7,1 UV-I 998 W/m² 13,7 °C 22,7 °C 8,0 km/h (2 Bft)
16.07.2018 14:26 22,8 °C 56 % 1009,9 hPa 0,0 mm 4,8 km/h (1 Bft) N-NW 347 ° 1 min 0,000 mm 7,1 UV-I 937 W/m² 13,6 °C 22,8 °C 9,7 km/h (2 Bft)
16.07.2018 14:27 22,9 °C 58 % 1009,9 hPa 0,0 mm 6,9 km/h (2 Bft) N 5 ° 1 min 0,000 mm 7,1 UV-I 923 W/m² 14,2 °C 22,9 °C 9,7 km/h (2 Bft)
16.07.2018 14:28 23,2 °C 56 % 1009,9 hPa 0,0 mm 6,8 km/h (2 Bft) NW 308 ° 1 min 0,000 mm 7,0 UV-I 911 W/m² 13,9 °C 23,2 °C 9,7 km/h (2 Bft)
16.07.2018 14:29 23,2 °C 55 % 1009,9 hPa 0,0 mm 2,2 km/h (1 Bft) NW 306 ° 1 min 0,000 mm 7,0 UV-I 912 W/m² 13,6 °C 23,2 °C 6,4 km/h (2 Bft)
16.07.2018 14:30 23,2 °C 54 % 1009,8 hPa 0,0 mm 0,2 km/h (0 Bft) NW 306 ° 1 min 0,000 mm 7,0 UV-I 916 W/m² 13,4 °C 23,2 °C 1,6 km/h (1 Bft)
16.07.2018 14:31 23,2 °C 56 % 1009,8 hPa 0,0 mm 1,4 km/h (1 Bft) NW 306 ° 1 min 0,000 mm 7,0 UV-I 918 W/m² 13,9 °C 23,2 °C 3,2 km/h (1 Bft)
16.07.2018 14:32 23,2 °C 56 % 1009,8 hPa 0,0 mm 4,2 km/h (1 Bft) N-NW 327 ° 1 min 0,000 mm 7,0 UV-I 921 W/m² 13,9 °C 23,2 °C 9,7 km/h (2 Bft)
16.07.2018 14:33 23,3 °C 56 % 1009,8 hPa 0,0 mm 8,1 km/h (2 Bft) N-NW 345 ° 1 min 0,000 mm 7,0 UV-I 919 W/m² 14,0 °C 23,3 °C 12,9 km/h (3 Bft)
16.07.2018 14:34 23,3 °C 55 % 1009,8 hPa 0,0 mm 6,1 km/h (2 Bft) NO 35 ° 1 min 0,000 mm 6,9 UV-I 939 W/m² 13,7 °C 23,3 °C 9,7 km/h (2 Bft)
16.07.2018 14:35 23,3 °C 54 % 1009,8 hPa 0,0 mm 2,5 km/h (1 Bft) NO 34 ° 1 min 0,000 mm 3,0 UV-I 939 W/m² 13,5 °C 23,3 °C 4,8 km/h (1 Bft)
16.07.2018 14:36 23,2 °C 55 % 1009,8 hPa 0,0 mm 6,9 km/h (2 Bft) N-NO 30 ° 0 min 0,000 mm 3,0 UV-I 148 W/m² 13,6 °C 23,2 °C 9,7 km/h (2 Bft)
16.07.2018 14:37 23,1 °C 52 % 1009,8 hPa 0,0 mm 1,1 km/h (1 Bft) N-NO 30 ° 0 min 0,000 mm 3,1 UV-I 204 W/m² 12,7 °C 23,1 °C 4,8 km/h (1 Bft)
16.07.2018 14:38 22,9 °C 54 % 1009,8 hPa 0,0 mm 3,9 km/h (1 Bft) W-NW 284 ° 0 min 0,000 mm 3,1 UV-I 183 W/m² 13,1 °C 22,9 °C 8,0 km/h (2 Bft)
16.07.2018 14:39 22,7 °C 52 % 1009,8 hPa 0,0 mm 3,4 km/h (1 Bft) W-NW 284 ° 0 min 0,000 mm 3,3 UV-I 211 W/m² 12,3 °C 22,7 °C 4,8 km/h (1 Bft)
16.07.2018 14:40 22,6 °C 55 % 1009,7 hPa 0,0 mm 4,0 km/h (1 Bft) N-NO 23 ° 0 min 0,000 mm 3,8 UV-I 239 W/m² 13,1 °C 22,6 °C 8,0 km/h (2 Bft)
16.07.2018 14:41 22,6 °C 56 % 1009,8 hPa 0,0 mm 3,9 km/h (1 Bft) N-NO 19 ° 0 min 0,000 mm 3,3 UV-I 239 W/m² 13,4 °C 22,6 °C 6,4 km/h (2 Bft)
16.07.2018 14:42 22,6 °C 54 % 1009,7 hPa 0,0 mm 2,2 km/h (1 Bft) N-NW 327 ° 0 min 0,000 mm 3,0 UV-I 179 W/m² 12,8 °C 22,6 °C 4,8 km/h (1 Bft)
16.07.2018 14:43 22,6 °C 53 % 1009,7 hPa 0,0 mm 0,3 km/h (0 Bft) N-NW 327 ° 0 min 0,000 mm 3,7 UV-I 179 W/m² 12,5 °C 22,6 °C 1,6 km/h (1 Bft)
16.07.2018 14:44 22,5 °C 51 % 1009,6 hPa 0,0 mm 1,7 km/h (1 Bft) S-SW 208 ° 0 min 0,000 mm 3,0 UV-I 179 W/m² 11,8 °C 22,5 °C 4,8 km/h (1 Bft)
16.07.2018 14:45 22,4 °C 52 % 1009,6 hPa 0,0 mm 5,8 km/h (2 Bft) S 179 ° 0 min 0,000 mm 6,5 UV-I 287 W/m² 12,1 °C 22,4 °C 9,7 km/h (2 Bft)
16.07.2018 14:46 22,4 °C 55 % 1009,6 hPa 0,0 mm 7,9 km/h (2 Bft) SO 130 ° 1 min 0,000 mm 6,9 UV-I 1028 W/m² 12,9 °C 22,4 °C 12,9 km/h (3 Bft)
16.07.2018 14:47 22,5 °C 53 % 1009,7 hPa 0,0 mm 10,7 km/h (2 Bft) SO 134 ° 1 min 0,000 mm 7,0 UV-I 1056 W/m² 12,4 °C 22,5 °C 12,9 km/h (3 Bft)
16.07.2018 14:48 22,6 °C 53 % 1009,6 hPa 0,0 mm 5,2 km/h (1 Bft) S-SO 155 ° 1 min 0,000 mm 7,0 UV-I 1076 W/m² 12,5 °C 22,6 °C 12,9 km/h (3 Bft)
16.07.2018 14:49 22,7 °C 54 % 1009,5 hPa 0,0 mm 1,7 km/h (1 Bft) W 260 ° 1 min 0,000 mm 6,9 UV-I 1085 W/m² 12,9 °C 22,7 °C 3,2 km/h (1 Bft)
16.07.2018 14:50 22,8 °C 55 % 1009,5 hPa 0,0 mm 1,5 km/h (1 Bft) NW 319 ° 1 min 0,000 mm 4,4 UV-I 1085 W/m² 13,3 °C 22,8 °C 4,8 km/h (1 Bft)
16.07.2018 14:51 23,1 °C 54 % 1009,5 hPa 0,0 mm 2,6 km/h (1 Bft) NO 53 ° 0 min 0,000 mm 3,4 UV-I 299 W/m² 13,3 °C 23,1 °C 8,0 km/h (2 Bft)
16.07.2018 14:52 23,1 °C 54 % 1009,5 hPa 0,0 mm 5,9 km/h (2 Bft) N-NW 331 ° 0 min 0,000 mm 3,3 UV-I 287 W/m² 13,3 °C 23,1 °C 9,7 km/h (2 Bft)
16.07.2018 14:53 23,1 °C 55 % 1009,5 hPa 0,0 mm 5,7 km/h (1 Bft) NW 313 ° 0 min 0,000 mm 3,2 UV-I 281 W/m² 13,6 °C 23,1 °C 8,0 km/h (2 Bft)
16.07.2018 14:54 23,1 °C 55 % 1009,5 hPa 0,0 mm 7,9 km/h (2 Bft) NW 315 ° 0 min 0,000 mm 3,2 UV-I 276 W/m² 13,6 °C 23,1 °C 11,3 km/h (2 Bft)
16.07.2018 14:55 22,9 °C 56 % 1009,5 hPa 0,0 mm 5,3 km/h (1 Bft) NW 309 ° 0 min 0,000 mm 3,4 UV-I 281 W/m² 13,6 °C 22,9 °C 9,7 km/h (2 Bft)
16.07.2018 14:56 22,9 °C 57 % 1009,5 hPa 0,0 mm 5,8 km/h (2 Bft) N-NO 25 ° 0 min 0,000 mm 6,8 UV-I 281 W/m² 13,9 °C 22,9 °C 14,5 km/h (3 Bft)
16.07.2018 14:57 22,9 °C 55 % 1009,5 hPa 0,0 mm 5,0 km/h (1 Bft) N-NO 23 ° 0 min 0,000 mm 3,1 UV-I 371 W/m² 13,4 °C 22,9 °C 9,7 km/h (2 Bft)
16.07.2018 14:58 22,9 °C 55 % 1009,5 hPa 0,0 mm 2,5 km/h (1 Bft) N 5 ° 0 min 0,000 mm 4,5 UV-I 371 W/m² 13,4 °C 22,9 °C 6,4 km/h (2 Bft)
16.07.2018 14:59 22,8 °C 54 % 1009,5 hPa 0,0 mm 3,6 km/h (1 Bft) N-NO 19 ° 0 min 0,000 mm 2,8 UV-I 209 W/m² 13,0 °C 22,8 °C 4,8 km/h (1 Bft)
16.07.2018 15:00 22,8 °C 54 % 1009,4 hPa 0,0 mm 1,5 km/h (1 Bft) N-NO 18 ° 0 min 0,000 mm 4,0 UV-I 209 W/m² 13,0 °C 22,8 °C 4,8 km/h (1 Bft)
16.07.2018 15:01 22,9 °C 57 % 1009,4 hPa 0,0 mm 3,3 km/h (1 Bft) N-NO 19 ° 0 min 0,457 mm 6,8 UV-I 209 W/m² 13,9 °C 22,9 °C 4,8 km/h (1 Bft)
16.07.2018 15:02 23,1 °C 55 % 1009,4 hPa 0,0 mm 3,6 km/h (1 Bft) N-NO 19 ° 1 min 0,000 mm 6,8 UV-I 1063 W/m² 13,6 °C 23,1 °C 4,8 km/h (1 Bft)
16.07.2018 15:03 23,2 °C 51 % 1009,4 hPa 0,0 mm 6,6 km/h (2 Bft) N 10 ° 1 min 0,000 mm 5,1 UV-I 1063 W/m² 12,5 °C 23,2 °C 8,0 km/h (2 Bft)
16.07.2018 15:04 23,2 °C 54 % 1009,4 hPa 0,0 mm 9,1 km/h (2 Bft) N-NW 333 ° 0 min 0,000 mm 4,2 UV-I 403 W/m² 13,4 °C 23,2 °C 12,9 km/h (3 Bft)
16.07.2018 15:05 23,2 °C 56 % 1009,4 hPa 0,0 mm 4,8 km/h (1 Bft) N 10 ° 0 min 0,000 mm 3,1 UV-I 403 W/m² 13,9 °C 23,2 °C 8,0 km/h (2 Bft)
16.07.2018 15:06 23,1 °C 55 % 1009,4 hPa 0,0 mm 8,0 km/h (2 Bft) N-NW 336 ° 0 min 0,000 mm 3,0 UV-I 258 W/m² 13,6 °C 23,1 °C 12,9 km/h (3 Bft)
16.07.2018 15:07 23,0 °C 58 % 1009,4 hPa 0,0 mm 8,4 km/h (2 Bft) NO 40 ° 0 min 0,000 mm 5,7 UV-I 258 W/m² 14,3 °C 23,0 °C 16,1 km/h (3 Bft)
16.07.2018 15:08 22,9 °C 59 % 1009,4 hPa 0,0 mm 8,9 km/h (2 Bft) N-NO 17 ° 0 min 0,000 mm 6,3 UV-I 258 W/m² 14,5 °C 22,9 °C 14,5 km/h (3 Bft)
16.07.2018 15:09 22,8 °C 59 % 1009,4 hPa 0,0 mm 9,7 km/h (2 Bft) O-SO 103 ° 1 min 0,000 mm 6,7 UV-I 1051 W/m² 14,4 °C 22,8 °C 14,5 km/h (3 Bft)
16.07.2018 15:10 22,8 °C 61 % 1009,3 hPa 0,0 mm 10,1 km/h (2 Bft) N 349 ° 1 min 0,000 mm 6,8 UV-I 1016 W/m² 14,9 °C 22,8 °C 16,1 km/h (3 Bft)
16.07.2018 15:11 22,9 °C 62 % 1009,3 hPa 0,0 mm 7,0 km/h (2 Bft) N-NW 347 ° 1 min 0,000 mm 6,8 UV-I 1021 W/m² 15,2 °C 22,9 °C 9,7 km/h (2 Bft)
16.07.2018 15:12 23,0 °C 62 % 1009,3 hPa 0,0 mm 7,0 km/h (2 Bft) N-NW 346 ° 1 min 0,000 mm 5,5 UV-I 1021 W/m² 15,3 °C 23,0 °C 12,9 km/h (3 Bft)
16.07.2018 15:13 23,1 °C 63 % 1009,3 hPa 0,0 mm 6,8 km/h (2 Bft) N-NO 18 ° 1 min 0,000 mm 6,4 UV-I 1021 W/m² 15,7 °C 23,1 °C 11,3 km/h (2 Bft)
16.07.2018 15:14 23,1 °C 57 % 1009,4 hPa 0,0 mm 5,1 km/h (1 Bft) NO 39 ° 1 min 0,000 mm 6,4 UV-I 993 W/m² 14,1 °C 23,1 °C 9,7 km/h (2 Bft)
16.07.2018 15:15 23,2 °C 62 % 1009,4 hPa 0,0 mm 2,4 km/h (1 Bft) N-NO 19 ° 1 min 0,000 mm 3,2 UV-I 993 W/m² 15,5 °C 23,2 °C 4,8 km/h (1 Bft)
16.07.2018 15:16 23,1 °C 59 % 1009,3 hPa 0,0 mm 3,6 km/h (1 Bft) N 5 ° 0 min 0,000 mm 2,8 UV-I 225 W/m² 14,6 °C 23,1 °C 6,4 km/h (2 Bft)
16.07.2018 15:17 23,0 °C 61 % 1009,3 hPa 0,0 mm 4,6 km/h (1 Bft) N 5 ° 0 min 0,000 mm 2,8 UV-I 225 W/m² 15,1 °C 23,0 °C 9,7 km/h (2 Bft)
16.07.2018 15:18 23,0 °C 59 % 1009,3 hPa 0,0 mm 7,4 km/h (2 Bft) N 355 ° 0 min 0,000 mm 3,0 UV-I 236 W/m² 14,5 °C 23,0 °C 14,5 km/h (3 Bft)
16.07.2018 15:19 22,9 °C 58 % 1009,3 hPa 0,0 mm 11,5 km/h (2 Bft) N-NW 327 ° 0 min 0,000 mm 3,0 UV-I 265 W/m² 14,2 °C 22,9 °C 17,7 km/h (3 Bft)
16.07.2018 15:20 22,7 °C 58 % 1009,2 hPa 0,0 mm 13,2 km/h (3 Bft) N-NO 13 ° 0 min 0,000 mm 3,0 UV-I 236 W/m² 14,0 °C 22,7 °C 19,3 km/h (3 Bft)
16.07.2018 15:21 22,6 °C 60 % 1009,3 hPa 0,0 mm 9,2 km/h (2 Bft) N-NO 15 ° 0 min 0,000 mm 5,4 UV-I 285 W/m² 14,4 °C 22,6 °C 12,9 km/h (3 Bft)
16.07.2018 15:22 22,6 °C 61 % 1009,3 hPa 0,0 mm 6,9 km/h (2 Bft) N 355 ° 1 min 0,000 mm 6,2 UV-I 944 W/m² 14,7 °C 22,6 °C 11,3 km/h (2 Bft)
16.07.2018 15:23 22,7 °C 61 % 1009,3 hPa 0,0 mm 5,6 km/h (1 Bft) O-NO 62 ° 1 min 0,000 mm 6,2 UV-I 933 W/m² 14,8 °C 22,7 °C 8,0 km/h (2 Bft)
16.07.2018 15:24 22,8 °C 60 % 1009,4 hPa 0,0 mm 4,6 km/h (1 Bft) NO 37 ° 1 min 0,000 mm 6,2 UV-I 918 W/m² 14,6 °C 22,8 °C 8,0 km/h (2 Bft)
16.07.2018 15:25 22,9 °C 60 % 1009,4 hPa 0,0 mm 5,0 km/h (1 Bft) N-NO 17 ° 1 min 0,000 mm 6,2 UV-I 912 W/m² 14,7 °C 22,9 °C 6,4 km/h (2 Bft)
16.07.2018 15:26 23,2 °C 61 % 1009,4 hPa 0,0 mm 5,6 km/h (1 Bft) N 355 ° 1 min 0,000 mm 6,1 UV-I 905 W/m² 15,3 °C 23,2 °C 9,7 km/h (2 Bft)
16.07.2018 15:27 23,2 °C 57 % 1009,4 hPa 0,0 mm 4,4 km/h (1 Bft) N-NW 336 ° 1 min 0,000 mm 6,0 UV-I 898 W/m² 14,2 °C 23,2 °C 8,0 km/h (2 Bft)
16.07.2018 15:28 23,3 °C 57 % 1009,4 hPa 0,0 mm 4,2 km/h (1 Bft) N-NW 346 ° 1 min 0,000 mm 2,5 UV-I 898 W/m² 14,3 °C 23,3 °C 9,7 km/h (2 Bft)
16.07.2018 15:29 23,2 °C 58 % 1009,4 hPa 0,0 mm 2,3 km/h (1 Bft) O-NO 59 ° 0 min 0,000 mm 2,3 UV-I 146 W/m² 14,5 °C 23,2 °C 14,5 km/h (3 Bft)
16.07.2018 15:30 23,1 °C 59 % 1009,4 hPa 0,0 mm 8,0 km/h (2 Bft) N 355 ° 0 min 0,000 mm 2,2 UV-I 149 W/m² 14,6 °C 23,1 °C 9,7 km/h (2 Bft)
16.07.2018 15:31 22,9 °C 57 % 1009,3 hPa 0,0 mm 4,7 km/h (1 Bft) O 82 ° 0 min 0,000 mm 2,1 UV-I 146 W/m² 13,9 °C 22,9 °C 6,4 km/h (2 Bft)
16.07.2018 15:32 22,7 °C 59 % 1009,4 hPa 0,0 mm 1,3 km/h (1 Bft) O 86 ° 0 min 0,000 mm 2,0 UV-I 155 W/m² 14,3 °C 22,7 °C 3,2 km/h (1 Bft)
16.07.2018 15:33 22,4 °C 56 % 1009,3 hPa 0,0 mm 2,3 km/h (1 Bft) O 88 ° 0 min 0,000 mm 2,0 UV-I 181 W/m² 13,2 °C 22,4 °C 4,8 km/h (1 Bft)
16.07.2018 15:34 22,3 °C 58 % 1009,4 hPa 0,0 mm 1,5 km/h (1 Bft) O 88 ° 0 min 0,000 mm 2,3 UV-I 213 W/m² 13,6 °C 22,3 °C 3,2 km/h (1 Bft)
16.07.2018 15:35 22,2 °C 59 % 1009,4 hPa 0,0 mm 4,1 km/h (1 Bft) N-NO 13 ° 0 min 0,000 mm 2,7 UV-I 267 W/m² 13,8 °C 22,2 °C 6,4 km/h (2 Bft)
16.07.2018 15:36 22,2 °C 57 % 1009,4 hPa 0,0 mm 2,4 km/h (1 Bft) N 355 ° 0 min 0,000 mm 2,7 UV-I 267 W/m² 13,3 °C 22,2 °C 4,8 km/h (1 Bft)
16.07.2018 15:37 22,3 °C 59 % 1009,4 hPa 0,0 mm 1,7 km/h (1 Bft) N 355 ° 1 min 0,000 mm 5,8 UV-I 963 W/m² 13,9 °C 22,3 °C 3,2 km/h (1 Bft)
16.07.2018 15:38 22,4 °C 57 % 1009,4 hPa 0,0 mm 1,5 km/h (1 Bft) N 355 ° 1 min 0,000 mm 4,9 UV-I 963 W/m² 13,5 °C 22,4 °C 3,2 km/h (1 Bft)
16.07.2018 15:39 22,6 °C 58 % 1009,4 hPa 0,0 mm 0,7 km/h (0 Bft) N 355 ° 1 min 0,000 mm 5,8 UV-I 946 W/m² 13,9 °C 22,6 °C 1,6 km/h (1 Bft)
16.07.2018 15:40 22,7 °C 59 % 1009,4 hPa 0,0 mm 0,5 km/h (0 Bft) N 360 ° 1 min 0,000 mm 3,1 UV-I 946 W/m² 14,3 °C 22,7 °C 3,2 km/h (1 Bft)
16.07.2018 15:41 22,7 °C 60 % 1009,4 hPa 0,0 mm 3,6 km/h (1 Bft) N-NW 336 ° 0 min 0,000 mm 3,4 UV-I 350 W/m² 14,5 °C 22,7 °C 4,8 km/h (1 Bft)
16.07.2018 15:42 22,7 °C 57 % 1009,4 hPa 0,0 mm 4,4 km/h (1 Bft) NW 325 ° 0 min 0,000 mm 3,2 UV-I 350 W/m² 13,7 °C 22,7 °C 9,7 km/h (2 Bft)
16.07.2018 15:43 22,6 °C 59 % 1009,3 hPa 0,0 mm 8,3 km/h (2 Bft) N-NW 338 ° 0 min 0,000 mm 3,0 UV-I 350 W/m² 14,2 °C 22,6 °C 12,9 km/h (3 Bft)
16.07.2018 15:44 22,6 °C 59 % 1009,4 hPa 0,0 mm 9,9 km/h (2 Bft) N-NW 345 ° 0 min 0,000 mm 5,9 UV-I 350 W/m² 14,2 °C 22,6 °C 14,5 km/h (3 Bft)
16.07.2018 15:45 22,6 °C 56 % 1009,4 hPa 0,0 mm 5,9 km/h (2 Bft) NW 318 ° 1 min 0,000 mm 3,7 UV-I 947 W/m² 13,4 °C 22,6 °C 8,0 km/h (2 Bft)
16.07.2018 15:46 22,8 °C 58 % 1009,4 hPa 0,0 mm 4,6 km/h (1 Bft) N-NO 17 ° 1 min 0,000 mm 5,7 UV-I 932 W/m² 14,1 °C 22,8 °C 8,0 km/h (2 Bft)
16.07.2018 15:47 23,0 °C 59 % 1009,4 hPa 0,0 mm 1,8 km/h (1 Bft) N-NO 27 ° 1 min 0,000 mm 5,7 UV-I 916 W/m² 14,5 °C 23,0 °C 4,8 km/h (1 Bft)
16.07.2018 15:48 23,2 °C 58 % 1009,3 hPa 0,0 mm 3,4 km/h (1 Bft) N 360 ° 1 min 0,000 mm 3,0 UV-I 916 W/m² 14,5 °C 23,2 °C 4,8 km/h (1 Bft)
16.07.2018 15:49 23,4 °C 59 % 1009,4 hPa 0,0 mm 5,2 km/h (1 Bft) N-NO 18 ° 1 min 0,000 mm 4,1 UV-I 916 W/m² 14,9 °C 23,4 °C 9,7 km/h (2 Bft)
16.07.2018 15:50 23,4 °C 58 % 1009,4 hPa 0,0 mm 0,4 km/h (0 Bft) N-NO 18 ° 1 min 0,000 mm 4,0 UV-I 916 W/m² 14,7 °C 23,4 °C 1,6 km/h (1 Bft)
16.07.2018 15:51 23,3 °C 58 % 1009,4 hPa 0,0 mm 5,3 km/h (1 Bft) NO 55 ° 0 min 0,000 mm 2,5 UV-I 278 W/m² 14,6 °C 23,3 °C 8,0 km/h (2 Bft)
16.07.2018 15:52 23,1 °C 58 % 1009,4 hPa 0,0 mm 3,1 km/h (1 Bft) O 88 ° 0 min 0,000 mm 2,5 UV-I 251 W/m² 14,4 °C 23,1 °C 6,4 km/h (2 Bft)
16.07.2018 15:53 22,9 °C 59 % 1009,5 hPa 0,0 mm 1,9 km/h (1 Bft) N 355 ° 0 min 0,000 mm 2,2 UV-I 225 W/m² 14,5 °C 22,9 °C 3,2 km/h (1 Bft)
16.07.2018 15:54 22,8 °C 63 % 1009,5 hPa 0,0 mm 3,4 km/h (1 Bft) N-NW 330 ° 0 min 0,000 mm 2,9 UV-I 225 W/m² 15,4 °C 22,8 °C 6,4 km/h (2 Bft)
16.07.2018 15:55 22,8 °C 60 % 1009,5 hPa 0,0 mm 3,8 km/h (1 Bft) N 355 ° 0 min 0,000 mm 2,3 UV-I 225 W/m² 14,6 °C 22,8 °C 6,4 km/h (2 Bft)
16.07.2018 15:56 22,8 °C 57 % 1009,5 hPa 0,0 mm 2,7 km/h (1 Bft) N-NW 329 ° 0 min 0,000 mm 2,3 UV-I 216 W/m² 13,8 °C 22,8 °C 4,8 km/h (1 Bft)
16.07.2018 15:57 22,7 °C 56 % 1009,5 hPa 0,0 mm 0,2 km/h (0 Bft) N-NW 329 ° 0 min 0,000 mm 2,4 UV-I 216 W/m² 13,5 °C 22,7 °C 1,6 km/h (1 Bft)
16.07.2018 15:58 22,6 °C 57 % 1009,5 hPa 0,0 mm 1,1 km/h (1 Bft) N-NW 330 ° 0 min 0,000 mm 2,3 UV-I 216 W/m² 13,6 °C 22,6 °C 3,2 km/h (1 Bft)
16.07.2018 15:59 22,5 °C 60 % 1009,4 hPa 0,0 mm 3,0 km/h (1 Bft) N-NW 328 ° 0 min 0,000 mm 2,4 UV-I 211 W/m² 14,3 °C 22,5 °C 4,8 km/h (1 Bft)
16.07.2018 16:00 22,5 °C 59 % 1009,5 hPa 0,0 mm 3,2 km/h (1 Bft) NO 37 ° 0 min 0,355 mm 3,6 UV-I 211 W/m² 14,1 °C 22,5 °C 8,0 km/h (2 Bft)
16.07.2018 16:01 22,4 °C 58 % 1009,5 hPa 0,0 mm 0,7 km/h (0 Bft) NO 38 ° 0 min 0,000 mm 3,6 UV-I 211 W/m² 13,7 °C 22,4 °C 1,6 km/h (1 Bft)
16.07.2018 16:02 22,6 °C 61 % 1009,5 hPa 0,0 mm 3,3 km/h (1 Bft) NO 52 ° 0 min 0,000 mm 2,6 UV-I 506 W/m² 14,7 °C 22,6 °C 6,4 km/h (2 Bft)
16.07.2018 16:03 22,6 °C 62 % 1009,5 hPa 0,0 mm 4,2 km/h (1 Bft) N 355 ° 0 min 0,000 mm 2,5 UV-I 506 W/m² 14,9 °C 22,6 °C 9,7 km/h (2 Bft)
16.07.2018 16:04 22,7 °C 61 % 1009,6 hPa 0,0 mm 7,7 km/h (2 Bft) N 360 ° 0 min 0,000 mm 2,4 UV-I 204 W/m² 14,8 °C 22,7 °C 12,9 km/h (3 Bft)
16.07.2018 16:05 22,7 °C 62 % 1009,5 hPa 0,0 mm 3,4 km/h (1 Bft) NO 42 ° 0 min 0,000 mm 2,2 UV-I 195 W/m² 15,0 °C 22,7 °C 6,4 km/h (2 Bft)
16.07.2018 16:06 22,6 °C 59 % 1009,6 hPa 0,0 mm 2,8 km/h (1 Bft) NO 38 ° 0 min 0,000 mm 2,1 UV-I 172 W/m² 14,2 °C 22,6 °C 4,8 km/h (1 Bft)
16.07.2018 16:07 22,4 °C 60 % 1009,5 hPa 0,0 mm 1,5 km/h (1 Bft) NO 38 ° 0 min 0,000 mm 1,9 UV-I 158 W/m² 14,2 °C 22,4 °C 3,2 km/h (1 Bft)
16.07.2018 16:08 22,3 °C 59 % 1009,5 hPa 0,0 mm 0,4 km/h (0 Bft) NO 38 ° 0 min 0,000 mm 1,7 UV-I 128 W/m² 13,9 °C 22,3 °C 1,6 km/h (1 Bft)
16.07.2018 16:09 22,3 °C 59 % 1009,5 hPa 0,0 mm 3,6 km/h (1 Bft) O-NO 71 ° 0 min 0,000 mm 1,6 UV-I 130 W/m² 13,9 °C 22,3 °C 6,4 km/h (2 Bft)
16.07.2018 16:10 22,1 °C 59 % 1009,6 hPa 0,0 mm 4,9 km/h (1 Bft) NO 45 ° 0 min 0,000 mm 1,6 UV-I 137 W/m² 13,7 °C 22,1 °C 6,4 km/h (2 Bft)
16.07.2018 16:11 22,0 °C 60 % 1009,5 hPa 0,0 mm 3,7 km/h (1 Bft) NO 55 ° 0 min 0,000 mm 1,7 UV-I 153 W/m² 13,9 °C 22,0 °C 6,4 km/h (2 Bft)
16.07.2018 16:12 22,0 °C 61 % 1009,6 hPa 0,0 mm 4,6 km/h (1 Bft) O 84 ° 0 min 0,000 mm 1,7 UV-I 160 W/m² 14,1 °C 22,0 °C 6,4 km/h (2 Bft)
16.07.2018 16:13 21,9 °C 62 % 1009,6 hPa 0,0 mm 2,3 km/h (1 Bft) O 84 ° 0 min 0,000 mm 1,6 UV-I 158 W/m² 14,3 °C 21,9 °C 4,8 km/h (1 Bft)
16.07.2018 16:14 21,8 °C 61 % 1009,5 hPa 0,0 mm 3,4 km/h (1 Bft) S 187 ° 0 min 0,000 mm 3,3 UV-I 165 W/m² 13,9 °C 21,8 °C 4,8 km/h (1 Bft)
16.07.2018 16:15 21,7 °C 62 % 1009,5 hPa 0,0 mm 3,0 km/h (1 Bft) NO 46 ° 0 min 0,000 mm 1,6 UV-I 165 W/m² 14,1 °C 21,7 °C 6,4 km/h (2 Bft)
16.07.2018 16:16 21,7 °C 65 % 1009,5 hPa 0,0 mm 4,2 km/h (1 Bft) O 92 ° 0 min 0,000 mm 1,5 UV-I 171 W/m² 14,8 °C 21,7 °C 6,4 km/h (2 Bft)
16.07.2018 16:17 21,7 °C 63 % 1009,5 hPa 0,0 mm 2,8 km/h (1 Bft) NO 52 ° 0 min 0,000 mm 1,5 UV-I 172 W/m² 14,3 °C 21,7 °C 6,4 km/h (2 Bft)
16.07.2018 16:18 21,7 °C 62 % 1009,6 hPa 0,0 mm 5,4 km/h (1 Bft) N-NO 25 ° 0 min 0,000 mm 1,3 UV-I 156 W/m² 14,1 °C 21,7 °C 8,0 km/h (2 Bft)
16.07.2018 16:19 21,7 °C 61 % 1009,8 hPa 0,0 mm 6,7 km/h (2 Bft) NW 322 ° 0 min 0,000 mm 1,0 UV-I 127 W/m² 13,8 °C 21,7 °C 9,7 km/h (2 Bft)
16.07.2018 16:20 21,7 °C 63 % 1009,9 hPa 0,0 mm 5,7 km/h (1 Bft) N-NW 329 ° 0 min 0,000 mm 0,8 UV-I 79 W/m² 14,3 °C 21,7 °C 12,9 km/h (3 Bft)
16.07.2018 16:21 21,6 °C 64 % 1009,9 hPa 0,0 mm 11,9 km/h (2 Bft) NW 311 ° 0 min 0,000 mm 0,6 UV-I 69 W/m² 14,5 °C 21,6 °C 19,3 km/h (3 Bft)
16.07.2018 16:22 21,4 °C 64 % 1009,8 hPa 0,0 mm 12,9 km/h (3 Bft) NW 319 ° 0 min 0,000 mm 0,6 UV-I 60 W/m² 14,3 °C 21,4 °C 19,3 km/h (3 Bft)
16.07.2018 16:23 21,2 °C 66 % 1009,8 hPa 0,0 mm 4,1 km/h (1 Bft) N-NW 329 ° 0 min 0,000 mm 0,7 UV-I 62 W/m² 14,6 °C 21,2 °C 9,7 km/h (2 Bft)
16.07.2018 16:24 20,9 °C 67 % 1009,7 hPa 0,0 mm 2,5 km/h (1 Bft) NW 323 ° 0 min 0,000 mm 0,8 UV-I 69 W/m² 14,5 °C 20,9 °C 6,4 km/h (2 Bft)
16.07.2018 16:25 20,8 °C 67 % 1009,6 hPa 0,0 mm 2,3 km/h (1 Bft) N 9 ° 0 min 0,000 mm 0,9 UV-I 90 W/m² 14,4 °C 20,8 °C 4,8 km/h (1 Bft)
16.07.2018 16:26 20,6 °C 68 % 1009,6 hPa 0,0 mm 2,5 km/h (1 Bft) O-NO 60 ° 0 min 0,000 mm 1,1 UV-I 100 W/m² 14,5 °C 20,6 °C 6,4 km/h (2 Bft)
16.07.2018 16:27 20,4 °C 68 % 1009,5 hPa 0,0 mm 6,2 km/h (2 Bft) O-NO 69 ° 0 min 0,000 mm 1,2 UV-I 100 W/m² 14,3 °C 20,4 °C 11,3 km/h (2 Bft)
16.07.2018 16:28 20,3 °C 69 % 1009,5 hPa 0,0 mm 3,8 km/h (1 Bft) N 350 ° 0 min 0,000 mm 1,1 UV-I 97 W/m² 14,4 °C 20,3 °C 8,0 km/h (2 Bft)
16.07.2018 16:29 20,2 °C 69 % 1009,6 hPa 0,0 mm 11,3 km/h (2 Bft) N-NO 30 ° 0 min 0,000 mm 1,1 UV-I 97 W/m² 14,3 °C 20,2 °C 16,1 km/h (3 Bft)
16.07.2018 16:30 20,1 °C 70 % 1009,6 hPa 0,0 mm 5,9 km/h (2 Bft) N 350 ° 0 min 0,000 mm 1,2 UV-I 100 W/m² 14,5 °C 20,1 °C 12,9 km/h (3 Bft)
16.07.2018 16:31 20,1 °C 70 % 1009,6 hPa 0,0 mm 2,3 km/h (1 Bft) N 5 ° 0 min 0,000 mm 1,2 UV-I 105 W/m² 14,5 °C 20,1 °C 4,8 km/h (1 Bft)
16.07.2018 16:32 20,0 °C 71 % 1009,6 hPa 0,0 mm 0,8 km/h (0 Bft) N 5 ° 0 min 0,000 mm 1,3 UV-I 107 W/m² 14,6 °C 20,0 °C 3,2 km/h (1 Bft)
16.07.2018 16:33 20,0 °C 71 % 1009,7 hPa 0,0 mm 2,3 km/h (1 Bft) N-NW 337 ° 0 min 0,000 mm 1,3 UV-I 102 W/m² 14,6 °C 20,0 °C 4,8 km/h (1 Bft)
16.07.2018 16:34 20,1 °C 72 % 1009,8 hPa 0,0 mm 2,8 km/h (1 Bft) N-NO 24 ° 0 min 0,000 mm 1,3 UV-I 102 W/m² 14,9 °C 20,1 °C 8,0 km/h (2 Bft)
16.07.2018 16:35 20,1 °C 70 % 1009,8 hPa 0,0 mm 12,2 km/h (2 Bft) N-NW 336 ° 0 min 0,000 mm 1,4 UV-I 116 W/m² 14,5 °C 20,1 °C 16,1 km/h (3 Bft)
16.07.2018 16:36 20,2 °C 70 % 1009,8 hPa 0,0 mm 6,0 km/h (2 Bft) N-NO 29 ° 0 min 0,000 mm 1,5 UV-I 125 W/m² 14,5 °C 20,2 °C 12,9 km/h (3 Bft)
16.07.2018 16:37 20,4 °C 70 % 1009,7 hPa 0,0 mm 7,8 km/h (2 Bft) W-NW 291 ° 0 min 0,000 mm 1,7 UV-I 153 W/m² 14,7 °C 20,4 °C 16,1 km/h (3 Bft)
16.07.2018 16:38 20,4 °C 70 % 1009,8 hPa 0,0 mm 12,2 km/h (2 Bft) N 350 ° 0 min 0,000 mm 1,9 UV-I 165 W/m² 14,7 °C 20,4 °C 20,9 km/h (4 Bft)
16.07.2018 16:39 20,6 °C 68 % 1009,7 hPa 0,0 mm 14,5 km/h (3 Bft) NW 320 ° 0 min 0,000 mm 2,0 UV-I 179 W/m² 14,5 °C 20,6 °C 19,3 km/h (3 Bft)
16.07.2018 16:40 20,7 °C 69 % 1009,7 hPa 0,0 mm 12,6 km/h (3 Bft) NW 313 ° 0 min 0,000 mm 2,1 UV-I 192 W/m² 14,8 °C 20,7 °C 17,7 km/h (3 Bft)
16.07.2018 16:41 20,8 °C 68 % 1009,7 hPa 0,0 mm 14,2 km/h (3 Bft) N-NW 337 ° 0 min 0,000 mm 2,2 UV-I 202 W/m² 14,7 °C 20,8 °C 19,3 km/h (3 Bft)
16.07.2018 16:42 20,9 °C 68 % 1009,7 hPa 0,0 mm 11,4 km/h (2 Bft) N-NW 336 ° 0 min 0,000 mm 2,3 UV-I 209 W/m² 14,8 °C 20,9 °C 16,1 km/h (3 Bft)
16.07.2018 16:43 21,1 °C 68 % 1009,7 hPa 0,0 mm 13,3 km/h (3 Bft) N-NW 333 ° 0 min 0,000 mm 2,4 UV-I 232 W/m² 15,0 °C 21,1 °C 19,3 km/h (3 Bft)
16.07.2018 16:44 21,2 °C 66 % 1009,7 hPa 0,0 mm 6,0 km/h (2 Bft) NW 321 ° 0 min 0,000 mm 2,5 UV-I 239 W/m² 14,6 °C 21,2 °C 9,7 km/h (2 Bft)
16.07.2018 16:45 21,2 °C 66 % 1009,7 hPa 0,0 mm 5,1 km/h (1 Bft) N-NO 32 ° 0 min 0,000 mm 2,6 UV-I 250 W/m² 14,6 °C 21,2 °C 9,7 km/h (2 Bft)
16.07.2018 16:46 21,2 °C 66 % 1009,6 hPa 0,0 mm 8,6 km/h (2 Bft) NW 325 ° 0 min 0,000 mm 2,6 UV-I 257 W/m² 14,6 °C 21,2 °C 12,9 km/h (3 Bft)
16.07.2018 16:47 21,2 °C 67 % 1009,6 hPa 0,0 mm 9,7 km/h (2 Bft) W-NW 288 ° 0 min 0,000 mm 2,7 UV-I 258 W/m² 14,8 °C 21,2 °C 12,9 km/h (3 Bft)
16.07.2018 16:48 21,2 °C 67 % 1009,6 hPa 0,0 mm 7,6 km/h (2 Bft) NW 315 ° 0 min 0,000 mm 2,7 UV-I 258 W/m² 14,8 °C 21,2 °C 12,9 km/h (3 Bft)
16.07.2018 16:49 21,2 °C 67 % 1009,7 hPa 0,0 mm 6,3 km/h (2 Bft) W-NW 283 ° 0 min 0,000 mm 2,7 UV-I 274 W/m² 14,8 °C 21,2 °C 12,9 km/h (3 Bft)
16.07.2018 16:50 21,2 °C 66 % 1009,7 hPa 0,0 mm 6,0 km/h (2 Bft) NW 321 ° 0 min 0,000 mm 2,7 UV-I 306 W/m² 14,6 °C 21,2 °C 14,5 km/h (3 Bft)
16.07.2018 16:51 21,2 °C 67 % 1009,7 hPa 0,0 mm 4,7 km/h (1 Bft) NW 324 ° 0 min 0,000 mm 2,7 UV-I 318 W/m² 14,8 °C 21,2 °C 9,7 km/h (2 Bft)
16.07.2018 16:52 21,2 °C 68 % 1009,7 hPa 0,0 mm 1,4 km/h (1 Bft) W-NW 302 ° 0 min 0,000 mm 2,6 UV-I 304 W/m² 15,1 °C 21,2 °C 3,2 km/h (1 Bft)
16.07.2018 16:53 21,3 °C 66 % 1009,8 hPa 0,0 mm 2,7 km/h (1 Bft) NW 305 ° 0 min 0,000 mm 2,5 UV-I 302 W/m² 14,7 °C 21,3 °C 4,8 km/h (1 Bft)
16.07.2018 16:54 21,3 °C 69 % 1009,8 hPa 0,0 mm 3,0 km/h (1 Bft) NW 319 ° 0 min 0,000 mm 2,5 UV-I 299 W/m² 15,4 °C 21,3 °C 8,0 km/h (2 Bft)
16.07.2018 16:55 21,4 °C 68 % 1009,8 hPa 0,0 mm 3,9 km/h (1 Bft) N 355 ° 0 min 0,000 mm 2,5 UV-I 301 W/m² 15,2 °C 21,4 °C 6,4 km/h (2 Bft)
16.07.2018 16:56 21,6 °C 71 % 1009,8 hPa 0,0 mm 5,2 km/h (1 Bft) N-NW 337 ° 0 min 0,000 mm 2,5 UV-I 308 W/m² 16,1 °C 21,6 °C 9,7 km/h (2 Bft)
16.07.2018 16:57 21,7 °C 67 % 1009,8 hPa 0,0 mm 6,0 km/h (2 Bft) N-NO 15 ° 0 min 0,000 mm 2,5 UV-I 315 W/m² 15,3 °C 21,7 °C 9,7 km/h (2 Bft)
16.07.2018 16:58 21,7 °C 66 % 1009,7 hPa 0,0 mm 5,1 km/h (1 Bft) N 5 ° 0 min 0,000 mm 2,5 UV-I 316 W/m² 15,1 °C 21,7 °C 12,9 km/h (3 Bft)
16.07.2018 16:59 21,7 °C 67 % 1009,7 hPa 0,0 mm 6,4 km/h (2 Bft) N-NW 330 ° 0 min 0,000 mm 2,5 UV-I 309 W/m² 15,3 °C 21,7 °C 9,7 km/h (2 Bft)
16.07.2018 17:00 21,7 °C 67 % 1009,7 hPa 0,0 mm 6,2 km/h (2 Bft) N-NW 337 ° 0 min 0,000 mm 2,5 UV-I 281 W/m² 15,3 °C 21,7 °C 12,9 km/h (3 Bft)
16.07.2018 17:01 21,7 °C 67 % 1009,7 hPa 0,0 mm 4,3 km/h (1 Bft) NO 35 ° 0 min 0,153 mm 2,5 UV-I 267 W/m² 15,3 °C 21,7 °C 11,3 km/h (2 Bft)
16.07.2018 17:02 21,6 °C 66 % 1009,7 hPa 0,0 mm 3,7 km/h (1 Bft) NO 40 ° 0 min 0,000 mm 2,4 UV-I 244 W/m² 15,0 °C 21,6 °C 6,4 km/h (2 Bft)
16.07.2018 17:03 21,6 °C 67 % 1009,6 hPa 0,0 mm 8,9 km/h (2 Bft) O-NO 67 ° 0 min 0,000 mm 2,4 UV-I 220 W/m² 15,2 °C 21,6 °C 17,7 km/h (3 Bft)
16.07.2018 17:04 21,6 °C 66 % 1009,6 hPa 0,0 mm 10,8 km/h (2 Bft) O 86 ° 0 min 0,000 mm 2,3 UV-I 190 W/m² 15,0 °C 21,6 °C 16,1 km/h (3 Bft)
16.07.2018 17:05 21,6 °C 66 % 1009,7 hPa 0,0 mm 4,4 km/h (1 Bft) O-NO 63 ° 0 min 0,000 mm 2,3 UV-I 165 W/m² 15,0 °C 21,6 °C 8,0 km/h (2 Bft)
16.07.2018 17:06 21,4 °C 66 % 1009,6 hPa 0,0 mm 3,8 km/h (1 Bft) NO 54 ° 0 min 0,000 mm 2,2 UV-I 151 W/m² 14,8 °C 21,4 °C 8,0 km/h (2 Bft)
16.07.2018 17:07 21,4 °C 66 % 1009,6 hPa 0,0 mm 6,4 km/h (2 Bft) O-NO 64 ° 0 min 0,000 mm 2,2 UV-I 134 W/m² 14,8 °C 21,4 °C 11,3 km/h (2 Bft)
16.07.2018 17:08 21,4 °C 66 % 1009,6 hPa 0,0 mm 6,0 km/h (2 Bft) O 81 ° 0 min 0,000 mm 2,2 UV-I 130 W/m² 14,8 °C 21,4 °C 8,0 km/h (2 Bft)
16.07.2018 17:09 21,4 °C 65 % 1009,7 hPa 0,0 mm 4,0 km/h (1 Bft) O 80 ° 0 min 0,000 mm 2,2 UV-I 128 W/m² 14,5 °C 21,4 °C 6,4 km/h (2 Bft)
16.07.2018 17:10 21,3 °C 65 % 1009,7 hPa 0,0 mm 4,0 km/h (1 Bft) O 82 ° 0 min 0,000 mm 2,2 UV-I 127 W/m² 14,4 °C 21,3 °C 4,8 km/h (1 Bft)
16.07.2018 17:11 21,3 °C 65 % 1009,6 hPa 0,0 mm 3,4 km/h (1 Bft) O-NO 69 ° 0 min 0,000 mm 2,1 UV-I 127 W/m² 14,4 °C 21,3 °C 6,4 km/h (2 Bft)
16.07.2018 17:12 21,3 °C 65 % 1009,6 hPa 0,0 mm 2,3 km/h (1 Bft) N-NW 346 ° 0 min 0,000 mm 2,1 UV-I 118 W/m² 14,4 °C 21,3 °C 4,8 km/h (1 Bft)
16.07.2018 17:13 21,3 °C 67 % 1009,6 hPa 0,0 mm 4,3 km/h (1 Bft) N 349 ° 0 min 0,000 mm 2,1 UV-I 127 W/m² 14,9 °C 21,3 °C 11,3 km/h (2 Bft)
16.07.2018 17:14 21,4 °C 67 % 1009,6 hPa 0,0 mm 6,3 km/h (2 Bft) N-NO 19 ° 0 min 0,000 mm 2,1 UV-I 132 W/m² 15,0 °C 21,4 °C 12,9 km/h (3 Bft)
16.07.2018 17:15 21,4 °C 66 % 1009,6 hPa 0,0 mm 1,4 km/h (1 Bft) NW 325 ° 0 min 0,000 mm 2,1 UV-I 135 W/m² 14,8 °C 21,4 °C 3,2 km/h (1 Bft)
16.07.2018 17:16 21,5 °C 67 % 1009,5 hPa 0,0 mm 6,8 km/h (2 Bft) W-NW 292 ° 0 min 0,000 mm 2,1 UV-I 139 W/m² 15,1 °C 21,5 °C 9,7 km/h (2 Bft)
16.07.2018 17:17 21,4 °C 65 % 1009,5 hPa 0,0 mm 3,7 km/h (1 Bft) W-NW 301 ° 0 min 0,000 mm 2,1 UV-I 146 W/m² 14,5 °C 21,4 °C 4,8 km/h (1 Bft)
16.07.2018 17:18 21,4 °C 65 % 1009,5 hPa 0,0 mm 2,5 km/h (1 Bft) W-NW 301 ° 0 min 0,000 mm 2,1 UV-I 162 W/m² 14,5 °C 21,4 °C 3,2 km/h (1 Bft)
16.07.2018 17:19 21,3 °C 64 % 1009,5 hPa 0,0 mm 0,1 km/h (0 Bft) W-NW 301 ° 0 min 0,000 mm 2,1 UV-I 167 W/m² 14,2 °C 21,3 °C 1,6 km/h (1 Bft)
16.07.2018 17:20 21,3 °C 64 % 1009,5 hPa 0,0 mm 1,3 km/h (1 Bft) NW 304 ° 0 min 0,000 mm 2,0 UV-I 172 W/m² 14,2 °C 21,3 °C 4,8 km/h (1 Bft)
16.07.2018 17:21 21,4 °C 66 % 1009,5 hPa 0,0 mm 4,1 km/h (1 Bft) W-NW 294 ° 0 min 0,000 mm 2,0 UV-I 178 W/m² 14,8 °C 21,4 °C 6,4 km/h (2 Bft)
16.07.2018 17:22 21,4 °C 65 % 1009,5 hPa 0,0 mm 4,0 km/h (1 Bft) NW 306 ° 0 min 0,000 mm 2,0 UV-I 181 W/m² 14,5 °C 21,4 °C 6,4 km/h (2 Bft)
16.07.2018 17:23 21,4 °C 66 % 1009,5 hPa 0,0 mm 1,7 km/h (1 Bft) NW 306 ° 0 min 0,000 mm 2,0 UV-I 186 W/m² 14,8 °C 21,4 °C 3,2 km/h (1 Bft)
16.07.2018 17:24 21,4 °C 66 % 1009,5 hPa 0,0 mm 0,2 km/h (0 Bft) NW 306 ° 0 min 0,000 mm 2,0 UV-I 197 W/m² 14,8 °C 21,4 °C 1,6 km/h (1 Bft)
16.07.2018 17:25 21,5 °C 68 % 1009,5 hPa 0,0 mm 2,8 km/h (1 Bft) O 82 ° 0 min 0,000 mm 1,9 UV-I 202 W/m² 15,3 °C 21,5 °C 6,4 km/h (2 Bft)
16.07.2018 17:26 21,4 °C 67 % 1009,4 hPa 0,0 mm 6,1 km/h (2 Bft) O 88 ° 0 min 0,000 mm 1,9 UV-I 206 W/m² 15,0 °C 21,4 °C 8,0 km/h (2 Bft)
16.07.2018 17:27 21,4 °C 65 % 1009,5 hPa 0,0 mm 3,8 km/h (1 Bft) O-SO 105 ° 0 min 0,000 mm 1,8 UV-I 211 W/m² 14,5 °C 21,4 °C 4,8 km/h (1 Bft)
16.07.2018 17:28 21,3 °C 66 % 1009,5 hPa 0,0 mm 3,8 km/h (1 Bft) O 82 ° 0 min 0,000 mm 1,8 UV-I 216 W/m² 14,7 °C 21,3 °C 8,0 km/h (2 Bft)
16.07.2018 17:29 21,3 °C 67 % 1009,5 hPa 0,0 mm 3,9 km/h (1 Bft) N-NO 33 ° 0 min 0,000 mm 1,8 UV-I 218 W/m² 14,9 °C 21,3 °C 11,3 km/h (2 Bft)
16.07.2018 17:30 21,3 °C 67 % 1009,4 hPa 0,0 mm 9,6 km/h (2 Bft) O-SO 119 ° 0 min 0,000 mm 1,8 UV-I 211 W/m² 14,9 °C 21,3 °C 16,1 km/h (3 Bft)
16.07.2018 17:31 21,3 °C 67 % 1009,4 hPa 0,0 mm 5,3 km/h (1 Bft) NO 55 ° 0 min 0,000 mm 1,6 UV-I 199 W/m² 14,9 °C 21,3 °C 9,7 km/h (2 Bft)
16.07.2018 17:32 21,3 °C 67 % 1009,4 hPa 0,0 mm 9,1 km/h (2 Bft) O-NO 74 ° 0 min 0,000 mm 1,6 UV-I 186 W/m² 14,9 °C 21,3 °C 12,9 km/h (3 Bft)
16.07.2018 17:33 21,3 °C 66 % 1009,4 hPa 0,0 mm 7,2 km/h (2 Bft) O-NO 78 ° 0 min 0,000 mm 1,5 UV-I 183 W/m² 14,7 °C 21,3 °C 14,5 km/h (3 Bft)
16.07.2018 17:34 21,3 °C 68 % 1009,4 hPa 0,0 mm 10,1 km/h (2 Bft) O-NO 70 ° 0 min 0,000 mm 1,5 UV-I 171 W/m² 15,1 °C 21,3 °C 14,5 km/h (3 Bft)
16.07.2018 17:35 21,2 °C 69 % 1009,4 hPa 0,0 mm 7,9 km/h (2 Bft) O 93 ° 0 min 0,000 mm 1,4 UV-I 156 W/m² 15,3 °C 21,2 °C 11,3 km/h (2 Bft)
16.07.2018 17:36 21,2 °C 69 % 1009,4 hPa 0,0 mm 8,8 km/h (2 Bft) O 92 ° 0 min 0,000 mm 1,4 UV-I 142 W/m² 15,3 °C 21,2 °C 12,9 km/h (3 Bft)
16.07.2018 17:37 21,1 °C 68 % 1009,4 hPa 0,0 mm 8,4 km/h (2 Bft) NO 53 ° 0 min 0,000 mm 1,3 UV-I 132 W/m² 15,0 °C 21,1 °C 16,1 km/h (3 Bft)
16.07.2018 17:38 21,0 °C 68 % 1009,4 hPa 0,0 mm 6,5 km/h (2 Bft) O-NO 61 ° 0 min 0,000 mm 1,2 UV-I 123 W/m² 14,9 °C 21,0 °C 9,7 km/h (2 Bft)
16.07.2018 17:39 20,9 °C 69 % 1009,4 hPa 0,0 mm 6,4 km/h (2 Bft) NO 55 ° 0 min 0,000 mm 1,2 UV-I 118 W/m² 15,0 °C 20,9 °C 11,3 km/h (2 Bft)
16.07.2018 17:40 20,8 °C 69 % 1009,4 hPa 0,0 mm 6,1 km/h (2 Bft) O 95 ° 0 min 0,000 mm 1,2 UV-I 121 W/m² 14,9 °C 20,8 °C 9,7 km/h (2 Bft)
16.07.2018 17:41 20,7 °C 70 % 1009,4 hPa 0,0 mm 4,6 km/h (1 Bft) NO 46 ° 0 min 0,000 mm 1,2 UV-I 128 W/m² 15,0 °C 20,7 °C 9,7 km/h (2 Bft)
16.07.2018 17:42 20,6 °C 70 % 1009,4 hPa 0,0 mm 7,7 km/h (2 Bft) O-NO 65 ° 0 min 0,000 mm 1,2 UV-I 139 W/m² 14,9 °C 20,6 °C 14,5 km/h (3 Bft)
16.07.2018 17:43 20,5 °C 70 % 1009,4 hPa 0,0 mm 7,0 km/h (2 Bft) NO 49 ° 0 min 0,000 mm 1,3 UV-I 137 W/m² 14,8 °C 20,5 °C 12,9 km/h (3 Bft)
16.07.2018 17:44 20,4 °C 70 % 1009,4 hPa 0,0 mm 5,8 km/h (2 Bft) O-NO 59 ° 0 min 0,000 mm 1,3 UV-I 137 W/m² 14,7 °C 20,4 °C 8,0 km/h (2 Bft)
16.07.2018 17:45 20,3 °C 71 % 1009,4 hPa 0,0 mm 3,6 km/h (1 Bft) O-NO 76 ° 0 min 0,000 mm 1,4 UV-I 146 W/m² 14,9 °C 20,3 °C 6,4 km/h (2 Bft)
16.07.2018 17:46 20,2 °C 71 % 1009,4 hPa 0,0 mm 4,5 km/h (1 Bft) NO 52 ° 0 min 0,000 mm 1,4 UV-I 153 W/m² 14,8 °C 20,2 °C 9,7 km/h (2 Bft)
16.07.2018 17:47 20,2 °C 71 % 1009,3 hPa 0,0 mm 4,6 km/h (1 Bft) O-NO 74 ° 0 min 0,000 mm 1,5 UV-I 160 W/m² 14,8 °C 20,2 °C 9,7 km/h (2 Bft)
16.07.2018 17:48 20,2 °C 71 % 1009,3 hPa 0,0 mm 4,7 km/h (1 Bft) O 82 ° 0 min 0,000 mm 1,5 UV-I 144 W/m² 14,8 °C 20,2 °C 8,0 km/h (2 Bft)
16.07.2018 17:49 20,1 °C 71 % 1009,3 hPa 0,0 mm 5,5 km/h (1 Bft) O-SO 111 ° 0 min 0,000 mm 1,6 UV-I 141 W/m² 14,7 °C 20,1 °C 8,0 km/h (2 Bft)
16.07.2018 17:50 20,1 °C 72 % 1009,3 hPa 0,0 mm 5,0 km/h (1 Bft) O 85 ° 0 min 0,000 mm 1,6 UV-I 128 W/m² 14,9 °C 20,1 °C 8,0 km/h (2 Bft)
16.07.2018 17:51 20,1 °C 72 % 1009,3 hPa 0,0 mm 6,1 km/h (2 Bft) SO 146 ° 0 min 0,000 mm 1,5 UV-I 128 W/m² 14,9 °C 20,1 °C 9,7 km/h (2 Bft)
16.07.2018 17:52 20,0 °C 72 % 1009,4 hPa 0,0 mm 7,6 km/h (2 Bft) O-NO 58 ° 0 min 0,000 mm 1,5 UV-I 105 W/m² 14,8 °C 20,0 °C 14,5 km/h (3 Bft)
16.07.2018 17:53 19,9 °C 71 % 1009,4 hPa 0,0 mm 6,8 km/h (2 Bft) O-NO 66 ° 0 min 0,000 mm 1,5 UV-I 100 W/m² 14,5 °C 19,9 °C 11,3 km/h (2 Bft)
16.07.2018 17:54 19,9 °C 72 % 1009,4 hPa 0,0 mm 3,6 km/h (1 Bft) O-NO 66 ° 0 min 0,000 mm 1,5 UV-I 100 W/m² 14,7 °C 19,9 °C 6,4 km/h (2 Bft)
16.07.2018 17:55 19,9 °C 73 % 1009,4 hPa 0,0 mm 2,5 km/h (1 Bft) O-NO 62 ° 0 min 0,000 mm 1,5 UV-I 98 W/m² 14,9 °C 19,9 °C 4,8 km/h (1 Bft)
16.07.2018 17:56 19,9 °C 73 % 1009,4 hPa 0,0 mm 6,8 km/h (2 Bft) NO 56 ° 0 min 0,000 mm 1,5 UV-I 88 W/m² 14,9 °C 19,9 °C 11,3 km/h (2 Bft)
16.07.2018 17:57 19,9 °C 73 % 1009,4 hPa 0,0 mm 4,5 km/h (1 Bft) O 80 ° 0 min 0,000 mm 1,4 UV-I 79 W/m² 14,9 °C 19,9 °C 6,4 km/h (2 Bft)
16.07.2018 17:58 19,9 °C 73 % 1009,4 hPa 0,0 mm 1,7 km/h (1 Bft) O-NO 73 ° 0 min 0,000 mm 1,4 UV-I 81 W/m² 14,9 °C 19,9 °C 4,8 km/h (1 Bft)
16.07.2018 17:59 19,8 °C 73 % 1009,4 hPa 0,0 mm 4,1 km/h (1 Bft) O-NO 58 ° 0 min 0,000 mm 1,4 UV-I 91 W/m² 14,8 °C 19,8 °C 6,4 km/h (2 Bft)
16.07.2018 18:00 19,8 °C 74 % 1009,4 hPa 0,0 mm 2,3 km/h (1 Bft) O-NO 62 ° 0 min 0,000 mm 1,5 UV-I 83 W/m² 15,0 °C 19,8 °C 4,8 km/h (1 Bft)
16.07.2018 18:01 19,8 °C 74 % 1009,4 hPa 0,0 mm 4,9 km/h (1 Bft) O-NO 67 ° 0 min 0,127 mm 1,4 UV-I 81 W/m² 15,0 °C 19,8 °C 9,7 km/h (2 Bft)
16.07.2018 18:02 19,8 °C 74 % 1009,4 hPa 0,0 mm 3,5 km/h (1 Bft) SO 144 ° 0 min 0,000 mm 1,4 UV-I 76 W/m² 15,0 °C 19,8 °C 11,3 km/h (2 Bft)
16.07.2018 18:03 19,8 °C 74 % 1009,4 hPa 0,0 mm 2,1 km/h (1 Bft) O-SO 109 ° 0 min 0,000 mm 1,4 UV-I 72 W/m² 15,0 °C 19,8 °C 3,2 km/h (1 Bft)
16.07.2018 18:04 19,8 °C 74 % 1009,4 hPa 0,0 mm 3,6 km/h (1 Bft) SO 126 ° 0 min 0,000 mm 1,4 UV-I 70 W/m² 15,0 °C 19,8 °C 6,4 km/h (2 Bft)
16.07.2018 18:05 19,8 °C 75 % 1009,4 hPa 0,0 mm 4,6 km/h (1 Bft) NO 47 ° 0 min 0,000 mm 1,4 UV-I 67 W/m² 15,2 °C 19,8 °C 6,4 km/h (2 Bft)
16.07.2018 18:06 19,8 °C 74 % 1009,3 hPa 0,0 mm 5,7 km/h (1 Bft) O 80 ° 0 min 0,000 mm 1,4 UV-I 65 W/m² 15,0 °C 19,8 °C 11,3 km/h (2 Bft)
16.07.2018 18:07 19,9 °C 74 % 1009,3 hPa 0,0 mm 9,7 km/h (2 Bft) O-NO 74 ° 0 min 0,000 mm 1,4 UV-I 65 W/m² 15,1 °C 19,9 °C 14,5 km/h (3 Bft)
16.07.2018 18:08 19,9 °C 74 % 1009,3 hPa 0,0 mm 3,8 km/h (1 Bft) O-NO 61 ° 0 min 0,000 mm 1,4 UV-I 65 W/m² 15,1 °C 19,9 °C 6,4 km/h (2 Bft)
16.07.2018 18:09 20,0 °C 74 % 1009,4 hPa 0,0 mm 5,8 km/h (2 Bft) O-NO 57 ° 0 min 0,000 mm 1,4 UV-I 63 W/m² 15,2 °C 20,0 °C 9,7 km/h (2 Bft)
16.07.2018 18:10 20,0 °C 74 % 1009,3 hPa 0,0 mm 4,9 km/h (1 Bft) O-NO 60 ° 0 min 0,000 mm 1,3 UV-I 67 W/m² 15,2 °C 20,0 °C 9,7 km/h (2 Bft)
16.07.2018 18:11 20,1 °C 74 % 1009,3 hPa 0,0 mm 1,9 km/h (1 Bft) O-NO 60 ° 0 min 0,000 mm 1,3 UV-I 69 W/m² 15,3 °C 20,1 °C 3,2 km/h (1 Bft)
16.07.2018 18:12 20,1 °C 74 % 1009,3 hPa 0,0 mm 1,2 km/h (1 Bft) O-NO 60 ° 0 min 0,000 mm 1,3 UV-I 65 W/m² 15,3 °C 20,1 °C 3,2 km/h (1 Bft)
16.07.2018 18:13 20,2 °C 74 % 1009,3 hPa 0,0 mm 5,4 km/h (1 Bft) O-NO 57 ° 0 min 0,000 mm 1,3 UV-I 65 W/m² 15,4 °C 20,2 °C 14,5 km/h (3 Bft)
16.07.2018 18:14 20,2 °C 72 % 1009,3 hPa 0,0 mm 5,7 km/h (1 Bft) O-NO 65 ° 0 min 0,000 mm 1,3 UV-I 65 W/m² 15,0 °C 20,2 °C 9,7 km/h (2 Bft)
16.07.2018 18:15 20,2 °C 72 % 1009,4 hPa 0,0 mm 2,9 km/h (1 Bft) O-NO 61 ° 0 min 0,000 mm 1,3 UV-I 65 W/m² 15,0 °C 20,2 °C 6,4 km/h (2 Bft)
16.07.2018 18:16 20,2 °C 73 % 1009,4 hPa 0,0 mm 3,1 km/h (1 Bft) O-NO 71 ° 0 min 0,000 mm 1,3 UV-I 67 W/m² 15,2 °C 20,2 °C 4,8 km/h (1 Bft)
16.07.2018 18:17 20,2 °C 73 % 1009,3 hPa 0,0 mm 2,6 km/h (1 Bft) O-NO 61 ° 0 min 0,000 mm 1,3 UV-I 69 W/m² 15,2 °C 20,2 °C 6,4 km/h (2 Bft)
16.07.2018 18:18 20,3 °C 73 % 1009,3 hPa 0,0 mm 4,3 km/h (1 Bft) NO 46 ° 0 min 0,000 mm 1,3 UV-I 67 W/m² 15,3 °C 20,3 °C 8,0 km/h (2 Bft)
16.07.2018 18:19 20,3 °C 73 % 1009,4 hPa 0,0 mm 5,6 km/h (1 Bft) O-NO 61 ° 0 min 0,000 mm 1,3 UV-I 67 W/m² 15,3 °C 20,3 °C 8,0 km/h (2 Bft)
16.07.2018 18:20 20,3 °C 73 % 1009,3 hPa 0,0 mm 6,1 km/h (2 Bft) O-NO 69 ° 0 min 0,000 mm 1,3 UV-I 65 W/m² 15,3 °C 20,3 °C 8,0 km/h (2 Bft)
16.07.2018 18:21 20,3 °C 73 % 1009,2 hPa 0,0 mm 5,1 km/h (1 Bft) NO 56 ° 0 min 0,000 mm 1,3 UV-I 63 W/m² 15,3 °C 20,3 °C 8,0 km/h (2 Bft)
16.07.2018 18:22 20,4 °C 73 % 1009,3 hPa 0,0 mm 4,6 km/h (1 Bft) O 84 ° 0 min 0,000 mm 1,3 UV-I 63 W/m² 15,4 °C 20,4 °C 8,0 km/h (2 Bft)
16.07.2018 18:23 20,4 °C 71 % 1009,4 hPa 0,0 mm 6,0 km/h (2 Bft) O 101 ° 0 min 0,000 mm 1,3 UV-I 63 W/m² 15,0 °C 20,4 °C 11,3 km/h (2 Bft)
16.07.2018 18:24 20,4 °C 71 % 1009,3 hPa 0,0 mm 6,1 km/h (2 Bft) O-NO 68 ° 0 min 0,000 mm 1,2 UV-I 62 W/m² 15,0 °C 20,4 °C 9,7 km/h (2 Bft)
16.07.2018 18:25 20,4 °C 70 % 1009,3 hPa 0,0 mm 9,3 km/h (2 Bft) NO 38 ° 0 min 0,000 mm 1,2 UV-I 62 W/m² 14,7 °C 20,4 °C 14,5 km/h (3 Bft)
16.07.2018 18:26 20,3 °C 71 % 1009,3 hPa 0,0 mm 4,5 km/h (1 Bft) O-NO 61 ° 0 min 0,000 mm 1,2 UV-I 60 W/m² 14,9 °C 20,3 °C 8,0 km/h (2 Bft)
16.07.2018 18:27 20,3 °C 71 % 1009,2 hPa 0,0 mm 3,1 km/h (1 Bft) O-SO 103 ° 0 min 0,000 mm 1,2 UV-I 63 W/m² 14,9 °C 20,3 °C 8,0 km/h (2 Bft)
16.07.2018 18:28 20,3 °C 71 % 1009,2 hPa 0,0 mm 5,2 km/h (1 Bft) O 81 ° 0 min 0,000 mm 1,2 UV-I 65 W/m² 14,9 °C 20,3 °C 11,3 km/h (2 Bft)
16.07.2018 18:29 20,2 °C 71 % 1009,3 hPa 0,0 mm 6,7 km/h (2 Bft) O 84 ° 0 min 0,000 mm 1,2 UV-I 65 W/m² 14,8 °C 20,2 °C 9,7 km/h (2 Bft)
16.07.2018 18:30 20,3 °C 71 % 1009,3 hPa 0,0 mm 7,7 km/h (2 Bft) N-NO 23 ° 0 min 0,000 mm 1,2 UV-I 65 W/m² 14,9 °C 20,3 °C 12,9 km/h (3 Bft)
16.07.2018 18:31 20,3 °C 70 % 1009,3 hPa 0,0 mm 5,2 km/h (1 Bft) N-NO 16 ° 0 min 0,000 mm 1,2 UV-I 65 W/m² 14,6 °C 20,3 °C 8,0 km/h (2 Bft)
16.07.2018 18:32 20,3 °C 70 % 1009,3 hPa 0,0 mm 6,3 km/h (2 Bft) O-NO 73 ° 0 min 0,000 mm 1,2 UV-I 65 W/m² 14,6 °C 20,3 °C 9,7 km/h (2 Bft)
16.07.2018 18:33 20,3 °C 70 % 1009,3 hPa 0,0 mm 9,2 km/h (2 Bft) NO 45 ° 0 min 0,000 mm 1,2 UV-I 67 W/m² 14,6 °C 20,3 °C 12,9 km/h (3 Bft)
16.07.2018 18:34 20,3 °C 70 % 1009,2 hPa 0,0 mm 6,3 km/h (2 Bft) NO 50 ° 0 min 0,000 mm 1,1 UV-I 67 W/m² 14,6 °C 20,3 °C 11,3 km/h (2 Bft)
16.07.2018 18:35 20,3 °C 70 % 1009,2 hPa 0,0 mm 3,1 km/h (1 Bft) O-NO 63 ° 0 min 0,000 mm 1,1 UV-I 65 W/m² 14,6 °C 20,3 °C 6,4 km/h (2 Bft)
16.07.2018 18:36 20,3 °C 70 % 1009,2 hPa 0,0 mm 5,0 km/h (1 Bft) NO 42 ° 0 min 0,000 mm 1,1 UV-I 62 W/m² 14,6 °C 20,3 °C 11,3 km/h (2 Bft)
16.07.2018 18:37 20,4 °C 70 % 1009,3 hPa 0,0 mm 5,6 km/h (1 Bft) NO 49 ° 0 min 0,000 mm 1,1 UV-I 65 W/m² 14,7 °C 20,4 °C 9,7 km/h (2 Bft)
16.07.2018 18:38 20,4 °C 69 % 1009,2 hPa 0,0 mm 5,0 km/h (1 Bft) N 5 ° 0 min 0,000 mm 1,1 UV-I 70 W/m² 14,5 °C 20,4 °C 6,4 km/h (2 Bft)
16.07.2018 18:39 20,4 °C 69 % 1009,2 hPa 0,0 mm 5,9 km/h (2 Bft) NO 41 ° 0 min 0,000 mm 1,3 UV-I 86 W/m² 14,5 °C 20,4 °C 9,7 km/h (2 Bft)
16.07.2018 18:40 20,4 °C 69 % 1009,2 hPa 0,0 mm 7,2 km/h (2 Bft) N-NO 25 ° 0 min 0,000 mm 1,3 UV-I 149 W/m² 14,5 °C 20,4 °C 11,3 km/h (2 Bft)
16.07.2018 18:41 20,4 °C 68 % 1009,2 hPa 0,0 mm 5,6 km/h (1 Bft) NO 39 ° 0 min 0,000 mm 1,3 UV-I 149 W/m² 14,3 °C 20,4 °C 8,0 km/h (2 Bft)
16.07.2018 18:42 20,4 °C 68 % 1009,1 hPa 0,0 mm 2,7 km/h (1 Bft) O 90 ° 0 min 0,000 mm 1,3 UV-I 149 W/m² 14,3 °C 20,4 °C 4,8 km/h (1 Bft)
16.07.2018 18:43 20,4 °C 68 % 1009,2 hPa 0,0 mm 3,0 km/h (1 Bft) O-NO 74 ° 0 min 0,000 mm 1,3 UV-I 271 W/m² 14,3 °C 20,4 °C 6,4 km/h (2 Bft)
16.07.2018 18:44 20,4 °C 68 % 1009,2 hPa 0,0 mm 2,1 km/h (1 Bft) O 89 ° 0 min 0,000 mm 1,3 UV-I 251 W/m² 14,3 °C 20,4 °C 6,4 km/h (2 Bft)
16.07.2018 18:45 20,4 °C 68 % 1009,1 hPa 0,0 mm 4,6 km/h (1 Bft) O-NO 71 ° 0 min 0,000 mm 1,3 UV-I 260 W/m² 14,3 °C 20,4 °C 8,0 km/h (2 Bft)
16.07.2018 18:46 20,4 °C 68 % 1009,2 hPa 0,0 mm 4,6 km/h (1 Bft) O-NO 67 ° 0 min 0,000 mm 1,3 UV-I 227 W/m² 14,3 °C 20,4 °C 8,0 km/h (2 Bft)
16.07.2018 18:47 20,3 °C 67 % 1009,2 hPa 0,0 mm 7,4 km/h (2 Bft) O 82 ° 0 min 0,000 mm 1,1 UV-I 156 W/m² 14,0 °C 20,3 °C 9,7 km/h (2 Bft)
16.07.2018 18:48 20,3 °C 67 % 1009,1 hPa 0,0 mm 6,9 km/h (2 Bft) NO 43 ° 0 min 0,000 mm 1,0 UV-I 90 W/m² 14,0 °C 20,3 °C 9,7 km/h (2 Bft)
16.07.2018 18:49 20,4 °C 66 % 1009,2 hPa 0,0 mm 6,2 km/h (2 Bft) NO 53 ° 0 min 0,000 mm 0,0 UV-I 54 W/m² 13,8 °C 20,4 °C 8,0 km/h (2 Bft)
16.07.2018 18:50 20,3 °C 65 % 1009,2 hPa 0,0 mm 3,5 km/h (1 Bft) O 82 ° 0 min 0,000 mm 1,0 UV-I 56 W/m² 13,5 °C 20,3 °C 8,0 km/h (2 Bft)
16.07.2018 18:51 20,3 °C 66 % 1009,2 hPa 0,0 mm 4,6 km/h (1 Bft) NO 46 ° 0 min 0,000 mm 1,0 UV-I 56 W/m² 13,7 °C 20,3 °C 6,4 km/h (2 Bft)
16.07.2018 18:52 20,3 °C 66 % 1009,1 hPa 0,0 mm 5,3 km/h (1 Bft) O 88 ° 0 min 0,000 mm 1,1 UV-I 86 W/m² 13,7 °C 20,3 °C 11,3 km/h (2 Bft)
16.07.2018 18:53 20,3 °C 65 % 1009,1 hPa 0,0 mm 4,8 km/h (1 Bft) O-NO 69 ° 0 min 0,000 mm 1,1 UV-I 130 W/m² 13,5 °C 20,3 °C 8,0 km/h (2 Bft)
16.07.2018 18:54 20,3 °C 63 % 1009,1 hPa 0,0 mm 3,4 km/h (1 Bft) NO 40 ° 0 min 0,000 mm 1,2 UV-I 156 W/m² 13,0 °C 20,3 °C 4,8 km/h (1 Bft)
16.07.2018 18:55 20,3 °C 64 % 1009,1 hPa 0,0 mm 3,8 km/h (1 Bft) O-NO 77 ° 0 min 0,000 mm 1,1 UV-I 146 W/m² 13,3 °C 20,3 °C 6,4 km/h (2 Bft)
16.07.2018 18:56 20,2 °C 64 % 1009,0 hPa 0,0 mm 1,7 km/h (1 Bft) O-NO 77 ° 0 min 0,000 mm 1,1 UV-I 225 W/m² 13,2 °C 20,2 °C 3,2 km/h (1 Bft)
16.07.2018 18:57 20,3 °C 65 % 1009,0 hPa 0,0 mm 4,9 km/h (1 Bft) N-NO 32 ° 0 min 0,000 mm 1,1 UV-I 171 W/m² 13,5 °C 20,3 °C 8,0 km/h (2 Bft)
16.07.2018 18:58 20,3 °C 65 % 1009,1 hPa 0,0 mm 5,0 km/h (1 Bft) N-NO 15 ° 0 min 0,000 mm 1,0 UV-I 137 W/m² 13,5 °C 20,3 °C 8,0 km/h (2 Bft)
16.07.2018 18:59 20,3 °C 64 % 1009,1 hPa 0,0 mm 3,4 km/h (1 Bft) N-NO 32 ° 0 min 0,000 mm 1,0 UV-I 127 W/m² 13,3 °C 20,3 °C 8,0 km/h (2 Bft)
16.07.2018 19:00 20,4 °C 65 % 1009,1 hPa 0,0 mm 2,5 km/h (1 Bft) N-NO 31 ° 0 min 0,000 mm 1,0 UV-I 116 W/m² 13,6 °C 20,4 °C 4,8 km/h (1 Bft)
16.07.2018 19:01 20,4 °C 63 % 1009,1 hPa 0,0 mm 8,9 km/h (2 Bft) N-NO 24 ° 0 min 0,076 mm 0,9 UV-I 91 W/m² 13,1 °C 20,4 °C 12,9 km/h (3 Bft)
16.07.2018 19:02 20,4 °C 64 % 1009,2 hPa 0,0 mm 7,4 km/h (2 Bft) N-NW 335 ° 0 min 0,000 mm 0,9 UV-I 62 W/m² 13,4 °C 20,4 °C 11,3 km/h (2 Bft)
16.07.2018 19:03 20,4 °C 64 % 1009,1 hPa 0,0 mm 4,4 km/h (1 Bft) N 5 ° 0 min 0,000 mm 0,9 UV-I 69 W/m² 13,4 °C 20,4 °C 6,4 km/h (2 Bft)
16.07.2018 19:04 20,3 °C 64 % 1009,1 hPa 0,0 mm 7,8 km/h (2 Bft) N 5 ° 0 min 0,000 mm 0,9 UV-I 69 W/m² 13,3 °C 20,3 °C 11,3 km/h (2 Bft)
16.07.2018 19:05 20,4 °C 64 % 1009,1 hPa 0,0 mm 7,9 km/h (2 Bft) N-NO 24 ° 0 min 0,000 mm 1,0 UV-I 60 W/m² 13,4 °C 20,4 °C 11,3 km/h (2 Bft)
16.07.2018 19:06 20,3 °C 64 % 1009,1 hPa 0,0 mm 3,7 km/h (1 Bft) N-NO 23 ° 0 min 0,000 mm 0,0 UV-I 54 W/m² 13,3 °C 20,3 °C 4,8 km/h (1 Bft)
16.07.2018 19:07 20,3 °C 64 % 1009,2 hPa 0,0 mm 4,4 km/h (1 Bft) N-NO 32 ° 0 min 0,000 mm 1,0 UV-I 70 W/m² 13,3 °C 20,3 °C 6,4 km/h (2 Bft)
16.07.2018 19:08 20,3 °C 65 % 1009,1 hPa 0,0 mm 4,4 km/h (1 Bft) O-NO 59 ° 0 min 0,000 mm 1,0 UV-I 91 W/m² 13,5 °C 20,3 °C 9,7 km/h (2 Bft)
16.07.2018 19:09 20,3 °C 65 % 1009,1 hPa 0,0 mm 6,4 km/h (2 Bft) NO 48 ° 0 min 0,000 mm 0,0 UV-I 109 W/m² 13,5 °C 20,3 °C 8,0 km/h (2 Bft)
16.07.2018 19:10 20,3 °C 65 % 1009,1 hPa 0,0 mm 3,6 km/h (1 Bft) NO 54 ° 0 min 0,000 mm 1,0 UV-I 171 W/m² 13,5 °C 20,3 °C 4,8 km/h (1 Bft)
16.07.2018 19:11 20,3 °C 65 % 1009,1 hPa 0,0 mm 3,0 km/h (1 Bft) O-NO 65 ° 0 min 0,000 mm 1,0 UV-I 218 W/m² 13,5 °C 20,3 °C 4,8 km/h (1 Bft)
16.07.2018 19:12 20,3 °C 65 % 1009,1 hPa 0,0 mm 3,4 km/h (1 Bft) O-NO 65 ° 0 min 0,000 mm 0,9 UV-I 202 W/m² 13,5 °C 20,3 °C 4,8 km/h (1 Bft)
16.07.2018 19:13 20,3 °C 65 % 1009,2 hPa 0,0 mm 2,7 km/h (1 Bft) O-NO 65 ° 0 min 0,000 mm 0,9 UV-I 192 W/m² 13,5 °C 20,3 °C 4,8 km/h (1 Bft)
16.07.2018 19:14 20,3 °C 67 % 1009,1 hPa 0,0 mm 3,5 km/h (1 Bft) O-NO 64 ° 0 min 0,000 mm 0,9 UV-I 146 W/m² 14,0 °C 20,3 °C 6,4 km/h (2 Bft)
16.07.2018 19:15 20,2 °C 66 % 1009,1 hPa 0,0 mm 4,4 km/h (1 Bft) N 355 ° 0 min 0,000 mm 0,9 UV-I 202 W/m² 13,6 °C 20,2 °C 8,0 km/h (2 Bft)
16.07.2018 19:16 20,2 °C 67 % 1009,2 hPa 0,0 mm 1,9 km/h (1 Bft) N 11 ° 0 min 0,000 mm 0,8 UV-I 202 W/m² 13,9 °C 20,2 °C 4,8 km/h (1 Bft)
16.07.2018 19:17 20,2 °C 66 % 1009,1 hPa 0,0 mm 2,0 km/h (1 Bft) N 11 ° 0 min 0,000 mm 0,9 UV-I 56 W/m² 13,6 °C 20,2 °C 4,8 km/h (1 Bft)
16.07.2018 19:18 20,2 °C 66 % 1009,1 hPa 0,0 mm 3,4 km/h (1 Bft) O 79 ° 0 min 0,000 mm 0,9 UV-I 81 W/m² 13,6 °C 20,2 °C 6,4 km/h (2 Bft)
16.07.2018 19:19 20,2 °C 68 % 1009,2 hPa 0,0 mm 3,6 km/h (1 Bft) N-NO 25 ° 0 min 0,000 mm 0,8 UV-I 105 W/m² 14,1 °C 20,2 °C 6,4 km/h (2 Bft)
16.07.2018 19:20 20,2 °C 68 % 1009,2 hPa 0,0 mm 4,0 km/h (1 Bft) N-NO 26 ° 0 min 0,000 mm 0,8 UV-I 93 W/m² 14,1 °C 20,2 °C 4,8 km/h (1 Bft)
16.07.2018 19:21 20,2 °C 67 % 1009,2 hPa 0,0 mm 1,5 km/h (1 Bft) N-NO 26 ° 0 min 0,000 mm 0,8 UV-I 86 W/m² 13,9 °C 20,2 °C 3,2 km/h (1 Bft)
16.07.2018 19:22 20,2 °C 67 % 1009,1 hPa 0,0 mm 3,0 km/h (1 Bft) N-NW 340 ° 0 min 0,000 mm 0,8 UV-I 144 W/m² 13,9 °C 20,2 °C 4,8 km/h (1 Bft)
16.07.2018 19:23 20,3 °C 69 % 1009,1 hPa 0,0 mm 3,6 km/h (1 Bft) O 80 ° 0 min 0,000 mm 0,8 UV-I 179 W/m² 14,4 °C 20,3 °C 6,4 km/h (2 Bft)
16.07.2018 19:24 20,3 °C 68 % 1009,1 hPa 0,0 mm 4,1 km/h (1 Bft) O 91 ° 0 min 0,000 mm 0,8 UV-I 188 W/m² 14,2 °C 20,3 °C 8,0 km/h (2 Bft)
16.07.2018 19:25 20,3 °C 69 % 1009,1 hPa 0,0 mm 1,6 km/h (1 Bft) N 360 ° 0 min 0,000 mm 0,8 UV-I 185 W/m² 14,4 °C 20,3 °C 4,8 km/h (1 Bft)
16.07.2018 19:26 20,3 °C 68 % 1009,1 hPa 0,0 mm 3,3 km/h (1 Bft) N 11 ° 0 min 0,000 mm 0,8 UV-I 183 W/m² 14,2 °C 20,3 °C 8,0 km/h (2 Bft)
16.07.2018 19:27 20,3 °C 68 % 1009,1 hPa 0,0 mm 4,4 km/h (1 Bft) N 5 ° 0 min 0,000 mm 0,8 UV-I 179 W/m² 14,2 °C 20,3 °C 6,4 km/h (2 Bft)
16.07.2018 19:28 20,3 °C 68 % 1009,1 hPa 0,0 mm 3,0 km/h (1 Bft) N-NO 30 ° 0 min 0,000 mm 0,7 UV-I 179 W/m² 14,2 °C 20,3 °C 6,4 km/h (2 Bft)
16.07.2018 19:29 20,4 °C 69 % 1009,1 hPa 0,0 mm 3,6 km/h (1 Bft) N 355 ° 0 min 0,000 mm 0,7 UV-I 174 W/m² 14,5 °C 20,4 °C 9,7 km/h (2 Bft)
16.07.2018 19:30 20,4 °C 68 % 1009,1 hPa 0,0 mm 3,8 km/h (1 Bft) N-NW 342 ° 0 min 0,000 mm 0,7 UV-I 171 W/m² 14,3 °C 20,4 °C 4,8 km/h (1 Bft)
16.07.2018 19:31 20,4 °C 68 % 1009,1 hPa 0,0 mm 3,2 km/h (1 Bft) N 355 ° 0 min 0,000 mm 0,7 UV-I 167 W/m² 14,3 °C 20,4 °C 4,8 km/h (1 Bft)
16.07.2018 19:32 20,4 °C 68 % 1009,0 hPa 0,0 mm 3,4 km/h (1 Bft) N 355 ° 0 min 0,000 mm 0,7 UV-I 165 W/m² 14,3 °C 20,4 °C 4,8 km/h (1 Bft)
16.07.2018 19:33 20,4 °C 68 % 1009,0 hPa 0,0 mm 2,2 km/h (1 Bft) N 355 ° 0 min 0,000 mm 0,7 UV-I 158 W/m² 14,3 °C 20,4 °C 4,8 km/h (1 Bft)
16.07.2018 19:34 20,4 °C 68 % 1009,0 hPa 0,0 mm 2,6 km/h (1 Bft) N 9 ° 0 min 0,000 mm 0,7 UV-I 156 W/m² 14,3 °C 20,4 °C 4,8 km/h (1 Bft)
16.07.2018 19:35 20,4 °C 69 % 1009,0 hPa 0,0 mm 0,0 km/h (0 Bft) N 9 ° 0 min 0,000 mm 0,6 UV-I 155 W/m² 14,5 °C 20,4 °C 0,0 km/h (0 Bft)
16.07.2018 19:36 20,4 °C 69 % 1009,1 hPa 0,0 mm 0,2 km/h (0 Bft) N 360 ° 0 min 0,000 mm 0,6 UV-I 151 W/m² 14,5 °C 20,4 °C 1,6 km/h (1 Bft)
16.07.2018 19:37 20,3 °C 69 % 1009,1 hPa 0,0 mm 0,1 km/h (0 Bft) N 5 ° 0 min 0,000 mm 0,6 UV-I 149 W/m² 14,4 °C 20,3 °C 1,6 km/h (1 Bft)
16.07.2018 19:38 20,3 °C 70 % 1009,1 hPa 0,0 mm 0,5 km/h (0 Bft) N 5 ° 0 min 0,000 mm 0,6 UV-I 146 W/m² 14,6 °C 20,3 °C 1,6 km/h (1 Bft)
16.07.2018 19:39 20,4 °C 70 % 1009,1 hPa 0,0 mm 1,7 km/h (1 Bft) N-NO 24 ° 0 min 0,000 mm 0,6 UV-I 144 W/m² 14,7 °C 20,4 °C 4,8 km/h (1 Bft)
16.07.2018 19:40 20,3 °C 70 % 1009,0 hPa 0,0 mm 5,2 km/h (1 Bft) N-NO 25 ° 0 min 0,000 mm 0,6 UV-I 141 W/m² 14,6 °C 20,3 °C 6,4 km/h (2 Bft)
16.07.2018 19:41 20,3 °C 69 % 1009,0 hPa 0,0 mm 3,4 km/h (1 Bft) NO 53 ° 0 min 0,000 mm 0,6 UV-I 105 W/m² 14,4 °C 20,3 °C 4,8 km/h (1 Bft)
16.07.2018 19:42 20,3 °C 70 % 1009,0 hPa 0,0 mm 3,5 km/h (1 Bft) NO 49 ° 0 min 0,000 mm 0,0 UV-I 53 W/m² 14,6 °C 20,3 °C 4,8 km/h (1 Bft)
16.07.2018 19:43 20,3 °C 70 % 1009,1 hPa 0,0 mm 2,4 km/h (1 Bft) NO 49 ° 0 min 0,000 mm 0,0 UV-I 40 W/m² 14,6 °C 20,3 °C 3,2 km/h (1 Bft)
16.07.2018 19:44 20,2 °C 71 % 1009,1 hPa 0,0 mm 1,7 km/h (1 Bft) NO 49 ° 0 min 0,000 mm 0,0 UV-I 42 W/m² 14,8 °C 20,2 °C 3,2 km/h (1 Bft)
16.07.2018 19:45 20,2 °C 71 % 1009,1 hPa 0,0 mm 0,7 km/h (0 Bft) NO 49 ° 0 min 0,000 mm 0,0 UV-I 44 W/m² 14,8 °C 20,2 °C 1,6 km/h (1 Bft)
16.07.2018 19:46 20,1 °C 71 % 1009,1 hPa 0,0 mm 2,2 km/h (1 Bft) NO 49 ° 0 min 0,000 mm 0,0 UV-I 47 W/m² 14,7 °C 20,1 °C 4,8 km/h (1 Bft)
16.07.2018 19:47 20,1 °C 71 % 1009,1 hPa 0,0 mm 1,2 km/h (1 Bft) NO 49 ° 0 min 0,000 mm 0,0 UV-I 49 W/m² 14,7 °C 20,1 °C 3,2 km/h (1 Bft)
16.07.2018 19:48 20,0 °C 73 % 1009,2 hPa 0,0 mm 2,7 km/h (1 Bft) O-NO 74 ° 0 min 0,000 mm 0,0 UV-I 51 W/m² 15,0 °C 20,0 °C 6,4 km/h (2 Bft)
16.07.2018 19:49 19,9 °C 74 % 1009,2 hPa 0,0 mm 4,9 km/h (1 Bft) O-NO 72 ° 0 min 0,000 mm 0,0 UV-I 46 W/m² 15,1 °C 19,9 °C 6,4 km/h (2 Bft)
16.07.2018 19:50 19,8 °C 74 % 1009,2 hPa 0,0 mm 1,7 km/h (1 Bft) O-NO 72 ° 0 min 0,000 mm 0,0 UV-I 56 W/m² 15,0 °C 19,8 °C 3,2 km/h (1 Bft)
16.07.2018 19:51 19,8 °C 74 % 1009,3 hPa 0,0 mm 0,8 km/h (0 Bft) O-NO 72 ° 0 min 0,000 mm 0,0 UV-I 47 W/m² 15,0 °C 19,8 °C 3,2 km/h (1 Bft)
16.07.2018 19:52 19,7 °C 74 % 1009,2 hPa 0,0 mm 0,4 km/h (0 Bft) O-NO 72 ° 0 min 0,000 mm 0,0 UV-I 65 W/m² 14,9 °C 19,7 °C 1,6 km/h (1 Bft)
16.07.2018 19:53 19,7 °C 75 % 1009,3 hPa 0,0 mm 1,5 km/h (1 Bft) O-NO 74 ° 0 min 0,000 mm 0,0 UV-I 88 W/m² 15,1 °C 19,7 °C 3,2 km/h (1 Bft)
16.07.2018 19:54 19,6 °C 76 % 1009,2 hPa 0,0 mm 1,3 km/h (1 Bft) O-NO 74 ° 0 min 0,000 mm 0,0 UV-I 86 W/m² 15,2 °C 19,6 °C 3,2 km/h (1 Bft)
16.07.2018 19:55 19,6 °C 76 % 1009,3 hPa 0,0 mm 2,9 km/h (1 Bft) O 82 ° 0 min 0,000 mm 0,0 UV-I 98 W/m² 15,2 °C 19,6 °C 4,8 km/h (1 Bft)
16.07.2018 19:56 19,6 °C 76 % 1009,2 hPa 0,0 mm 2,8 km/h (1 Bft) O 84 ° 0 min 0,000 mm 0,0 UV-I 69 W/m² 15,2 °C 19,6 °C 4,8 km/h (1 Bft)
16.07.2018 19:57 19,4 °C 76 % 1009,2 hPa 0,0 mm 0,5 km/h (0 Bft) O 84 ° 0 min 0,000 mm 0,0 UV-I 84 W/m² 15,1 °C 19,4 °C 1,6 km/h (1 Bft)
16.07.2018 19:58 19,5 °C 76 % 1009,2 hPa 0,0 mm 0,9 km/h (0 Bft) O 84 ° 0 min 0,000 mm 0,0 UV-I 49 W/m² 15,2 °C 19,5 °C 1,6 km/h (1 Bft)
16.07.2018 19:59 19,5 °C 76 % 1009,2 hPa 0,0 mm 0,8 km/h (0 Bft) O 84 ° 0 min 0,000 mm 0,0 UV-I 79 W/m² 15,2 °C 19,5 °C 1,6 km/h (1 Bft)
16.07.2018 20:00 19,4 °C 77 % 1009,2 hPa 0,0 mm 1,2 km/h (1 Bft) O 84 ° 0 min 0,000 mm 0,0 UV-I 79 W/m² 15,3 °C 19,4 °C 4,8 km/h (1 Bft)
16.07.2018 20:01 19,4 °C 77 % 1009,2 hPa 0,0 mm 0,3 km/h (0 Bft) O 84 ° 0 min 0,076 mm 0,0 UV-I 70 W/m² 15,3 °C 19,4 °C 1,6 km/h (1 Bft)
16.07.2018 20:02 19,4 °C 77 % 1009,3 hPa 0,0 mm 0,9 km/h (0 Bft) O 84 ° 0 min 0,000 mm 0,0 UV-I 37 W/m² 15,3 °C 19,4 °C 1,6 km/h (1 Bft)
16.07.2018 20:03 19,4 °C 77 % 1009,3 hPa 0,0 mm 0,4 km/h (0 Bft) O 84 ° 0 min 0,000 mm 0,0 UV-I 32 W/m² 15,3 °C 19,4 °C 1,6 km/h (1 Bft)
16.07.2018 20:04 19,4 °C 77 % 1009,2 hPa 0,0 mm 0,4 km/h (0 Bft) O 84 ° 0 min 0,000 mm 0,0 UV-I 26 W/m² 15,3 °C 19,4 °C 1,6 km/h (1 Bft)
16.07.2018 20:05 19,4 °C 77 % 1009,2 hPa 0,0 mm 0,2 km/h (0 Bft) O 85 ° 0 min 0,000 mm 0,0 UV-I 25 W/m² 15,3 °C 19,4 °C 1,6 km/h (1 Bft)
16.07.2018 20:06 19,3 °C 77 % 1009,2 hPa 0,0 mm 0,0 km/h (0 Bft) O 85 ° 0 min 0,000 mm 0,0 UV-I 25 W/m² 15,2 °C 19,3 °C 0,0 km/h (0 Bft)
16.07.2018 20:07 19,2 °C 78 % 1009,3 hPa 0,0 mm 0,0 km/h (0 Bft) O 85 ° 0 min 0,000 mm 0,0 UV-I 25 W/m² 15,3 °C 19,2 °C 0,0 km/h (0 Bft)
16.07.2018 20:08 19,2 °C 77 % 1009,3 hPa 0,0 mm 0,0 km/h (0 Bft) O 85 ° 0 min 0,000 mm 0,0 UV-I 23 W/m² 15,1 °C 19,2 °C 0,0 km/h (0 Bft)
16.07.2018 20:09 19,1 °C 78 % 1009,3 hPa 0,0 mm 0,6 km/h (0 Bft) O 85 ° 0 min 0,000 mm 0,0 UV-I 21 W/m² 15,2 °C 19,1 °C 1,6 km/h (1 Bft)
16.07.2018 20:10 19,1 °C 78 % 1009,2 hPa 0,0 mm 1,7 km/h (1 Bft) O 85 ° 0 min 0,000 mm 0,0 UV-I 21 W/m² 15,2 °C 19,1 °C 3,2 km/h (1 Bft)
16.07.2018 20:11 19,1 °C 78 % 1009,3 hPa 0,0 mm 2,6 km/h (1 Bft) O 85 ° 0 min 0,000 mm 0,0 UV-I 19 W/m² 15,2 °C 19,1 °C 3,2 km/h (1 Bft)
16.07.2018 20:12 18,9 °C 78 % 1009,3 hPa 0,0 mm 0,3 km/h (0 Bft) O 85 ° 0 min 0,000 mm 0,0 UV-I 19 W/m² 15,0 °C 18,9 °C 1,6 km/h (1 Bft)
16.07.2018 20:13 18,9 °C 79 % 1009,3 hPa 0,0 mm 0,0 km/h (0 Bft) O 85 ° 0 min 0,000 mm 0,0 UV-I 19 W/m² 15,2 °C 18,9 °C 0,0 km/h (0 Bft)
16.07.2018 20:14 18,8 °C 79 % 1009,4 hPa 0,0 mm 0,4 km/h (0 Bft) O 85 ° 0 min 0,000 mm 0,0 UV-I 33 W/m² 15,1 °C 18,8 °C 1,6 km/h (1 Bft)
16.07.2018 20:15 18,7 °C 79 % 1009,4 hPa 0,0 mm 0,0 km/h (0 Bft) O 85 ° 0 min 0,000 mm 0,0 UV-I 46 W/m² 15,0 °C 18,7 °C 0,0 km/h (0 Bft)
16.07.2018 20:16 18,5 °C 80 % 1009,4 hPa 0,0 mm 0,0 km/h (0 Bft) O 85 ° 0 min 0,000 mm 0,0 UV-I 46 W/m² 15,0 °C 18,5 °C 0,0 km/h (0 Bft)
16.07.2018 20:17 18,4 °C 81 % 1009,4 hPa 0,0 mm 0,0 km/h (0 Bft) O 85 ° 0 min 0,000 mm 0,0 UV-I 46 W/m² 15,1 °C 18,4 °C 0,0 km/h (0 Bft)
16.07.2018 20:18 18,3 °C 81 % 1009,4 hPa 0,0 mm 0,0 km/h (0 Bft) O 85 ° 0 min 0,000 mm 0,0 UV-I 46 W/m² 15,0 °C 18,3 °C 0,0 km/h (0 Bft)
16.07.2018 20:19 18,3 °C 81 % 1009,4 hPa 0,0 mm 0,0 km/h (0 Bft) O 85 ° 0 min 0,000 mm 0,0 UV-I 44 W/m² 15,0 °C 18,3 °C 0,0 km/h (0 Bft)
16.07.2018 20:20 18,2 °C 81 % 1009,5 hPa 0,0 mm 0,0 km/h (0 Bft) O 85 ° 0 min 0,000 mm 0,0 UV-I 42 W/m² 14,9 °C 18,2 °C 0,0 km/h (0 Bft)
16.07.2018 20:21 18,2 °C 81 % 1009,4 hPa 0,0 mm 0,0 km/h (0 Bft) O 85 ° 0 min 0,000 mm 0,0 UV-I 42 W/m² 14,9 °C 18,2 °C 0,0 km/h (0 Bft)
16.07.2018 20:22 18,2 °C 81 % 1009,5 hPa 0,0 mm 0,0 km/h (0 Bft) O 85 ° 0 min 0,000 mm 0,0 UV-I 40 W/m² 14,9 °C 18,2 °C 0,0 km/h (0 Bft)
16.07.2018 20:23 18,2 °C 82 % 1009,4 hPa 0,0 mm 0,0 km/h (0 Bft) O 85 ° 0 min 0,000 mm 0,0 UV-I 37 W/m² 15,1 °C 18,2 °C 0,0 km/h (0 Bft)
16.07.2018 20:24 18,2 °C 82 % 1009,5 hPa 0,0 mm 0,0 km/h (0 Bft) O 85 ° 0 min 0,000 mm 0,0 UV-I 37 W/m² 15,1 °C 18,2 °C 0,0 km/h (0 Bft)
16.07.2018 20:25 18,2 °C 82 % 1009,5 hPa 0,0 mm 0,0 km/h (0 Bft) O 85 ° 0 min 0,000 mm 0,0 UV-I 37 W/m² 15,1 °C 18,2 °C 0,0 km/h (0 Bft)
16.07.2018 20:26 18,1 °C 82 % 1009,5 hPa 0,0 mm 0,0 km/h (0 Bft) O 85 ° 0 min 0,000 mm 0,0 UV-I 37 W/m² 15,0 °C 18,1 °C 0,0 km/h (0 Bft)
16.07.2018 20:27 18,1 °C 82 % 1009,5 hPa 0,0 mm 0,0 km/h (0 Bft) O 85 ° 0 min 0,000 mm 0,0 UV-I 35 W/m² 15,0 °C 18,1 °C 0,0 km/h (0 Bft)
16.07.2018 20:28 18,1 °C 82 % 1009,5 hPa 0,0 mm 0,0 km/h (0 Bft) O 85 ° 0 min 0,000 mm 0,0 UV-I 35 W/m² 15,0 °C 18,1 °C 0,0 km/h (0 Bft)
16.07.2018 20:29 18,1 °C 82 % 1009,6 hPa 0,0 mm 0,0 km/h (0 Bft) O 85 ° 0 min 0,000 mm 0,0 UV-I 33 W/m² 15,0 °C 18,1 °C 0,0 km/h (0 Bft)
16.07.2018 20:30 18,1 °C 83 % 1009,5 hPa 0,0 mm 0,0 km/h (0 Bft) O 85 ° 0 min 0,000 mm 0,0 UV-I 33 W/m² 15,2 °C 18,1 °C 0,0 km/h (0 Bft)
16.07.2018 20:31 18,1 °C 83 % 1009,5 hPa 0,0 mm 0,0 km/h (0 Bft) O 85 ° 0 min 0,000 mm 0,0 UV-I 32 W/m² 15,2 °C 18,1 °C 0,0 km/h (0 Bft)
16.07.2018 20:32 18,1 °C 82 % 1009,5 hPa 0,0 mm 0,0 km/h (0 Bft) O 85 ° 0 min 0,000 mm 0,0 UV-I 30 W/m² 15,0 °C 18,1 °C 0,0 km/h (0 Bft)
16.07.2018 20:33 18,1 °C 83 % 1009,6 hPa 0,0 mm 0,0 km/h (0 Bft) O 85 ° 0 min 0,000 mm 0,0 UV-I 28 W/m² 15,2 °C 18,1 °C 0,0 km/h (0 Bft)
16.07.2018 20:34 18,1 °C 83 % 1009,5 hPa 0,0 mm 0,0 km/h (0 Bft) O 85 ° 0 min 0,000 mm 0,0 UV-I 26 W/m² 15,2 °C 18,1 °C 0,0 km/h (0 Bft)
16.07.2018 20:35 18,1 °C 82 % 1009,5 hPa 0,0 mm 0,0 km/h (0 Bft) O 85 ° 0 min 0,000 mm 0,0 UV-I 26 W/m² 15,0 °C 18,1 °C 0,0 km/h (0 Bft)
16.07.2018 20:36 18,1 °C 82 % 1009,5 hPa 0,0 mm 0,0 km/h (0 Bft) O 85 ° 0 min 0,000 mm 0,0 UV-I 25 W/m² 15,0 °C 18,1 °C 0,0 km/h (0 Bft)
16.07.2018 20:37 18,1 °C 82 % 1009,4 hPa 0,0 mm 0,0 km/h (0 Bft) O 85 ° 0 min 0,000 mm 0,0 UV-I 23 W/m² 15,0 °C 18,1 °C 0,0 km/h (0 Bft)
16.07.2018 20:38 18,0 °C 83 % 1009,4 hPa 0,0 mm 0,0 km/h (0 Bft) O 85 ° 0 min 0,000 mm 0,0 UV-I 23 W/m² 15,1 °C 18,0 °C 0,0 km/h (0 Bft)
16.07.2018 20:39 17,9 °C 83 % 1009,5 hPa 0,0 mm 0,0 km/h (0 Bft) O 85 ° 0 min 0,000 mm 0,0 UV-I 21 W/m² 15,0 °C 17,9 °C 0,0 km/h (0 Bft)
16.07.2018 20:40 17,9 °C 83 % 1009,4 hPa 0,0 mm 0,0 km/h (0 Bft) O 85 ° 0 min 0,000 mm 0,0 UV-I 21 W/m² 15,0 °C 17,9 °C 0,0 km/h (0 Bft)
16.07.2018 20:41 17,8 °C 83 % 1009,5 hPa 0,0 mm 0,0 km/h (0 Bft) O 85 ° 0 min 0,000 mm 0,0 UV-I 21 W/m² 14,9 °C 17,8 °C 0,0 km/h (0 Bft)
16.07.2018 20:42 17,8 °C 83 % 1009,5 hPa 0,0 mm 0,0 km/h (0 Bft) O 85 ° 0 min 0,000 mm 0,0 UV-I 21 W/m² 14,9 °C 17,8 °C 0,0 km/h (0 Bft)
16.07.2018 20:43 17,8 °C 83 % 1009,5 hPa 0,0 mm 0,0 km/h (0 Bft) O 85 ° 0 min 0,000 mm 0,0 UV-I 19 W/m² 14,9 °C 17,8 °C 0,0 km/h (0 Bft)
16.07.2018 20:44 17,8 °C 83 % 1009,5 hPa 0,0 mm 0,5 km/h (0 Bft) O 85 ° 0 min 0,000 mm 0,0 UV-I 19 W/m² 14,9 °C 17,8 °C 3,2 km/h (1 Bft)
16.07.2018 20:45 17,8 °C 83 % 1009,6 hPa 0,0 mm 0,5 km/h (0 Bft) O 85 ° 0 min 0,000 mm 0,0 UV-I 19 W/m² 14,9 °C 17,8 °C 3,2 km/h (1 Bft)
16.07.2018 20:46 17,7 °C 83 % 1009,6 hPa 0,0 mm 0,0 km/h (0 Bft) O 85 ° 0 min 0,000 mm 0,0 UV-I 19 W/m² 14,8 °C 17,7 °C 0,0 km/h (0 Bft)
16.07.2018 20:47 17,7 °C 83 % 1009,6 hPa 0,0 mm 0,0 km/h (0 Bft) O 85 ° 0 min 0,000 mm 0,0 UV-I 18 W/m² 14,8 °C 17,7 °C 0,0 km/h (0 Bft)
16.07.2018 20:48 17,7 °C 83 % 1009,7 hPa 0,0 mm 0,0 km/h (0 Bft) O 85 ° 0 min 0,000 mm 0,0 UV-I 18 W/m² 14,8 °C 17,7 °C 0,0 km/h (0 Bft)
16.07.2018 20:49 17,7 °C 83 % 1009,7 hPa 0,0 mm 0,0 km/h (0 Bft) O 85 ° 0 min 0,000 mm 0,0 UV-I 16 W/m² 14,8 °C 17,7 °C 0,0 km/h (0 Bft)
16.07.2018 20:50 17,7 °C 83 % 1009,7 hPa 0,0 mm 0,0 km/h (0 Bft) O 85 ° 0 min 0,000 mm 0,0 UV-I 16 W/m² 14,8 °C 17,7 °C 0,0 km/h (0 Bft)
16.07.2018 20:51 17,6 °C 83 % 1009,7 hPa 0,0 mm 0,0 km/h (0 Bft) O 85 ° 0 min 0,000 mm 0,0 UV-I 16 W/m² 14,7 °C 17,6 °C 0,0 km/h (0 Bft)
16.07.2018 20:52 17,6 °C 83 % 1009,7 hPa 0,0 mm 0,0 km/h (0 Bft) O 85 ° 0 min 0,000 mm 0,0 UV-I 14 W/m² 14,7 °C 17,6 °C 0,0 km/h (0 Bft)
16.07.2018 20:53 17,5 °C 83 % 1009,7 hPa 0,0 mm 0,0 km/h (0 Bft) O 85 ° 0 min 0,000 mm 0,0 UV-I 14 W/m² 14,6 °C 17,5 °C 0,0 km/h (0 Bft)
16.07.2018 20:54 17,4 °C 83 % 1009,7 hPa 0,0 mm 0,0 km/h (0 Bft) O 85 ° 0 min 0,000 mm 0,0 UV-I 14 W/m² 14,5 °C 17,4 °C 0,0 km/h (0 Bft)
16.07.2018 20:55 17,4 °C 83 % 1009,7 hPa 0,0 mm 0,0 km/h (0 Bft) O 85 ° 0 min 0,000 mm 0,0 UV-I 12 W/m² 14,5 °C 17,4 °C 0,0 km/h (0 Bft)
16.07.2018 20:56 17,4 °C 83 % 1009,7 hPa 0,0 mm 0,0 km/h (0 Bft) O 85 ° 0 min 0,000 mm 0,0 UV-I 12 W/m² 14,5 °C 17,4 °C 0,0 km/h (0 Bft)
16.07.2018 20:57 17,3 °C 84 % 1009,7 hPa 0,0 mm 0,0 km/h (0 Bft) O 85 ° 0 min 0,000 mm 0,0 UV-I 12 W/m² 14,6 °C 17,3 °C 0,0 km/h (0 Bft)
16.07.2018 20:58 17,3 °C 84 % 1009,7 hPa 0,0 mm 0,0 km/h (0 Bft) O 85 ° 0 min 0,000 mm 0,0 UV-I 11 W/m² 14,6 °C 17,3 °C 0,0 km/h (0 Bft)
16.07.2018 20:59 17,2 °C 84 % 1009,7 hPa 0,0 mm 0,0 km/h (0 Bft) O 85 ° 0 min 0,000 mm 0,0 UV-I 11 W/m² 14,5 °C 17,2 °C 0,0 km/h (0 Bft)
16.07.2018 21:00 17,2 °C 84 % 1009,8 hPa 0,0 mm 0,0 km/h (0 Bft) O 85 ° 0 min 0,000 mm 0,0 UV-I 9 W/m² 14,5 °C 17,2 °C 0,0 km/h (0 Bft)
16.07.2018 21:01 17,1 °C 84 % 1009,8 hPa 0,0 mm 0,0 km/h (0 Bft) O 85 ° 0 min 0,026 mm 0,0 UV-I 7 W/m² 14,4 °C 17,1 °C 0,0 km/h (0 Bft)
16.07.2018 21:02 17,1 °C 84 % 1009,9 hPa 0,0 mm 0,0 km/h (0 Bft) O 85 ° 0 min 0,000 mm 0,0 UV-I 7 W/m² 14,4 °C 17,1 °C 0,0 km/h (0 Bft)
16.07.2018 21:03 16,9 °C 84 % 1009,8 hPa 0,0 mm 0,0 km/h (0 Bft) O 85 ° 0 min 0,000 mm 0,0 UV-I 5 W/m² 14,2 °C 16,9 °C 0,0 km/h (0 Bft)
16.07.2018 21:04 16,9 °C 84 % 1009,9 hPa 0,0 mm 0,0 km/h (0 Bft) O 85 ° 0 min 0,000 mm 0,0 UV-I 5 W/m² 14,2 °C 16,9 °C 0,0 km/h (0 Bft)
16.07.2018 21:05 16,9 °C 84 % 1009,9 hPa 0,0 mm 0,0 km/h (0 Bft) O 85 ° 0 min 0,000 mm 0,0 UV-I 5 W/m² 14,2 °C 16,9 °C 0,0 km/h (0 Bft)
16.07.2018 21:06 16,9 °C 85 % 1009,9 hPa 0,0 mm 0,0 km/h (0 Bft) O 85 ° 0 min 0,000 mm 0,0 UV-I 0 W/m² 14,4 °C 16,9 °C 0,0 km/h (0 Bft)
16.07.2018 21:07 16,9 °C 85 % 1009,9 hPa 0,0 mm 0,0 km/h (0 Bft) O 85 ° 0 min 0,000 mm 0,0 UV-I 0 W/m² 14,4 °C 16,9 °C 0,0 km/h (0 Bft)
16.07.2018 21:08 16,9 °C 85 % 1009,9 hPa 0,0 mm 0,0 km/h (0 Bft) O 85 ° 0 min 0,000 mm 0,0 UV-I 0 W/m² 14,4 °C 16,9 °C 0,0 km/h (0 Bft)
16.07.2018 21:09 16,8 °C 84 % 1009,8 hPa 0,0 mm 0,0 km/h (0 Bft) O 85 ° 0 min 0,000 mm 0,0 UV-I 0 W/m² 14,1 °C 16,8 °C 0,0 km/h (0 Bft)
16.07.2018 21:10 16,8 °C 84 % 1009,9 hPa 0,0 mm 0,0 km/h (0 Bft) O 85 ° 0 min 0,000 mm 0,0 UV-I 0 W/m² 14,1 °C 16,8 °C 0,0 km/h (0 Bft)
16.07.2018 21:11 16,8 °C 84 % 1009,9 hPa 0,0 mm 0,0 km/h (0 Bft) O 85 ° 0 min 0,000 mm 0,0 UV-I 0 W/m² 14,1 °C 16,8 °C 0,0 km/h (0 Bft)
16.07.2018 21:12 16,8 °C 84 % 1009,9 hPa 0,0 mm 0,0 km/h (0 Bft) O 85 ° 0 min 0,000 mm 0,0 UV-I 0 W/m² 14,1 °C 16,8 °C 0,0 km/h (0 Bft)
16.07.2018 21:13 16,7 °C 84 % 1009,9 hPa 0,0 mm 0,0 km/h (0 Bft) O 85 ° 0 min 0,000 mm 0,0 UV-I 0 W/m² 14,0 °C 16,7 °C 0,0 km/h (0 Bft)
16.07.2018 21:14 16,6 °C 84 % 1009,9 hPa 0,0 mm 0,0 km/h (0 Bft) O 85 ° 0 min 0,000 mm 0,0 UV-I 0 W/m² 13,9 °C 16,6 °C 0,0 km/h (0 Bft)
16.07.2018 21:15 16,6 °C 84 % 1009,9 hPa 0,0 mm 0,0 km/h (0 Bft) O 85 ° 0 min 0,000 mm 0,0 UV-I 0 W/m² 13,9 °C 16,6 °C 0,0 km/h (0 Bft)
16.07.2018 21:16 16,6 °C 85 % 1009,9 hPa 0,0 mm 0,0 km/h (0 Bft) O 85 ° 0 min 0,000 mm 0,0 UV-I 0 W/m² 14,1 °C 16,6 °C 0,0 km/h (0 Bft)
16.07.2018 21:17 16,6 °C 85 % 1009,9 hPa 0,0 mm 0,2 km/h (0 Bft) O 85 ° 0 min 0,000 mm 0,0 UV-I 0 W/m² 14,1 °C 16,6 °C 1,6 km/h (1 Bft)
16.07.2018 21:18 16,6 °C 85 % 1009,9 hPa 0,0 mm 1,0 km/h (0 Bft) O 85 ° 0 min 0,000 mm 0,0 UV-I 0 W/m² 14,1 °C 16,6 °C 1,6 km/h (1 Bft)
16.07.2018 21:19 16,5 °C 84 % 1010,0 hPa 0,0 mm 1,1 km/h (1 Bft) O 85 ° 0 min 0,000 mm 0,0 UV-I 0 W/m² 13,8 °C 16,5 °C 3,2 km/h (1 Bft)
16.07.2018 21:20 16,4 °C 84 % 1009,9 hPa 0,0 mm 0,6 km/h (0 Bft) O 85 ° 0 min 0,000 mm 0,0 UV-I 0 W/m² 13,7 °C 16,4 °C 3,2 km/h (1 Bft)
16.07.2018 21:21 16,4 °C 84 % 1009,9 hPa 0,0 mm 2,1 km/h (1 Bft) O 85 ° 0 min 0,000 mm 0,0 UV-I 0 W/m² 13,7 °C 16,4 °C 3,2 km/h (1 Bft)
16.07.2018 21:22 16,3 °C 84 % 1009,9 hPa 0,0 mm 1,1 km/h (1 Bft) O 85 ° 0 min 0,000 mm 0,0 UV-I 0 W/m² 13,6 °C 16,3 °C 3,2 km/h (1 Bft)
16.07.2018 21:23 16,3 °C 84 % 1009,9 hPa 0,0 mm 1,7 km/h (1 Bft) O 85 ° 0 min 0,000 mm 0,0 UV-I 0 W/m² 13,6 °C 16,3 °C 3,2 km/h (1 Bft)
16.07.2018 21:24 16,2 °C 84 % 1009,9 hPa 0,0 mm 0,9 km/h (0 Bft) O 85 ° 0 min 0,000 mm 0,0 UV-I 0 W/m² 13,5 °C 16,2 °C 3,2 km/h (1 Bft)
16.07.2018 21:25 16,2 °C 85 % 1010,0 hPa 0,0 mm 0,0 km/h (0 Bft) O 85 ° 0 min 0,000 mm 0,0 UV-I 0 W/m² 13,7 °C 16,2 °C 0,0 km/h (0 Bft)
16.07.2018 21:26 16,1 °C 85 % 1009,9 hPa 0,0 mm 0,0 km/h (0 Bft) O 85 ° 0 min 0,000 mm 0,0 UV-I 0 W/m² 13,6 °C 16,1 °C 0,0 km/h (0 Bft)
16.07.2018 21:27 16,0 °C 85 % 1009,9 hPa 0,0 mm 0,0 km/h (0 Bft) O 85 ° 0 min 0,000 mm 0,0 UV-I 0 W/m² 13,5 °C 16,0 °C 0,0 km/h (0 Bft)
16.07.2018 21:28 16,0 °C 85 % 1009,9 hPa 0,0 mm 0,0 km/h (0 Bft) O 85 ° 0 min 0,000 mm 0,0 UV-I 0 W/m² 13,5 °C 16,0 °C 0,0 km/h (0 Bft)
16.07.2018 21:29 15,9 °C 85 % 1010,0 hPa 0,0 mm 0,0 km/h (0 Bft) O 85 ° 0 min 0,000 mm 0,0 UV-I 0 W/m² 13,4 °C 15,9 °C 0,0 km/h (0 Bft)
16.07.2018 21:30 15,9 °C 85 % 1010,0 hPa 0,0 mm 0,0 km/h (0 Bft) O 85 ° 0 min 0,000 mm 0,0 UV-I 0 W/m² 13,4 °C 15,9 °C 0,0 km/h (0 Bft)
16.07.2018 21:31 15,8 °C 85 % 1010,0 hPa 0,0 mm 0,0 km/h (0 Bft) O 85 ° 0 min 0,000 mm 0,0 UV-I 0 W/m² 13,3 °C 15,8 °C 0,0 km/h (0 Bft)
16.07.2018 21:32 15,7 °C 85 % 1010,0 hPa 0,0 mm 0,0 km/h (0 Bft) O 85 ° 0 min 0,000 mm 0,0 UV-I 0 W/m² 13,2 °C 15,7 °C 0,0 km/h (0 Bft)
16.07.2018 21:33 15,6 °C 86 % 1010,0 hPa 0,0 mm 0,0 km/h (0 Bft) O 85 ° 0 min 0,000 mm 0,0 UV-I 0 W/m² 13,3 °C 15,6 °C 0,0 km/h (0 Bft)
16.07.2018 21:34 15,6 °C 86 % 1010,1 hPa 0,0 mm 0,0 km/h (0 Bft) O 85 ° 0 min 0,000 mm 0,0 UV-I 0 W/m² 13,3 °C 15,6 °C 0,0 km/h (0 Bft)
16.07.2018 21:35 15,5 °C 86 % 1010,1 hPa 0,0 mm 0,0 km/h (0 Bft) O 85 ° 0 min 0,000 mm 0,0 UV-I 0 W/m² 13,2 °C 15,5 °C 0,0 km/h (0 Bft)
16.07.2018 21:36 15,4 °C 86 % 1010,1 hPa 0,0 mm 0,0 km/h (0 Bft) O 85 ° 0 min 0,000 mm 0,0 UV-I 0 W/m² 13,1 °C 15,4 °C 0,0 km/h (0 Bft)
16.07.2018 21:37 15,3 °C 86 % 1010,1 hPa 0,0 mm 0,0 km/h (0 Bft) O 85 ° 0 min 0,000 mm 0,0 UV-I 0 W/m² 13,0 °C 15,3 °C 0,0 km/h (0 Bft)
16.07.2018 21:38 15,3 °C 86 % 1010,1 hPa 0,0 mm 0,0 km/h (0 Bft) O 85 ° 0 min 0,000 mm 0,0 UV-I 0 W/m² 13,0 °C 15,3 °C 0,0 km/h (0 Bft)
16.07.2018 21:39 15,3 °C 87 % 1010,1 hPa 0,0 mm 0,0 km/h (0 Bft) O 85 ° 0 min 0,000 mm 0,0 UV-I 0 W/m² 13,1 °C 15,3 °C 0,0 km/h (0 Bft)
16.07.2018 21:40 15,2 °C 87 % 1010,2 hPa 0,0 mm 0,0 km/h (0 Bft) O 85 ° 0 min 0,000 mm 0,0 UV-I 0 W/m² 13,0 °C 15,2 °C 0,0 km/h (0 Bft)
16.07.2018 21:41 15,2 °C 87 % 1010,2 hPa 0,0 mm 0,0 km/h (0 Bft) O 85 ° 0 min 0,000 mm 0,0 UV-I 0 W/m² 13,0 °C 15,2 °C 0,0 km/h (0 Bft)
16.07.2018 21:42 15,2 °C 87 % 1010,2 hPa 0,0 mm 0,0 km/h (0 Bft) O 85 ° 0 min 0,000 mm 0,0 UV-I 0 W/m² 13,0 °C 15,2 °C 0,0 km/h (0 Bft)
16.07.2018 21:43 15,2 °C 87 % 1010,2 hPa 0,0 mm 0,0 km/h (0 Bft) O 85 ° 0 min 0,000 mm 0,0 UV-I 0 W/m² 13,0 °C 15,2 °C 0,0 km/h (0 Bft)
16.07.2018 21:44 15,1 °C 87 % 1010,2 hPa 0,0 mm 0,0 km/h (0 Bft) O 85 ° 0 min 0,000 mm 0,0 UV-I 0 W/m² 13,0 °C 15,1 °C 0,0 km/h (0 Bft)
16.07.2018 21:45 15,1 °C 87 % 1010,2 hPa 0,0 mm 0,0 km/h (0 Bft) O 85 ° 0 min 0,000 mm 0,0 UV-I 0 W/m² 13,0 °C 15,1 °C 0,0 km/h (0 Bft)
16.07.2018 21:46 15,0 °C 87 % 1010,2 hPa 0,0 mm 0,0 km/h (0 Bft) O 85 ° 0 min 0,000 mm 0,0 UV-I 0 W/m² 12,9 °C 15,0 °C 0,0 km/h (0 Bft)
16.07.2018 21:47 15,0 °C 87 % 1010,2 hPa 0,0 mm 0,0 km/h (0 Bft) O 85 ° 0 min 0,000 mm 0,0 UV-I 0 W/m² 12,9 °C 15,0 °C 0,0 km/h (0 Bft)
16.07.2018 21:48 14,9 °C 87 % 1010,2 hPa 0,0 mm 0,0 km/h (0 Bft) O 85 ° 0 min 0,000 mm 0,0 UV-I 0 W/m² 12,8 °C 14,9 °C 0,0 km/h (0 Bft)
16.07.2018 21:49 14,9 °C 87 % 1010,2 hPa 0,0 mm 0,0 km/h (0 Bft) O 85 ° 0 min 0,000 mm 0,0 UV-I 0 W/m² 12,8 °C 14,9 °C 0,0 km/h (0 Bft)
16.07.2018 21:50 14,9 °C 88 % 1010,2 hPa 0,0 mm 0,0 km/h (0 Bft) O 85 ° 0 min 0,000 mm 0,0 UV-I 0 W/m² 12,9 °C 14,9 °C 0,0 km/h (0 Bft)
16.07.2018 21:51 14,9 °C 88 % 1010,2 hPa 0,0 mm 0,0 km/h (0 Bft) O 85 ° 0 min 0,000 mm 0,0 UV-I 0 W/m² 12,9 °C 14,9 °C 0,0 km/h (0 Bft)
16.07.2018 21:52 14,9 °C 87 % 1010,3 hPa 0,0 mm 0,0 km/h (0 Bft) O 85 ° 0 min 0,000 mm 0,0 UV-I 0 W/m² 12,8 °C 14,9 °C 0,0 km/h (0 Bft)
16.07.2018 21:53 14,9 °C 87 % 1010,3 hPa 0,0 mm 0,0 km/h (0 Bft) O 85 ° 0 min 0,000 mm 0,0 UV-I 0 W/m² 12,8 °C 14,9 °C 0,0 km/h (0 Bft)
16.07.2018 21:54 14,9 °C 87 % 1010,3 hPa 0,0 mm 0,0 km/h (0 Bft) O 85 ° 0 min 0,000 mm 0,0 UV-I 0 W/m² 12,8 °C 14,9 °C 0,0 km/h (0 Bft)
16.07.2018 21:55 14,8 °C 87 % 1010,3 hPa 0,0 mm 0,0 km/h (0 Bft) O 85 ° 0 min 0,000 mm 0,0 UV-I 0 W/m² 12,7 °C 14,8 °C 0,0 km/h (0 Bft)
16.07.2018 21:56 14,8 °C 88 % 1010,3 hPa 0,0 mm 0,0 km/h (0 Bft) O 85 ° 0 min 0,000 mm 0,0 UV-I 0 W/m² 12,8 °C 14,8 °C 0,0 km/h (0 Bft)
16.07.2018 21:57 14,8 °C 88 % 1010,4 hPa 0,0 mm 0,0 km/h (0 Bft) O 85 ° 0 min 0,000 mm 0,0 UV-I 0 W/m² 12,8 °C 14,8 °C 0,0 km/h (0 Bft)
16.07.2018 21:58 14,7 °C 88 % 1010,3 hPa 0,0 mm 0,0 km/h (0 Bft) O 85 ° 0 min 0,000 mm 0,0 UV-I 0 W/m² 12,7 °C 14,7 °C 0,0 km/h (0 Bft)
16.07.2018 21:59 14,7 °C 88 % 1010,4 hPa 0,0 mm 0,0 km/h (0 Bft) O 85 ° 0 min 0,000 mm 0,0 UV-I 0 W/m² 12,7 °C 14,7 °C 0,0 km/h (0 Bft)
16.07.2018 22:00 14,7 °C 88 % 1010,3 hPa 0,0 mm 0,0 km/h (0 Bft) O 85 ° 0 min 0,000 mm 0,0 UV-I 0 W/m² 12,7 °C 14,7 °C 0,0 km/h (0 Bft)
16.07.2018 22:01 14,7 °C 88 % 1010,3 hPa 0,0 mm 0,0 km/h (0 Bft) O 85 ° 0 min 0,000 mm 0,0 UV-I 0 W/m² 12,7 °C 14,7 °C 0,0 km/h (0 Bft)
16.07.2018 22:02 14,7 °C 88 % 1010,3 hPa 0,0 mm 0,0 km/h (0 Bft) O 86 ° 0 min 0,000 mm 0,0 UV-I 0 W/m² 12,7 °C 14,7 °C 0,0 km/h (0 Bft)
16.07.2018 22:03 14,8 °C 88 % 1010,4 hPa 0,0 mm 0,0 km/h (0 Bft) O 86 ° 0 min 0,000 mm 0,0 UV-I 0 W/m² 12,8 °C 14,8 °C 0,0 km/h (0 Bft)
16.07.2018 22:04 14,8 °C 88 % 1010,4 hPa 0,0 mm 0,0 km/h (0 Bft) O 86 ° 0 min 0,000 mm 0,0 UV-I 0 W/m² 12,8 °C 14,8 °C 0,0 km/h (0 Bft)
16.07.2018 22:05 14,7 °C 88 % 1010,4 hPa 0,0 mm 0,0 km/h (0 Bft) O 86 ° 0 min 0,000 mm 0,0 UV-I 0 W/m² 12,7 °C 14,7 °C 0,0 km/h (0 Bft)
16.07.2018 22:06 14,7 °C 87 % 1010,4 hPa 0,0 mm 0,0 km/h (0 Bft) O 86 ° 0 min 0,000 mm 0,0 UV-I 0 W/m² 12,6 °C 14,7 °C 0,0 km/h (0 Bft)
16.07.2018 22:07 14,6 °C 87 % 1010,3 hPa 0,0 mm 0,0 km/h (0 Bft) O 86 ° 0 min 0,000 mm 0,0 UV-I 0 W/m² 12,5 °C 14,6 °C 0,0 km/h (0 Bft)
16.07.2018 22:08 14,5 °C 88 % 1010,3 hPa 0,0 mm 0,0 km/h (0 Bft) O 86 ° 0 min 0,000 mm 0,0 UV-I 0 W/m² 12,5 °C 14,5 °C 0,0 km/h (0 Bft)
16.07.2018 22:09 14,4 °C 88 % 1010,3 hPa 0,0 mm 0,0 km/h (0 Bft) O 86 ° 0 min 0,000 mm 0,0 UV-I 0 W/m² 12,4 °C 14,4 °C 0,0 km/h (0 Bft)
16.07.2018 22:10 14,4 °C 88 % 1010,3 hPa 0,0 mm 0,0 km/h (0 Bft) O 86 ° 0 min 0,000 mm 0,0 UV-I 0 W/m² 12,4 °C 14,4 °C 0,0 km/h (0 Bft)
16.07.2018 22:11 14,3 °C 88 % 1010,3 hPa 0,0 mm 0,0 km/h (0 Bft) O 86 ° 0 min 0,000 mm 0,0 UV-I 0 W/m² 12,3 °C 14,3 °C 0,0 km/h (0 Bft)
16.07.2018 22:12 14,3 °C 88 % 1010,4 hPa 0,0 mm 0,0 km/h (0 Bft) O 86 ° 0 min 0,000 mm 0,0 UV-I 0 W/m² 12,3 °C 14,3 °C 0,0 km/h (0 Bft)
16.07.2018 22:13 14,3 °C 88 % 1010,4 hPa 0,0 mm 0,0 km/h (0 Bft) O 86 ° 0 min 0,000 mm 0,0 UV-I 0 W/m² 12,3 °C 14,3 °C 0,0 km/h (0 Bft)
16.07.2018 22:14 14,3 °C 88 % 1010,3 hPa 0,0 mm 0,0 km/h (0 Bft) O 86 ° 0 min 0,000 mm 0,0 UV-I 0 W/m² 12,3 °C 14,3 °C 0,0 km/h (0 Bft)
16.07.2018 22:15 14,3 °C 89 % 1010,3 hPa 0,0 mm 0,0 km/h (0 Bft) O 86 ° 0 min 0,000 mm 0,0 UV-I 0 W/m² 12,5 °C 14,3 °C 0,0 km/h (0 Bft)
16.07.2018 22:16 14,3 °C 89 % 1010,4 hPa 0,0 mm 0,0 km/h (0 Bft) O 86 ° 0 min 0,000 mm 0,0 UV-I 0 W/m² 12,5 °C 14,3 °C 0,0 km/h (0 Bft)
16.07.2018 22:17 14,3 °C 89 % 1010,4 hPa 0,0 mm 0,0 km/h (0 Bft) O 86 ° 0 min 0,000 mm 0,0 UV-I 0 W/m² 12,5 °C 14,3 °C 0,0 km/h (0 Bft)
16.07.2018 22:18 14,3 °C 89 % 1010,4 hPa 0,0 mm 0,0 km/h (0 Bft) O 86 ° 0 min 0,000 mm 0,0 UV-I 0 W/m² 12,5 °C 14,3 °C 0,0 km/h (0 Bft)
16.07.2018 22:19 14,3 °C 89 % 1010,4 hPa 0,0 mm 0,0 km/h (0 Bft) O 86 ° 0 min 0,000 mm 0,0 UV-I 0 W/m² 12,5 °C 14,3 °C 0,0 km/h (0 Bft)
16.07.2018 22:20 14,3 °C 89 % 1010,4 hPa 0,0 mm 0,0 km/h (0 Bft) O 86 ° 0 min 0,000 mm 0,0 UV-I 0 W/m² 12,5 °C 14,3 °C 0,0 km/h (0 Bft)
16.07.2018 22:21 14,3 °C 89 % 1010,4 hPa 0,0 mm 0,0 km/h (0 Bft) O 86 ° 0 min 0,000 mm 0,0 UV-I 0 W/m² 12,5 °C 14,3 °C 0,0 km/h (0 Bft)
16.07.2018 22:22 14,3 °C 89 % 1010,4 hPa 0,0 mm 0,0 km/h (0 Bft) O 86 ° 0 min 0,000 mm 0,0 UV-I 0 W/m² 12,5 °C 14,3 °C 0,0 km/h (0 Bft)
16.07.2018 22:23 14,2 °C 90 % 1010,4 hPa 0,0 mm 0,0 km/h (0 Bft) O 86 ° 0 min 0,000 mm 0,0 UV-I 0 W/m² 12,6 °C 14,2 °C 0,0 km/h (0 Bft)
16.07.2018 22:24 14,2 °C 90 % 1010,4 hPa 0,0 mm 0,0 km/h (0 Bft) O 86 ° 0 min 0,000 mm 0,0 UV-I 0 W/m² 12,6 °C 14,2 °C 0,0 km/h (0 Bft)
16.07.2018 22:25 14,2 °C 90 % 1010,5 hPa 0,0 mm 0,0 km/h (0 Bft) O 86 ° 0 min 0,000 mm 0,0 UV-I 0 W/m² 12,6 °C 14,2 °C 0,0 km/h (0 Bft)
16.07.2018 22:26 14,2 °C 90 % 1010,5 hPa 0,0 mm 0,0 km/h (0 Bft) O 86 ° 0 min 0,000 mm 0,0 UV-I 0 W/m² 12,6 °C 14,2 °C 0,0 km/h (0 Bft)
16.07.2018 22:27 14,2 °C 90 % 1010,4 hPa 0,0 mm 0,0 km/h (0 Bft) O 86 ° 0 min 0,000 mm 0,0 UV-I 0 W/m² 12,6 °C 14,2 °C 0,0 km/h (0 Bft)
16.07.2018 22:28 14,1 °C 90 % 1010,4 hPa 0,0 mm 0,0 km/h (0 Bft) O 86 ° 0 min 0,000 mm 0,0 UV-I 0 W/m² 12,5 °C 14,1 °C 0,0 km/h (0 Bft)
16.07.2018 22:29 14,1 °C 90 % 1010,4 hPa 0,0 mm 0,0 km/h (0 Bft) O 86 ° 0 min 0,000 mm 0,0 UV-I 0 W/m² 12,5 °C 14,1 °C 0,0 km/h (0 Bft)
16.07.2018 22:30 14,1 °C 90 % 1010,4 hPa 0,0 mm 0,0 km/h (0 Bft) O 86 ° 0 min 0,000 mm 0,0 UV-I 0 W/m² 12,5 °C 14,1 °C 0,0 km/h (0 Bft)
16.07.2018 22:31 14,1 °C 90 % 1010,4 hPa 0,0 mm 0,0 km/h (0 Bft) O 86 ° 0 min 0,000 mm 0,0 UV-I 0 W/m² 12,5 °C 14,1 °C 0,0 km/h (0 Bft)
16.07.2018 22:32 14,2 °C 90 % 1010,4 hPa 0,0 mm 0,0 km/h (0 Bft) O 86 ° 0 min 0,000 mm 0,0 UV-I 0 W/m² 12,6 °C 14,2 °C 0,0 km/h (0 Bft)
16.07.2018 22:33 14,1 °C 90 % 1010,3 hPa 0,0 mm 0,0 km/h (0 Bft) O 86 ° 0 min 0,000 mm 0,0 UV-I 0 W/m² 12,5 °C 14,1 °C 0,0 km/h (0 Bft)
16.07.2018 22:34 14,2 °C 91 % 1010,3 hPa 0,0 mm 0,0 km/h (0 Bft) O 86 ° 0 min 0,000 mm 0,0 UV-I 0 W/m² 12,8 °C 14,2 °C 0,0 km/h (0 Bft)
16.07.2018 22:35 14,2 °C 91 % 1010,3 hPa 0,0 mm 0,0 km/h (0 Bft) O 86 ° 0 min 0,000 mm 0,0 UV-I 0 W/m² 12,8 °C 14,2 °C 0,0 km/h (0 Bft)
16.07.2018 22:36 14,2 °C 91 % 1010,3 hPa 0,0 mm 0,0 km/h (0 Bft) O 86 ° 0 min 0,000 mm 0,0 UV-I 0 W/m² 12,8 °C 14,2 °C 0,0 km/h (0 Bft)
16.07.2018 22:37 14,3 °C 91 % 1010,3 hPa 0,0 mm 0,0 km/h (0 Bft) O 86 ° 0 min 0,000 mm 0,0 UV-I 0 W/m² 12,8 °C 14,3 °C 0,0 km/h (0 Bft)
16.07.2018 22:38 14,3 °C 91 % 1010,3 hPa 0,0 mm 0,0 km/h (0 Bft) O 86 ° 0 min 0,000 mm 0,0 UV-I 0 W/m² 12,8 °C 14,3 °C 0,0 km/h (0 Bft)
16.07.2018 22:39 14,3 °C 90 % 1010,2 hPa 0,0 mm 0,0 km/h (0 Bft) O 86 ° 0 min 0,000 mm 0,0 UV-I 0 W/m² 12,7 °C 14,3 °C 0,0 km/h (0 Bft)
16.07.2018 22:40 14,3 °C 90 % 1010,3 hPa 0,0 mm 0,0 km/h (0 Bft) O 86 ° 0 min 0,000 mm 0,0 UV-I 0 W/m² 12,7 °C 14,3 °C 0,0 km/h (0 Bft)
16.07.2018 22:41 14,3 °C 90 % 1010,3 hPa 0,0 mm 0,0 km/h (0 Bft) O 86 ° 0 min 0,000 mm 0,0 UV-I 0 W/m² 12,7 °C 14,3 °C 0,0 km/h (0 Bft)
16.07.2018 22:42 14,3 °C 90 % 1010,3 hPa 0,0 mm 0,0 km/h (0 Bft) O 86 ° 0 min 0,000 mm 0,0 UV-I 0 W/m² 12,7 °C 14,3 °C 0,0 km/h (0 Bft)
16.07.2018 22:43 14,3 °C 91 % 1010,3 hPa 0,0 mm 0,0 km/h (0 Bft) O 86 ° 0 min 0,000 mm 0,0 UV-I 0 W/m² 12,8 °C 14,3 °C 0,0 km/h (0 Bft)
16.07.2018 22:44 14,3 °C 90 % 1010,3 hPa 0,0 mm 0,0 km/h (0 Bft) O 86 ° 0 min 0,000 mm 0,0 UV-I 0 W/m² 12,7 °C 14,3 °C 0,0 km/h (0 Bft)
16.07.2018 22:45 14,3 °C 90 % 1010,3 hPa 0,0 mm 0,0 km/h (0 Bft) O 86 ° 0 min 0,000 mm 0,0 UV-I 0 W/m² 12,7 °C 14,3 °C 0,0 km/h (0 Bft)
16.07.2018 22:46 14,3 °C 90 % 1010,3 hPa 0,0 mm 0,0 km/h (0 Bft) O 86 ° 0 min 0,000 mm 0,0 UV-I 0 W/m² 12,7 °C 14,3 °C 0,0 km/h (0 Bft)
16.07.2018 22:47 14,4 °C 90 % 1010,3 hPa 0,0 mm 0,0 km/h (0 Bft) O 86 ° 0 min 0,000 mm 0,0 UV-I 0 W/m² 12,8 °C 14,4 °C 0,0 km/h (0 Bft)
16.07.2018 22:48 14,4 °C 90 % 1010,2 hPa 0,0 mm 0,0 km/h (0 Bft) O 86 ° 0 min 0,000 mm 0,0 UV-I 0 W/m² 12,8 °C 14,4 °C 0,0 km/h (0 Bft)
16.07.2018 22:49 14,4 °C 90 % 1010,3 hPa 0,0 mm 0,0 km/h (0 Bft) O 86 ° 0 min 0,000 mm 0,0 UV-I 0 W/m² 12,8 °C 14,4 °C 0,0 km/h (0 Bft)
16.07.2018 22:50 14,4 °C 90 % 1010,3 hPa 0,0 mm 0,0 km/h (0 Bft) O 86 ° 0 min 0,000 mm 0,0 UV-I 0 W/m² 12,8 °C 14,4 °C 0,0 km/h (0 Bft)
16.07.2018 22:51 14,3 °C 90 % 1010,3 hPa 0,0 mm 0,0 km/h (0 Bft) O 86 ° 0 min 0,000 mm 0,0 UV-I 0 W/m² 12,7 °C 14,3 °C 0,0 km/h (0 Bft)
16.07.2018 22:52 14,3 °C 90 % 1010,3 hPa 0,0 mm 0,0 km/h (0 Bft) O 86 ° 0 min 0,000 mm 0,0 UV-I 0 W/m² 12,7 °C 14,3 °C 0,0 km/h (0 Bft)
16.07.2018 22:53 14,3 °C 90 % 1010,3 hPa 0,0 mm 0,0 km/h (0 Bft) O 86 ° 0 min 0,000 mm 0,0 UV-I 0 W/m² 12,7 °C 14,3 °C 0,0 km/h (0 Bft)
16.07.2018 22:54 14,3 °C 90 % 1010,3 hPa 0,0 mm 0,0 km/h (0 Bft) O 86 ° 0 min 0,000 mm 0,0 UV-I 0 W/m² 12,7 °C 14,3 °C 0,0 km/h (0 Bft)
16.07.2018 22:55 14,3 °C 90 % 1010,3 hPa 0,0 mm 0,0 km/h (0 Bft) O 86 ° 0 min 0,000 mm 0,0 UV-I 0 W/m² 12,7 °C 14,3 °C 0,0 km/h (0 Bft)
16.07.2018 22:56 14,3 °C 90 % 1010,3 hPa 0,0 mm 0,0 km/h (0 Bft) O 86 ° 0 min 0,000 mm 0,0 UV-I 0 W/m² 12,7 °C 14,3 °C 0,0 km/h (0 Bft)
16.07.2018 22:57 14,3 °C 90 % 1010,3 hPa 0,0 mm 0,0 km/h (0 Bft) O 86 ° 0 min 0,000 mm 0,0 UV-I 0 W/m² 12,7 °C 14,3 °C 0,0 km/h (0 Bft)
16.07.2018 22:58 14,2 °C 90 % 1010,3 hPa 0,0 mm 0,0 km/h (0 Bft) O 86 ° 0 min 0,000 mm 0,0 UV-I 0 W/m² 12,6 °C 14,2 °C 0,0 km/h (0 Bft)
16.07.2018 22:59 14,2 °C 90 % 1010,3 hPa 0,0 mm 0,0 km/h (0 Bft) O 86 ° 0 min 0,000 mm 0,0 UV-I 0 W/m² 12,6 °C 14,2 °C 0,0 km/h (0 Bft)
16.07.2018 23:00 14,2 °C 90 % 1010,3 hPa 0,0 mm 0,0 km/h (0 Bft) O 86 ° 0 min 0,000 mm 0,0 UV-I 0 W/m² 12,6 °C 14,2 °C 0,0 km/h (0 Bft)
16.07.2018 23:01 14,2 °C 90 % 1010,3 hPa 0,0 mm 0,0 km/h (0 Bft) O 86 ° 0 min 0,000 mm 0,0 UV-I 0 W/m² 12,6 °C 14,2 °C 0,0 km/h (0 Bft)
16.07.2018 23:02 14,1 °C 90 % 1010,3 hPa 0,0 mm 0,0 km/h (0 Bft) O 86 ° 0 min 0,000 mm 0,0 UV-I 0 W/m² 12,5 °C 14,1 °C 0,0 km/h (0 Bft)
16.07.2018 23:03 14,1 °C 90 % 1010,3 hPa 0,0 mm 0,0 km/h (0 Bft) O 86 ° 0 min 0,000 mm 0,0 UV-I 0 W/m² 12,5 °C 14,1 °C 0,0 km/h (0 Bft)
16.07.2018 23:04 14,0 °C 91 % 1010,3 hPa 0,0 mm 0,0 km/h (0 Bft) O 86 ° 0 min 0,000 mm 0,0 UV-I 0 W/m² 12,6 °C 14,0 °C 0,0 km/h (0 Bft)
16.07.2018 23:05 14,0 °C 91 % 1010,3 hPa 0,0 mm 0,0 km/h (0 Bft) O 86 ° 0 min 0,000 mm 0,0 UV-I 0 W/m² 12,6 °C 14,0 °C 0,0 km/h (0 Bft)
16.07.2018 23:06 14,0 °C 91 % 1010,3 hPa 0,0 mm 0,0 km/h (0 Bft) O 86 ° 0 min 0,000 mm 0,0 UV-I 0 W/m² 12,6 °C 14,0 °C 0,0 km/h (0 Bft)
16.07.2018 23:07 13,9 °C 91 % 1010,3 hPa 0,0 mm 0,0 km/h (0 Bft) O 86 ° 0 min 0,000 mm 0,0 UV-I 0 W/m² 12,5 °C 13,9 °C 0,0 km/h (0 Bft)
16.07.2018 23:08 13,9 °C 91 % 1010,2 hPa 0,0 mm 0,0 km/h (0 Bft) O 86 ° 0 min 0,000 mm 0,0 UV-I 0 W/m² 12,5 °C 13,9 °C 0,0 km/h (0 Bft)
16.07.2018 23:09 13,9 °C 91 % 1010,3 hPa 0,0 mm 0,0 km/h (0 Bft) O 86 ° 0 min 0,000 mm 0,0 UV-I 0 W/m² 12,5 °C 13,9 °C 0,0 km/h (0 Bft)
16.07.2018 23:10 13,9 °C 91 % 1010,3 hPa 0,0 mm 0,0 km/h (0 Bft) O 86 ° 0 min 0,000 mm 0,0 UV-I 0 W/m² 12,5 °C 13,9 °C 0,0 km/h (0 Bft)
16.07.2018 23:11 13,8 °C 91 % 1010,3 hPa 0,0 mm 0,0 km/h (0 Bft) O 86 ° 0 min 0,000 mm 0,0 UV-I 0 W/m² 12,4 °C 13,8 °C 0,0 km/h (0 Bft)
16.07.2018 23:12 13,9 °C 91 % 1010,3 hPa 0,0 mm 0,0 km/h (0 Bft) O 86 ° 0 min 0,000 mm 0,0 UV-I 0 W/m² 12,5 °C 13,9 °C 0,0 km/h (0 Bft)
16.07.2018 23:13 13,9 °C 91 % 1010,2 hPa 0,0 mm 0,0 km/h (0 Bft) O 86 ° 0 min 0,000 mm 0,0 UV-I 0 W/m² 12,5 °C 13,9 °C 0,0 km/h (0 Bft)
16.07.2018 23:14 13,9 °C 91 % 1010,3 hPa 0,0 mm 0,0 km/h (0 Bft) O 86 ° 0 min 0,000 mm 0,0 UV-I 0 W/m² 12,5 °C 13,9 °C 0,0 km/h (0 Bft)
16.07.2018 23:15 13,9 °C 91 % 1010,3 hPa 0,0 mm 0,0 km/h (0 Bft) O 86 ° 0 min 0,000 mm 0,0 UV-I 0 W/m² 12,5 °C 13,9 °C 0,0 km/h (0 Bft)
16.07.2018 23:16 13,9 °C 91 % 1010,3 hPa 0,0 mm 0,0 km/h (0 Bft) O 86 ° 0 min 0,000 mm 0,0 UV-I 0 W/m² 12,5 °C 13,9 °C 0,0 km/h (0 Bft)
16.07.2018 23:17 13,9 °C 91 % 1010,3 hPa 0,0 mm 0,0 km/h (0 Bft) O 86 ° 0 min 0,000 mm 0,0 UV-I 0 W/m² 12,5 °C 13,9 °C 0,0 km/h (0 Bft)
16.07.2018 23:18 13,9 °C 91 % 1010,3 hPa 0,0 mm 0,0 km/h (0 Bft) O 86 ° 0 min 0,000 mm 0,0 UV-I 0 W/m² 12,5 °C 13,9 °C 0,0 km/h (0 Bft)
16.07.2018 23:19 13,9 °C 91 % 1010,3 hPa 0,0 mm 0,0 km/h (0 Bft) O 86 ° 0 min 0,000 mm 0,0 UV-I 0 W/m² 12,5 °C 13,9 °C 0,0 km/h (0 Bft)
16.07.2018 23:20 13,8 °C 91 % 1010,3 hPa 0,0 mm 0,0 km/h (0 Bft) O 86 ° 0 min 0,000 mm 0,0 UV-I 0 W/m² 12,4 °C 13,8 °C 0,0 km/h (0 Bft)
16.07.2018 23:21 13,8 °C 91 % 1010,3 hPa 0,0 mm 0,0 km/h (0 Bft) O 86 ° 0 min 0,000 mm 0,0 UV-I 0 W/m² 12,4 °C 13,8 °C 0,0 km/h (0 Bft)
16.07.2018 23:22 13,8 °C 91 % 1010,3 hPa 0,0 mm 0,0 km/h (0 Bft) O 86 ° 0 min 0,000 mm 0,0 UV-I 0 W/m² 12,4 °C 13,8 °C 0,0 km/h (0 Bft)
16.07.2018 23:23 13,8 °C 91 % 1010,4 hPa 0,0 mm 0,0 km/h (0 Bft) O 86 ° 0 min 0,000 mm 0,0 UV-I 0 W/m² 12,4 °C 13,8 °C 0,0 km/h (0 Bft)
16.07.2018 23:24 13,8 °C 91 % 1010,3 hPa 0,0 mm 0,0 km/h (0 Bft) O 86 ° 0 min 0,000 mm 0,0 UV-I 0 W/m² 12,4 °C 13,8 °C 0,0 km/h (0 Bft)
16.07.2018 23:25 13,8 °C 91 % 1010,3 hPa 0,0 mm 0,0 km/h (0 Bft) O 86 ° 0 min 0,000 mm 0,0 UV-I 0 W/m² 12,4 °C 13,8 °C 0,0 km/h (0 Bft)
16.07.2018 23:26 13,7 °C 91 % 1010,4 hPa 0,0 mm 0,0 km/h (0 Bft) O 86 ° 0 min 0,000 mm 0,0 UV-I 0 W/m² 12,3 °C 13,7 °C 0,0 km/h (0 Bft)
16.07.2018 23:27 13,7 °C 91 % 1010,3 hPa 0,0 mm 0,0 km/h (0 Bft) O 86 ° 0 min 0,000 mm 0,0 UV-I 0 W/m² 12,3 °C 13,7 °C 0,0 km/h (0 Bft)
16.07.2018 23:28 13,7 °C 92 % 1010,3 hPa 0,0 mm 0,0 km/h (0 Bft) O 86 ° 0 min 0,000 mm 0,0 UV-I 0 W/m² 12,4 °C 13,7 °C 0,0 km/h (0 Bft)
16.07.2018 23:29 13,7 °C 91 % 1010,3 hPa 0,0 mm 0,0 km/h (0 Bft) O 86 ° 0 min 0,000 mm 0,0 UV-I 0 W/m² 12,3 °C 13,7 °C 0,0 km/h (0 Bft)
16.07.2018 23:30 13,6 °C 91 % 1010,3 hPa 0,0 mm 0,0 km/h (0 Bft) O 86 ° 0 min 0,000 mm 0,0 UV-I 0 W/m² 12,2 °C 13,6 °C 0,0 km/h (0 Bft)
16.07.2018 23:31 13,6 °C 91 % 1010,3 hPa 0,0 mm 0,0 km/h (0 Bft) O 86 ° 0 min 0,000 mm 0,0 UV-I 0 W/m² 12,2 °C 13,6 °C 0,0 km/h (0 Bft)
16.07.2018 23:32 13,6 °C 92 % 1010,3 hPa 0,0 mm 0,0 km/h (0 Bft) O 86 ° 0 min 0,000 mm 0,0 UV-I 0 W/m² 12,3 °C 13,6 °C 0,0 km/h (0 Bft)
16.07.2018 23:33 13,6 °C 92 % 1010,3 hPa 0,0 mm 0,0 km/h (0 Bft) O 86 ° 0 min 0,000 mm 0,0 UV-I 0 W/m² 12,3 °C 13,6 °C 0,0 km/h (0 Bft)
16.07.2018 23:34 13,7 °C 92 % 1010,3 hPa 0,0 mm 0,0 km/h (0 Bft) O 86 ° 0 min 0,000 mm 0,0 UV-I 0 W/m² 12,4 °C 13,7 °C 0,0 km/h (0 Bft)
16.07.2018 23:35 13,6 °C 92 % 1010,3 hPa 0,0 mm 0,0 km/h (0 Bft) O 86 ° 0 min 0,000 mm 0,0 UV-I 0 W/m² 12,3 °C 13,6 °C 0,0 km/h (0 Bft)
16.07.2018 23:36 13,6 °C 92 % 1010,3 hPa 0,0 mm 0,0 km/h (0 Bft) O 86 ° 0 min 0,000 mm 0,0 UV-I 0 W/m² 12,3 °C 13,6 °C 0,0 km/h (0 Bft)
16.07.2018 23:37 13,7 °C 92 % 1010,4 hPa 0,0 mm 0,0 km/h (0 Bft) O 86 ° 0 min 0,000 mm 0,0 UV-I 0 W/m² 12,4 °C 13,7 °C 0,0 km/h (0 Bft)
16.07.2018 23:38 13,7 °C 92 % 1010,4 hPa 0,0 mm 0,0 km/h (0 Bft) O 86 ° 0 min 0,000 mm 0,0 UV-I 0 W/m² 12,4 °C 13,7 °C 0,0 km/h (0 Bft)
16.07.2018 23:39 13,6 °C 92 % 1010,4 hPa 0,0 mm 0,0 km/h (0 Bft) O 86 ° 0 min 0,000 mm 0,0 UV-I 0 W/m² 12,3 °C 13,6 °C 0,0 km/h (0 Bft)
16.07.2018 23:40 13,7 °C 92 % 1010,4 hPa 0,0 mm 0,0 km/h (0 Bft) O 86 ° 0 min 0,000 mm 0,0 UV-I 0 W/m² 12,4 °C 13,7 °C 0,0 km/h (0 Bft)
16.07.2018 23:41 13,6 °C 92 % 1010,4 hPa 0,0 mm 0,0 km/h (0 Bft) O 86 ° 0 min 0,000 mm 0,0 UV-I 0 W/m² 12,3 °C 13,6 °C 0,0 km/h (0 Bft)
16.07.2018 23:42 13,7 °C 92 % 1010,4 hPa 0,0 mm 0,0 km/h (0 Bft) O 86 ° 0 min 0,000 mm 0,0 UV-I 0 W/m² 12,4 °C 13,7 °C 0,0 km/h (0 Bft)
16.07.2018 23:43 13,7 °C 92 % 1010,4 hPa 0,0 mm 0,0 km/h (0 Bft) O 86 ° 0 min 0,000 mm 0,0 UV-I 0 W/m² 12,4 °C 13,7 °C 0,0 km/h (0 Bft)
16.07.2018 23:44 13,7 °C 92 % 1010,4 hPa 0,0 mm 0,0 km/h (0 Bft) O 86 ° 0 min 0,000 mm 0,0 UV-I 0 W/m² 12,4 °C 13,7 °C 0,0 km/h (0 Bft)
16.07.2018 23:45 13,7 °C 92 % 1010,5 hPa 0,0 mm 0,0 km/h (0 Bft) O 86 ° 0 min 0,000 mm 0,0 UV-I 0 W/m² 12,4 °C 13,7 °C 0,0 km/h (0 Bft)
16.07.2018 23:46 13,7 °C 91 % 1010,5 hPa 0,0 mm 0,0 km/h (0 Bft) O 86 ° 0 min 0,000 mm 0,0 UV-I 0 W/m² 12,3 °C 13,7 °C 0,0 km/h (0 Bft)
16.07.2018 23:47 13,8 °C 92 % 1010,5 hPa 0,0 mm 0,0 km/h (0 Bft) O 86 ° 0 min 0,000 mm 0,0 UV-I 0 W/m² 12,5 °C 13,8 °C 0,0 km/h (0 Bft)
16.07.2018 23:48 13,8 °C 92 % 1010,5 hPa 0,0 mm 0,0 km/h (0 Bft) O 86 ° 0 min 0,000 mm 0,0 UV-I 0 W/m² 12,5 °C 13,8 °C 0,0 km/h (0 Bft)
16.07.2018 23:49 13,7 °C 91 % 1010,5 hPa 0,0 mm 0,0 km/h (0 Bft) O 86 ° 0 min 0,000 mm 0,0 UV-I 0 W/m² 12,3 °C 13,7 °C 0,0 km/h (0 Bft)
16.07.2018 23:50 13,7 °C 91 % 1010,6 hPa 0,0 mm 0,0 km/h (0 Bft) O 86 ° 0 min 0,000 mm 0,0 UV-I 0 W/m² 12,3 °C 13,7 °C 0,0 km/h (0 Bft)
16.07.2018 23:51 13,7 °C 91 % 1010,6 hPa 0,0 mm 0,0 km/h (0 Bft) O 86 ° 0 min 0,000 mm 0,0 UV-I 0 W/m² 12,3 °C 13,7 °C 0,0 km/h (0 Bft)
16.07.2018 23:52 13,7 °C 91 % 1010,6 hPa 0,0 mm 0,0 km/h (0 Bft) O 86 ° 0 min 0,000 mm 0,0 UV-I 0 W/m² 12,3 °C 13,7 °C 0,0 km/h (0 Bft)
16.07.2018 23:53 13,7 °C 91 % 1010,6 hPa 0,0 mm 0,0 km/h (0 Bft) O 86 ° 0 min 0,000 mm 0,0 UV-I 0 W/m² 12,3 °C 13,7 °C 0,0 km/h (0 Bft)
16.07.2018 23:54 13,7 °C 92 % 1010,6 hPa 0,0 mm 0,0 km/h (0 Bft) O 86 ° 0 min 0,000 mm 0,0 UV-I 0 W/m² 12,4 °C 13,7 °C 0,0 km/h (0 Bft)
16.07.2018 23:55 13,7 °C 91 % 1010,6 hPa 0,0 mm 0,0 km/h (0 Bft) O 86 ° 0 min 0,000 mm 0,0 UV-I 0 W/m² 12,3 °C 13,7 °C 0,0 km/h (0 Bft)
16.07.2018 23:56 13,7 °C 91 % 1010,6 hPa 0,0 mm 0,0 km/h (0 Bft) O 86 ° 0 min 0,000 mm 0,0 UV-I 0 W/m² 12,3 °C 13,7 °C 0,0 km/h (0 Bft)
16.07.2018 23:57 13,7 °C 91 % 1010,7 hPa 0,0 mm 0,0 km/h (0 Bft) O 86 ° 0 min 0,000 mm 0,0 UV-I 0 W/m² 12,3 °C 13,7 °C 0,0 km/h (0 Bft)
16.07.2018 23:58 13,7 °C 91 % 1010,7 hPa 0,0 mm 0,0 km/h (0 Bft) O 86 ° 0 min 0,000 mm 0,0 UV-I 0 W/m² 12,3 °C 13,7 °C 0,0 km/h (0 Bft)
16.07.2018 23:59 13,7 °C 91 % 1010,7 hPa 0,0 mm 0,0 km/h (0 Bft) O 86 ° 0 min 0,000 mm 0,0 UV-I 0 W/m² 12,3 °C 13,7 °C 0,0 km/h (0 Bft)
_ Min-Zeit 06:09 15:03 19:42 - 23:59 - - - - - - 00:40 06:09 23:59
Minimum _ 13,2 °C 51 % 1009,0 hPa - 0,0 km/h (0 Bft) - - - - - - 11,1 °C 13,2 °C 0,0 km/h (0 Bft)
_ Max-Zeit 15:50 23:54 01:55 06:55 16:39 - - 15:50 13:01 13:27 14:50 16:56 15:50 16:38
Maximum _ 23,4 °C 92 % 1013,5 hPa 0,2 mm 14,5 km/h
NW (3 Bft)
- - 1 min 0,533 mm 7,6 UV-I 1085 W/m² 16,1 °C 23,4 °C 20,9 km/h
NW (4 Bft)
Durchschnitt _ 17,3 °C 78 % 1011,3 hPa #0,2 mm 2,4 km/h (1 Bft) NW - #3:56 h #3,404 mm 3,5 UV-I 221 W/m² 13,2 °C 17,3 °C 4,3 km/h (1 Bft)